<?xml version="1.0" encoding="UTF-8" standalone="no" ?>
<gpx xmlns="http://www.topografix.com/GPX/1/1" xmlns:xsi="http://www.w3.org/2001/XMLSchema-instance" xsi:schemaLocation="http://www.topografix.com/GPX/1/1 http://www.topografix.com/GPX/1/1/gpx.xsd" version="1.1" creator="VisuGPX - https://www.visugpx.com">
  <metadata>
    <name>2015-12-08 Lac de la Thuile - Montgelas</name>
    <desc><![CDATA[Une étape tu tour des sommets visibles de Chambéry]]></desc>
  </metadata>
  <trk>
    <name><![CDATA[2015-12-08 Montgelas]]></name>
    <trkseg>
      <trkpt lat="45.52916" lon="6.06036">
        <ele>871</ele>
        <time>2015-12-08T08:10:39Z</time>
      </trkpt>
      <trkpt lat="45.52917" lon="6.06033">
        <ele>871</ele>
        <time>2015-12-08T08:10:45Z</time>
      </trkpt>
      <trkpt lat="45.52918" lon="6.06032">
        <ele>871</ele>
        <time>2015-12-08T08:10:49Z</time>
      </trkpt>
      <trkpt lat="45.52917" lon="6.06029">
        <ele>871</ele>
        <time>2015-12-08T08:10:57Z</time>
      </trkpt>
      <trkpt lat="45.52919" lon="6.06025">
        <ele>882.928569211</ele>
        <time>2015-12-08T08:10:59Z</time>
      </trkpt>
      <trkpt lat="45.5292" lon="6.06024">
        <ele>882.928569211</ele>
        <time>2015-12-08T08:11:04Z</time>
      </trkpt>
      <trkpt lat="45.52928" lon="6.06024">
        <ele>887.423164903</ele>
        <time>2015-12-08T08:11:14Z</time>
      </trkpt>
      <trkpt lat="45.52929" lon="6.06027">
        <ele>887.423164903</ele>
        <time>2015-12-08T08:11:20Z</time>
      </trkpt>
      <trkpt lat="45.52931" lon="6.0603">
        <ele>887.423164903</ele>
        <time>2015-12-08T08:11:29Z</time>
      </trkpt>
      <trkpt lat="45.52929" lon="6.06031">
        <ele>887.423164903</ele>
        <time>2015-12-08T08:11:35Z</time>
      </trkpt>
      <trkpt lat="45.5293" lon="6.0603">
        <ele>887.423164903</ele>
        <time>2015-12-08T08:11:45Z</time>
      </trkpt>
      <trkpt lat="45.52931" lon="6.06029">
        <ele>887.423164903</ele>
        <time>2015-12-08T08:11:50Z</time>
      </trkpt>
      <trkpt lat="45.52931" lon="6.06029">
        <ele>892.530771058</ele>
        <time>2015-12-08T08:12:00Z</time>
      </trkpt>
      <trkpt lat="45.52931" lon="6.06029">
        <ele>892.530771058</ele>
        <time>2015-12-08T08:12:05Z</time>
      </trkpt>
      <trkpt lat="45.52931" lon="6.06029">
        <ele>892.530771058</ele>
        <time>2015-12-08T08:12:16Z</time>
      </trkpt>
      <trkpt lat="45.52931" lon="6.06029">
        <ele>892.530771058</ele>
        <time>2015-12-08T08:12:20Z</time>
      </trkpt>
      <trkpt lat="45.52931" lon="6.06029">
        <ele>892.530771058</ele>
        <time>2015-12-08T08:12:30Z</time>
      </trkpt>
      <trkpt lat="45.52931" lon="6.06029">
        <ele>892.530771058</ele>
        <time>2015-12-08T08:12:34Z</time>
      </trkpt>
      <trkpt lat="45.52931" lon="6.06029">
        <ele>892.530771058</ele>
        <time>2015-12-08T08:12:49Z</time>
      </trkpt>
      <trkpt lat="45.5293" lon="6.06032">
        <ele>892.530771058</ele>
        <time>2015-12-08T08:12:54Z</time>
      </trkpt>
      <trkpt lat="45.52926" lon="6.06042">
        <ele>896.697915337</ele>
        <time>2015-12-08T08:13:00Z</time>
      </trkpt>
      <trkpt lat="45.5292" lon="6.06049">
        <ele>896.697915337</ele>
        <time>2015-12-08T08:13:05Z</time>
      </trkpt>
      <trkpt lat="45.52904" lon="6.06072">
        <ele>900.932115379</ele>
        <time>2015-12-08T08:13:21Z</time>
      </trkpt>
      <trkpt lat="45.52899" lon="6.0608">
        <ele>900.932115379</ele>
        <time>2015-12-08T08:13:25Z</time>
      </trkpt>
      <trkpt lat="45.52889" lon="6.0609">
        <ele>905.949540969</ele>
        <time>2015-12-08T08:13:35Z</time>
      </trkpt>
      <trkpt lat="45.52885" lon="6.06094">
        <ele>905.949540969</ele>
        <time>2015-12-08T08:13:40Z</time>
      </trkpt>
      <trkpt lat="45.52874" lon="6.061">
        <ele>910.067535274</ele>
        <time>2015-12-08T08:13:50Z</time>
      </trkpt>
      <trkpt lat="45.5287" lon="6.06105">
        <ele>910.067535274</ele>
        <time>2015-12-08T08:13:55Z</time>
      </trkpt>
      <trkpt lat="45.52862" lon="6.06113">
        <ele>913.999175639</ele>
        <time>2015-12-08T08:14:06Z</time>
      </trkpt>
      <trkpt lat="45.52858" lon="6.06119">
        <ele>913.999175639</ele>
        <time>2015-12-08T08:14:10Z</time>
      </trkpt>
      <trkpt lat="45.52844" lon="6.06132">
        <ele>916.805275009</ele>
        <time>2015-12-08T08:14:21Z</time>
      </trkpt>
      <trkpt lat="45.52841" lon="6.06134">
        <ele>916.805275009</ele>
        <time>2015-12-08T08:14:25Z</time>
      </trkpt>
      <trkpt lat="45.52827" lon="6.06149">
        <ele>919.702906032</ele>
        <time>2015-12-08T08:14:35Z</time>
      </trkpt>
      <trkpt lat="45.5282" lon="6.06156">
        <ele>921.988648533</ele>
        <time>2015-12-08T08:14:40Z</time>
      </trkpt>
      <trkpt lat="45.52795" lon="6.06165">
        <ele>922.890219341</ele>
        <time>2015-12-08T08:14:54Z</time>
      </trkpt>
      <trkpt lat="45.52787" lon="6.06165">
        <ele>922.890219341</ele>
        <time>2015-12-08T08:14:59Z</time>
      </trkpt>
      <trkpt lat="45.52778" lon="6.06162">
        <ele>922.394237104</ele>
        <time>2015-12-08T08:15:13Z</time>
      </trkpt>
      <trkpt lat="45.52776" lon="6.06162">
        <ele>922.394237104</ele>
        <time>2015-12-08T08:15:14Z</time>
      </trkpt>
      <trkpt lat="45.52764" lon="6.0617">
        <ele>921.849784399</ele>
        <time>2015-12-08T08:15:23Z</time>
      </trkpt>
      <trkpt lat="45.52756" lon="6.06171">
        <ele>921.849784399</ele>
        <time>2015-12-08T08:15:24Z</time>
      </trkpt>
      <trkpt lat="45.52751" lon="6.06173">
        <ele>920.8289222</ele>
        <time>2015-12-08T08:15:31Z</time>
      </trkpt>
      <trkpt lat="45.5275" lon="6.06173">
        <ele>920.8289222</ele>
        <time>2015-12-08T08:15:41Z</time>
      </trkpt>
      <trkpt lat="45.52757" lon="6.06174">
        <ele>920.8289222</ele>
        <time>2015-12-08T08:15:45Z</time>
      </trkpt>
      <trkpt lat="45.52776" lon="6.06158">
        <ele>918.286250917</ele>
        <time>2015-12-08T08:15:55Z</time>
      </trkpt>
      <trkpt lat="45.52783" lon="6.06155">
        <ele>918.286250917</ele>
        <time>2015-12-08T08:16:00Z</time>
      </trkpt>
      <trkpt lat="45.52798" lon="6.06158">
        <ele>916.076568527</ele>
        <time>2015-12-08T08:16:12Z</time>
      </trkpt>
      <trkpt lat="45.52804" lon="6.06165">
        <ele>916.076568527</ele>
        <time>2015-12-08T08:16:15Z</time>
      </trkpt>
      <trkpt lat="45.52806" lon="6.06178">
        <ele>914.37770903</ele>
        <time>2015-12-08T08:16:25Z</time>
      </trkpt>
      <trkpt lat="45.52806" lon="6.06185">
        <ele>914.37770903</ele>
        <time>2015-12-08T08:16:30Z</time>
      </trkpt>
      <trkpt lat="45.52807" lon="6.06199">
        <ele>912.533598023</ele>
        <time>2015-12-08T08:16:40Z</time>
      </trkpt>
      <trkpt lat="45.52808" lon="6.06207">
        <ele>912.533598023</ele>
        <time>2015-12-08T08:16:45Z</time>
      </trkpt>
      <trkpt lat="45.52799" lon="6.06215">
        <ele>910.903883208</ele>
        <time>2015-12-08T08:16:55Z</time>
      </trkpt>
      <trkpt lat="45.52795" lon="6.06216">
        <ele>910.903883208</ele>
        <time>2015-12-08T08:17:00Z</time>
      </trkpt>
      <trkpt lat="45.52791" lon="6.0622">
        <ele>910.412024492</ele>
        <time>2015-12-08T08:17:10Z</time>
      </trkpt>
      <trkpt lat="45.52789" lon="6.06222">
        <ele>910.412024492</ele>
        <time>2015-12-08T08:17:15Z</time>
      </trkpt>
      <trkpt lat="45.52783" lon="6.06226">
        <ele>910.412024492</ele>
        <time>2015-12-08T08:17:31Z</time>
      </trkpt>
      <trkpt lat="45.52781" lon="6.06227">
        <ele>911.090708242</ele>
        <time>2015-12-08T08:17:35Z</time>
      </trkpt>
      <trkpt lat="45.52778" lon="6.06233">
        <ele>911.090708242</ele>
        <time>2015-12-08T08:17:45Z</time>
      </trkpt>
      <trkpt lat="45.52777" lon="6.06232">
        <ele>911.090708242</ele>
        <time>2015-12-08T08:17:50Z</time>
      </trkpt>
      <trkpt lat="45.52776" lon="6.06233">
        <ele>911.090708242</ele>
        <time>2015-12-08T08:18:00Z</time>
      </trkpt>
      <trkpt lat="45.52771" lon="6.06235">
        <ele>912.211736037</ele>
        <time>2015-12-08T08:18:05Z</time>
      </trkpt>
      <trkpt lat="45.52758" lon="6.06235">
        <ele>913.874899337</ele>
        <time>2015-12-08T08:18:16Z</time>
      </trkpt>
      <trkpt lat="45.52757" lon="6.06236">
        <ele>913.874899337</ele>
        <time>2015-12-08T08:18:20Z</time>
      </trkpt>
      <trkpt lat="45.52751" lon="6.06242">
        <ele>913.874899337</ele>
        <time>2015-12-08T08:18:25Z</time>
      </trkpt>
      <trkpt lat="45.5274" lon="6.06246">
        <ele>916.020861156</ele>
        <time>2015-12-08T08:18:34Z</time>
      </trkpt>
      <trkpt lat="45.52737" lon="6.0625">
        <ele>916.020861156</ele>
        <time>2015-12-08T08:18:40Z</time>
      </trkpt>
      <trkpt lat="45.52731" lon="6.06253">
        <ele>917.445798766</ele>
        <time>2015-12-08T08:18:50Z</time>
      </trkpt>
      <trkpt lat="45.52722" lon="6.06257">
        <ele>919.075970251</ele>
        <time>2015-12-08T08:18:55Z</time>
      </trkpt>
      <trkpt lat="45.52713" lon="6.06254">
        <ele>920.607454008</ele>
        <time>2015-12-08T08:19:05Z</time>
      </trkpt>
      <trkpt lat="45.52708" lon="6.06255">
        <ele>920.607454008</ele>
        <time>2015-12-08T08:19:10Z</time>
      </trkpt>
      <trkpt lat="45.52699" lon="6.06247">
        <ele>922.047310457</ele>
        <time>2015-12-08T08:19:20Z</time>
      </trkpt>
      <trkpt lat="45.52697" lon="6.06244">
        <ele>922.047310457</ele>
        <time>2015-12-08T08:19:24Z</time>
      </trkpt>
      <trkpt lat="45.52688" lon="6.06237">
        <ele>923.959053472</ele>
        <time>2015-12-08T08:19:36Z</time>
      </trkpt>
      <trkpt lat="45.52685" lon="6.0623">
        <ele>923.959053472</ele>
        <time>2015-12-08T08:19:41Z</time>
      </trkpt>
      <trkpt lat="45.5268" lon="6.0623">
        <ele>926.162779644</ele>
        <time>2015-12-08T08:19:50Z</time>
      </trkpt>
      <trkpt lat="45.52674" lon="6.06229">
        <ele>926.162779644</ele>
        <time>2015-12-08T08:19:55Z</time>
      </trkpt>
      <trkpt lat="45.52668" lon="6.06228">
        <ele>928.633731119</ele>
        <time>2015-12-08T08:20:06Z</time>
      </trkpt>
      <trkpt lat="45.52665" lon="6.06227">
        <ele>928.633731119</ele>
        <time>2015-12-08T08:20:10Z</time>
      </trkpt>
      <trkpt lat="45.5266" lon="6.06225">
        <ele>928.633731119</ele>
        <time>2015-12-08T08:20:21Z</time>
      </trkpt>
      <trkpt lat="45.52659" lon="6.06223">
        <ele>931.766554917</ele>
        <time>2015-12-08T08:20:25Z</time>
      </trkpt>
      <trkpt lat="45.52638" lon="6.0623">
        <ele>933.983245401</ele>
        <time>2015-12-08T08:20:41Z</time>
      </trkpt>
      <trkpt lat="45.52633" lon="6.06235">
        <ele>933.983245401</ele>
        <time>2015-12-08T08:20:45Z</time>
      </trkpt>
      <trkpt lat="45.5262" lon="6.06234">
        <ele>936.317800579</ele>
        <time>2015-12-08T08:20:55Z</time>
      </trkpt>
      <trkpt lat="45.52618" lon="6.06231">
        <ele>936.317800579</ele>
        <time>2015-12-08T08:21:00Z</time>
      </trkpt>
      <trkpt lat="45.52606" lon="6.06226">
        <ele>938.339990083</ele>
        <time>2015-12-08T08:21:11Z</time>
      </trkpt>
      <trkpt lat="45.52604" lon="6.06221">
        <ele>938.339990083</ele>
        <time>2015-12-08T08:21:15Z</time>
      </trkpt>
      <trkpt lat="45.52597" lon="6.06212">
        <ele>940.489416677</ele>
        <time>2015-12-08T08:21:25Z</time>
      </trkpt>
      <trkpt lat="45.5259" lon="6.06209">
        <ele>940.489416677</ele>
        <time>2015-12-08T08:21:30Z</time>
      </trkpt>
      <trkpt lat="45.52582" lon="6.06204">
        <ele>943.182316946</ele>
        <time>2015-12-08T08:21:40Z</time>
      </trkpt>
      <trkpt lat="45.52577" lon="6.06203">
        <ele>943.182316946</ele>
        <time>2015-12-08T08:21:45Z</time>
      </trkpt>
      <trkpt lat="45.52564" lon="6.06195">
        <ele>946.242036021</ele>
        <time>2015-12-08T08:21:55Z</time>
      </trkpt>
      <trkpt lat="45.52562" lon="6.06191">
        <ele>946.242036021</ele>
        <time>2015-12-08T08:22:01Z</time>
      </trkpt>
      <trkpt lat="45.52549" lon="6.0618">
        <ele>948.206336949</ele>
        <time>2015-12-08T08:22:11Z</time>
      </trkpt>
      <trkpt lat="45.52546" lon="6.06178">
        <ele>948.206336949</ele>
        <time>2015-12-08T08:22:15Z</time>
      </trkpt>
      <trkpt lat="45.52536" lon="6.06169">
        <ele>949.860102372</ele>
        <time>2015-12-08T08:22:25Z</time>
      </trkpt>
      <trkpt lat="45.52529" lon="6.06164">
        <ele>949.860102372</ele>
        <time>2015-12-08T08:22:30Z</time>
      </trkpt>
      <trkpt lat="45.52519" lon="6.06154">
        <ele>951.6593264</ele>
        <time>2015-12-08T08:22:41Z</time>
      </trkpt>
      <trkpt lat="45.52515" lon="6.06153">
        <ele>951.6593264</ele>
        <time>2015-12-08T08:22:45Z</time>
      </trkpt>
      <trkpt lat="45.52494" lon="6.06131">
        <ele>952.570077781</ele>
        <time>2015-12-08T08:23:00Z</time>
      </trkpt>
      <trkpt lat="45.52488" lon="6.06125">
        <ele>952.570077781</ele>
        <time>2015-12-08T08:23:05Z</time>
      </trkpt>
      <trkpt lat="45.52482" lon="6.06113">
        <ele>953.977786886</ele>
        <time>2015-12-08T08:23:16Z</time>
      </trkpt>
      <trkpt lat="45.52477" lon="6.06114">
        <ele>953.977786886</ele>
        <time>2015-12-08T08:23:20Z</time>
      </trkpt>
      <trkpt lat="45.52468" lon="6.06106">
        <ele>955.855185453</ele>
        <time>2015-12-08T08:23:30Z</time>
      </trkpt>
      <trkpt lat="45.52466" lon="6.06105">
        <ele>955.855185453</ele>
        <time>2015-12-08T08:23:35Z</time>
      </trkpt>
      <trkpt lat="45.52458" lon="6.06103">
        <ele>957.428726226</ele>
        <time>2015-12-08T08:23:51Z</time>
      </trkpt>
      <trkpt lat="45.52444" lon="6.06096">
        <ele>959.019705325</ele>
        <time>2015-12-08T08:24:05Z</time>
      </trkpt>
      <trkpt lat="45.52441" lon="6.06088">
        <ele>959.019705325</ele>
        <time>2015-12-08T08:24:11Z</time>
      </trkpt>
      <trkpt lat="45.52433" lon="6.0608">
        <ele>961.079440144</ele>
        <time>2015-12-08T08:24:21Z</time>
      </trkpt>
      <trkpt lat="45.52429" lon="6.06081">
        <ele>961.079440144</ele>
        <time>2015-12-08T08:24:25Z</time>
      </trkpt>
      <trkpt lat="45.52418" lon="6.06074">
        <ele>963.27478341</ele>
        <time>2015-12-08T08:24:35Z</time>
      </trkpt>
      <trkpt lat="45.5241" lon="6.06067">
        <ele>965.294173303</ele>
        <time>2015-12-08T08:24:40Z</time>
      </trkpt>
      <trkpt lat="45.52401" lon="6.06054">
        <ele>967.452500627</ele>
        <time>2015-12-08T08:24:51Z</time>
      </trkpt>
      <trkpt lat="45.52396" lon="6.06054">
        <ele>967.452500627</ele>
        <time>2015-12-08T08:24:55Z</time>
      </trkpt>
      <trkpt lat="45.52384" lon="6.06043">
        <ele>968.68234045</ele>
        <time>2015-12-08T08:25:05Z</time>
      </trkpt>
      <trkpt lat="45.5238" lon="6.06045">
        <ele>968.68234045</ele>
        <time>2015-12-08T08:25:10Z</time>
      </trkpt>
      <trkpt lat="45.52377" lon="6.06045">
        <ele>968.68234045</ele>
        <time>2015-12-08T08:25:15Z</time>
      </trkpt>
      <trkpt lat="45.5237" lon="6.06043">
        <ele>968.906845833</ele>
        <time>2015-12-08T08:25:24Z</time>
      </trkpt>
      <trkpt lat="45.52364" lon="6.06044">
        <ele>968.906845833</ele>
        <time>2015-12-08T08:25:30Z</time>
      </trkpt>
      <trkpt lat="45.5235" lon="6.06048">
        <ele>969.267258508</ele>
        <time>2015-12-08T08:25:40Z</time>
      </trkpt>
      <trkpt lat="45.52347" lon="6.06047">
        <ele>969.267258508</ele>
        <time>2015-12-08T08:25:45Z</time>
      </trkpt>
      <trkpt lat="45.5233" lon="6.06041">
        <ele>970.36216593</ele>
        <time>2015-12-08T08:25:55Z</time>
      </trkpt>
      <trkpt lat="45.52326" lon="6.0604">
        <ele>970.36216593</ele>
        <time>2015-12-08T08:26:01Z</time>
      </trkpt>
      <trkpt lat="45.52314" lon="6.06036">
        <ele>970.932243277</ele>
        <time>2015-12-08T08:26:11Z</time>
      </trkpt>
      <trkpt lat="45.52308" lon="6.06037">
        <ele>970.932243277</ele>
        <time>2015-12-08T08:26:15Z</time>
      </trkpt>
      <trkpt lat="45.52297" lon="6.06033">
        <ele>972.677520019</ele>
        <time>2015-12-08T08:26:30Z</time>
      </trkpt>
      <trkpt lat="45.52292" lon="6.06031">
        <ele>972.677520019</ele>
        <time>2015-12-08T08:26:35Z</time>
      </trkpt>
      <trkpt lat="45.5228" lon="6.06032">
        <ele>974.453776785</ele>
        <time>2015-12-08T08:26:45Z</time>
      </trkpt>
      <trkpt lat="45.52276" lon="6.06033">
        <ele>974.453776785</ele>
        <time>2015-12-08T08:26:50Z</time>
      </trkpt>
      <trkpt lat="45.52262" lon="6.06027">
        <ele>975.959763268</ele>
        <time>2015-12-08T08:27:01Z</time>
      </trkpt>
      <trkpt lat="45.52259" lon="6.06026">
        <ele>975.959763268</ele>
        <time>2015-12-08T08:27:05Z</time>
      </trkpt>
      <trkpt lat="45.52251" lon="6.06018">
        <ele>977.816131187</ele>
        <time>2015-12-08T08:27:15Z</time>
      </trkpt>
      <trkpt lat="45.52246" lon="6.06015">
        <ele>977.816131187</ele>
        <time>2015-12-08T08:27:21Z</time>
      </trkpt>
      <trkpt lat="45.52243" lon="6.06016">
        <ele>977.816131187</ele>
        <time>2015-12-08T08:27:24Z</time>
      </trkpt>
      <trkpt lat="45.52234" lon="6.06009">
        <ele>980.143398457</ele>
        <time>2015-12-08T08:27:34Z</time>
      </trkpt>
      <trkpt lat="45.52229" lon="6.06007">
        <ele>980.143398457</ele>
        <time>2015-12-08T08:27:39Z</time>
      </trkpt>
      <trkpt lat="45.52223" lon="6.06011">
        <ele>982.159052984</ele>
        <time>2015-12-08T08:27:50Z</time>
      </trkpt>
      <trkpt lat="45.52218" lon="6.06009">
        <ele>982.159052984</ele>
        <time>2015-12-08T08:27:55Z</time>
      </trkpt>
      <trkpt lat="45.52214" lon="6.06008">
        <ele>984.332968586</ele>
        <time>2015-12-08T08:28:06Z</time>
      </trkpt>
      <trkpt lat="45.52213" lon="6.06007">
        <ele>984.332968586</ele>
        <time>2015-12-08T08:28:10Z</time>
      </trkpt>
      <trkpt lat="45.52211" lon="6.06008">
        <ele>984.332968586</ele>
        <time>2015-12-08T08:28:21Z</time>
      </trkpt>
      <trkpt lat="45.52206" lon="6.06011">
        <ele>984.332968586</ele>
        <time>2015-12-08T08:28:24Z</time>
      </trkpt>
      <trkpt lat="45.52201" lon="6.06011">
        <ele>986.503759888</ele>
        <time>2015-12-08T08:28:30Z</time>
      </trkpt>
      <trkpt lat="45.52197" lon="6.0601">
        <ele>986.503759888</ele>
        <time>2015-12-08T08:28:40Z</time>
      </trkpt>
      <trkpt lat="45.52191" lon="6.0601">
        <ele>988.523595878</ele>
        <time>2015-12-08T08:28:45Z</time>
      </trkpt>
      <trkpt lat="45.5218" lon="6.06007">
        <ele>990.845848074</ele>
        <time>2015-12-08T08:28:55Z</time>
      </trkpt>
      <trkpt lat="45.52177" lon="6.06005">
        <ele>990.845848074</ele>
        <time>2015-12-08T08:29:00Z</time>
      </trkpt>
      <trkpt lat="45.52168" lon="6.06002">
        <ele>994.032259274</ele>
        <time>2015-12-08T08:29:10Z</time>
      </trkpt>
      <trkpt lat="45.52158" lon="6.05995">
        <ele>996.98500061</ele>
        <time>2015-12-08T08:29:15Z</time>
      </trkpt>
      <trkpt lat="45.52147" lon="6.05976">
        <ele>999.720158971</ele>
        <time>2015-12-08T08:29:26Z</time>
      </trkpt>
      <trkpt lat="45.52145" lon="6.05973">
        <ele>999.720158971</ele>
        <time>2015-12-08T08:29:30Z</time>
      </trkpt>
      <trkpt lat="45.52138" lon="6.05969">
        <ele>1002.252986268</ele>
        <time>2015-12-08T08:29:42Z</time>
      </trkpt>
      <trkpt lat="45.52137" lon="6.0597">
        <ele>1002.252986268</ele>
        <time>2015-12-08T08:29:45Z</time>
      </trkpt>
      <trkpt lat="45.52136" lon="6.0597">
        <ele>1002.252986268</ele>
        <time>2015-12-08T08:29:51Z</time>
      </trkpt>
      <trkpt lat="45.52132" lon="6.05966">
        <ele>1002.252986268</ele>
        <time>2015-12-08T08:30:00Z</time>
      </trkpt>
      <trkpt lat="45.52131" lon="6.05963">
        <ele>1002.252986268</ele>
        <time>2015-12-08T08:30:05Z</time>
      </trkpt>
      <trkpt lat="45.52125" lon="6.05954">
        <ele>1004.452281829</ele>
        <time>2015-12-08T08:30:15Z</time>
      </trkpt>
      <trkpt lat="45.52121" lon="6.05925">
        <ele>1007.652329079</ele>
        <time>2015-12-08T08:30:31Z</time>
      </trkpt>
      <trkpt lat="45.52117" lon="6.05919">
        <ele>1007.652329079</ele>
        <time>2015-12-08T08:30:35Z</time>
      </trkpt>
      <trkpt lat="45.52112" lon="6.05913">
        <ele>1011.772091403</ele>
        <time>2015-12-08T08:30:45Z</time>
      </trkpt>
      <trkpt lat="45.52102" lon="6.05926">
        <ele>1015.864786819</ele>
        <time>2015-12-08T08:31:00Z</time>
      </trkpt>
      <trkpt lat="45.521" lon="6.05928">
        <ele>1015.864786819</ele>
        <time>2015-12-08T08:31:06Z</time>
      </trkpt>
      <trkpt lat="45.52095" lon="6.05936">
        <ele>1019.92714921</ele>
        <time>2015-12-08T08:31:15Z</time>
      </trkpt>
      <trkpt lat="45.52091" lon="6.05937">
        <ele>1019.92714921</ele>
        <time>2015-12-08T08:31:20Z</time>
      </trkpt>
      <trkpt lat="45.52091" lon="6.05934">
        <ele>1019.92714921</ele>
        <time>2015-12-08T08:31:29Z</time>
      </trkpt>
      <trkpt lat="45.52091" lon="6.05934">
        <ele>1019.92714921</ele>
        <time>2015-12-08T08:31:34Z</time>
      </trkpt>
      <trkpt lat="45.52091" lon="6.05934">
        <ele>1019.92714921</ele>
        <time>2015-12-08T08:31:40Z</time>
      </trkpt>
      <trkpt lat="45.52089" lon="6.05928">
        <ele>1023.666751988</ele>
        <time>2015-12-08T08:31:45Z</time>
      </trkpt>
      <trkpt lat="45.52086" lon="6.05923">
        <ele>1023.666751988</ele>
        <time>2015-12-08T08:31:55Z</time>
      </trkpt>
      <trkpt lat="45.52086" lon="6.05924">
        <ele>1023.666751988</ele>
        <time>2015-12-08T08:31:59Z</time>
      </trkpt>
      <trkpt lat="45.52085" lon="6.05923">
        <ele>1023.666751988</ele>
        <time>2015-12-08T08:32:04Z</time>
      </trkpt>
      <trkpt lat="45.52084" lon="6.05923">
        <ele>1023.666751988</ele>
        <time>2015-12-08T08:32:09Z</time>
      </trkpt>
      <trkpt lat="45.52084" lon="6.05922">
        <ele>1023.666751988</ele>
        <time>2015-12-08T08:32:14Z</time>
      </trkpt>
      <trkpt lat="45.52083" lon="6.05923">
        <ele>1023.666751988</ele>
        <time>2015-12-08T08:32:19Z</time>
      </trkpt>
      <trkpt lat="45.52082" lon="6.05922">
        <ele>1027.971374935</ele>
        <time>2015-12-08T08:32:24Z</time>
      </trkpt>
      <trkpt lat="45.52083" lon="6.05916">
        <ele>1027.971374935</ele>
        <time>2015-12-08T08:32:29Z</time>
      </trkpt>
      <trkpt lat="45.52078" lon="6.05907">
        <ele>1031.202766225</ele>
        <time>2015-12-08T08:32:41Z</time>
      </trkpt>
      <trkpt lat="45.52075" lon="6.05905">
        <ele>1031.202766225</ele>
        <time>2015-12-08T08:32:45Z</time>
      </trkpt>
      <trkpt lat="45.52068" lon="6.05896">
        <ele>1034.160807975</ele>
        <time>2015-12-08T08:32:55Z</time>
      </trkpt>
      <trkpt lat="45.52066" lon="6.05894">
        <ele>1034.160807975</ele>
        <time>2015-12-08T08:33:00Z</time>
      </trkpt>
      <trkpt lat="45.5206" lon="6.05892">
        <ele>1034.160807975</ele>
        <time>2015-12-08T08:33:10Z</time>
      </trkpt>
      <trkpt lat="45.52058" lon="6.0589">
        <ele>1037.441121661</ele>
        <time>2015-12-08T08:33:15Z</time>
      </trkpt>
      <trkpt lat="45.5205" lon="6.05882">
        <ele>1040.872264128</ele>
        <time>2015-12-08T08:33:30Z</time>
      </trkpt>
      <trkpt lat="45.52046" lon="6.05878">
        <ele>1040.872264128</ele>
        <time>2015-12-08T08:33:35Z</time>
      </trkpt>
      <trkpt lat="45.5204" lon="6.0587">
        <ele>1044.006843518</ele>
        <time>2015-12-08T08:33:46Z</time>
      </trkpt>
      <trkpt lat="45.52038" lon="6.05868">
        <ele>1044.006843518</ele>
        <time>2015-12-08T08:33:50Z</time>
      </trkpt>
      <trkpt lat="45.52031" lon="6.0586">
        <ele>1046.864349054</ele>
        <time>2015-12-08T08:34:00Z</time>
      </trkpt>
      <trkpt lat="45.52028" lon="6.05857">
        <ele>1046.864349054</ele>
        <time>2015-12-08T08:34:05Z</time>
      </trkpt>
      <trkpt lat="45.52023" lon="6.0585">
        <ele>1049.896211724</ele>
        <time>2015-12-08T08:34:15Z</time>
      </trkpt>
      <trkpt lat="45.52021" lon="6.05847">
        <ele>1049.896211724</ele>
        <time>2015-12-08T08:34:20Z</time>
      </trkpt>
      <trkpt lat="45.52014" lon="6.05834">
        <ele>1052.799116442</ele>
        <time>2015-12-08T08:34:36Z</time>
      </trkpt>
      <trkpt lat="45.52013" lon="6.05831">
        <ele>1052.799116442</ele>
        <time>2015-12-08T08:34:40Z</time>
      </trkpt>
      <trkpt lat="45.52007" lon="6.05821">
        <ele>1055.436775106</ele>
        <time>2015-12-08T08:34:51Z</time>
      </trkpt>
      <trkpt lat="45.52005" lon="6.05817">
        <ele>1055.436775106</ele>
        <time>2015-12-08T08:34:55Z</time>
      </trkpt>
      <trkpt lat="45.52003" lon="6.05813">
        <ele>1055.436775106</ele>
        <time>2015-12-08T08:35:05Z</time>
      </trkpt>
      <trkpt lat="45.52" lon="6.05816">
        <ele>1057.683743858</ele>
        <time>2015-12-08T08:35:10Z</time>
      </trkpt>
      <trkpt lat="45.51993" lon="6.05814">
        <ele>1057.683743858</ele>
        <time>2015-12-08T08:35:21Z</time>
      </trkpt>
      <trkpt lat="45.51991" lon="6.05815">
        <ele>1060.578365024</ele>
        <time>2015-12-08T08:35:24Z</time>
      </trkpt>
      <trkpt lat="45.51984" lon="6.05811">
        <ele>1060.578365024</ele>
        <time>2015-12-08T08:35:36Z</time>
      </trkpt>
      <trkpt lat="45.5198" lon="6.0581">
        <ele>1062.9182934</ele>
        <time>2015-12-08T08:35:39Z</time>
      </trkpt>
      <trkpt lat="45.51975" lon="6.05811">
        <ele>1062.9182934</ele>
        <time>2015-12-08T08:35:44Z</time>
      </trkpt>
      <trkpt lat="45.51972" lon="6.05812">
        <ele>1062.9182934</ele>
        <time>2015-12-08T08:35:50Z</time>
      </trkpt>
      <trkpt lat="45.51966" lon="6.05796">
        <ele>1064.744556582</ele>
        <time>2015-12-08T08:36:00Z</time>
      </trkpt>
      <trkpt lat="45.51962" lon="6.05792">
        <ele>1064.744556582</ele>
        <time>2015-12-08T08:36:05Z</time>
      </trkpt>
      <trkpt lat="45.51954" lon="6.05776">
        <ele>1066.529252552</ele>
        <time>2015-12-08T08:36:20Z</time>
      </trkpt>
      <trkpt lat="45.51953" lon="6.05768">
        <ele>1066.529252552</ele>
        <time>2015-12-08T08:36:25Z</time>
      </trkpt>
      <trkpt lat="45.5195" lon="6.05752">
        <ele>1066.402804649</ele>
        <time>2015-12-08T08:36:35Z</time>
      </trkpt>
      <trkpt lat="45.51948" lon="6.05748">
        <ele>1066.402804649</ele>
        <time>2015-12-08T08:36:40Z</time>
      </trkpt>
      <trkpt lat="45.51941" lon="6.05732">
        <ele>1065.954969193</ele>
        <time>2015-12-08T08:36:50Z</time>
      </trkpt>
      <trkpt lat="45.51938" lon="6.05724">
        <ele>1065.954969193</ele>
        <time>2015-12-08T08:36:55Z</time>
      </trkpt>
      <trkpt lat="45.51933" lon="6.05709">
        <ele>1064.929267499</ele>
        <time>2015-12-08T08:37:05Z</time>
      </trkpt>
      <trkpt lat="45.51933" lon="6.05704">
        <ele>1064.929267499</ele>
        <time>2015-12-08T08:37:10Z</time>
      </trkpt>
      <trkpt lat="45.51924" lon="6.05687">
        <ele>1063.666572958</ele>
        <time>2015-12-08T08:37:20Z</time>
      </trkpt>
      <trkpt lat="45.51921" lon="6.05678">
        <ele>1063.666572958</ele>
        <time>2015-12-08T08:37:25Z</time>
      </trkpt>
      <trkpt lat="45.51918" lon="6.05665">
        <ele>1062.771869093</ele>
        <time>2015-12-08T08:37:35Z</time>
      </trkpt>
      <trkpt lat="45.51919" lon="6.05659">
        <ele>1062.771869093</ele>
        <time>2015-12-08T08:37:40Z</time>
      </trkpt>
      <trkpt lat="45.51917" lon="6.05653">
        <ele>1062.771869093</ele>
        <time>2015-12-08T08:37:50Z</time>
      </trkpt>
      <trkpt lat="45.51916" lon="6.05652">
        <ele>1062.94888455</ele>
        <time>2015-12-08T08:37:55Z</time>
      </trkpt>
      <trkpt lat="45.51916" lon="6.05652">
        <ele>1062.94888455</ele>
        <time>2015-12-08T08:38:05Z</time>
      </trkpt>
      <trkpt lat="45.51918" lon="6.05643">
        <ele>1062.94888455</ele>
        <time>2015-12-08T08:38:10Z</time>
      </trkpt>
      <trkpt lat="45.51916" lon="6.05626">
        <ele>1063.83687083</ele>
        <time>2015-12-08T08:38:25Z</time>
      </trkpt>
      <trkpt lat="45.51905" lon="6.0562">
        <ele>1065.099442988</ele>
        <time>2015-12-08T08:38:40Z</time>
      </trkpt>
      <trkpt lat="45.51903" lon="6.05614">
        <ele>1065.099442988</ele>
        <time>2015-12-08T08:38:45Z</time>
      </trkpt>
      <trkpt lat="45.51899" lon="6.05603">
        <ele>1065.846777846</ele>
        <time>2015-12-08T08:38:55Z</time>
      </trkpt>
      <trkpt lat="45.519" lon="6.05593">
        <ele>1065.846777846</ele>
        <time>2015-12-08T08:39:00Z</time>
      </trkpt>
      <trkpt lat="45.51896" lon="6.05587">
        <ele>1066.842489738</ele>
        <time>2015-12-08T08:39:10Z</time>
      </trkpt>
      <trkpt lat="45.51894" lon="6.05584">
        <ele>1066.842489738</ele>
        <time>2015-12-08T08:39:15Z</time>
      </trkpt>
      <trkpt lat="45.51888" lon="6.05573">
        <ele>1068.216255385</ele>
        <time>2015-12-08T08:39:26Z</time>
      </trkpt>
      <trkpt lat="45.51887" lon="6.05573">
        <ele>1068.216255385</ele>
        <time>2015-12-08T08:39:29Z</time>
      </trkpt>
      <trkpt lat="45.51886" lon="6.05573">
        <ele>1068.216255385</ele>
        <time>2015-12-08T08:39:35Z</time>
      </trkpt>
      <trkpt lat="45.51885" lon="6.05572">
        <ele>1068.216255385</ele>
        <time>2015-12-08T08:39:39Z</time>
      </trkpt>
      <trkpt lat="45.51885" lon="6.05572">
        <ele>1068.216255385</ele>
        <time>2015-12-08T08:39:44Z</time>
      </trkpt>
      <trkpt lat="45.51885" lon="6.05572">
        <ele>1068.216255385</ele>
        <time>2015-12-08T08:39:50Z</time>
      </trkpt>
      <trkpt lat="45.51888" lon="6.0557">
        <ele>1068.216255385</ele>
        <time>2015-12-08T08:40:05Z</time>
      </trkpt>
      <trkpt lat="45.51888" lon="6.0557">
        <ele>1068.216255385</ele>
        <time>2015-12-08T08:40:09Z</time>
      </trkpt>
      <trkpt lat="45.51889" lon="6.05568">
        <ele>1068.216255385</ele>
        <time>2015-12-08T08:40:20Z</time>
      </trkpt>
      <trkpt lat="45.51889" lon="6.05568">
        <ele>1068.216255385</ele>
        <time>2015-12-08T08:40:24Z</time>
      </trkpt>
      <trkpt lat="45.51889" lon="6.05569">
        <ele>1068.216255385</ele>
        <time>2015-12-08T08:40:35Z</time>
      </trkpt>
      <trkpt lat="45.51889" lon="6.05569">
        <ele>1068.216255385</ele>
        <time>2015-12-08T08:40:39Z</time>
      </trkpt>
      <trkpt lat="45.51889" lon="6.05568">
        <ele>1069.942783629</ele>
        <time>2015-12-08T08:40:44Z</time>
      </trkpt>
      <trkpt lat="45.51887" lon="6.05567">
        <ele>1069.942783629</ele>
        <time>2015-12-08T08:40:54Z</time>
      </trkpt>
      <trkpt lat="45.51887" lon="6.05566">
        <ele>1069.942783629</ele>
        <time>2015-12-08T08:40:59Z</time>
      </trkpt>
      <trkpt lat="45.51887" lon="6.05566">
        <ele>1069.942783629</ele>
        <time>2015-12-08T08:41:10Z</time>
      </trkpt>
      <trkpt lat="45.51887" lon="6.05566">
        <ele>1069.942783629</ele>
        <time>2015-12-08T08:41:15Z</time>
      </trkpt>
      <trkpt lat="45.51887" lon="6.05566">
        <ele>1069.942783629</ele>
        <time>2015-12-08T08:41:24Z</time>
      </trkpt>
      <trkpt lat="45.51887" lon="6.05566">
        <ele>1069.942783629</ele>
        <time>2015-12-08T08:41:29Z</time>
      </trkpt>
      <trkpt lat="45.51887" lon="6.05566">
        <ele>1069.942783629</ele>
        <time>2015-12-08T08:41:39Z</time>
      </trkpt>
      <trkpt lat="45.51887" lon="6.05566">
        <ele>1069.942783629</ele>
        <time>2015-12-08T08:41:44Z</time>
      </trkpt>
      <trkpt lat="45.51887" lon="6.05566">
        <ele>1069.942783629</ele>
        <time>2015-12-08T08:41:54Z</time>
      </trkpt>
      <trkpt lat="45.51887" lon="6.05566">
        <ele>1069.942783629</ele>
        <time>2015-12-08T08:41:59Z</time>
      </trkpt>
      <trkpt lat="45.51887" lon="6.05566">
        <ele>1069.942783629</ele>
        <time>2015-12-08T08:42:09Z</time>
      </trkpt>
      <trkpt lat="45.51887" lon="6.05566">
        <ele>1069.942783629</ele>
        <time>2015-12-08T08:42:15Z</time>
      </trkpt>
      <trkpt lat="45.51887" lon="6.05566">
        <ele>1069.942783629</ele>
        <time>2015-12-08T08:42:24Z</time>
      </trkpt>
      <trkpt lat="45.51887" lon="6.05566">
        <ele>1069.942783629</ele>
        <time>2015-12-08T08:42:29Z</time>
      </trkpt>
      <trkpt lat="45.51887" lon="6.05566">
        <ele>1069.942783629</ele>
        <time>2015-12-08T08:42:39Z</time>
      </trkpt>
      <trkpt lat="45.51886" lon="6.05561">
        <ele>1069.942783629</ele>
        <time>2015-12-08T08:42:44Z</time>
      </trkpt>
      <trkpt lat="45.51883" lon="6.05557">
        <ele>1071.997530456</ele>
        <time>2015-12-08T08:42:56Z</time>
      </trkpt>
      <trkpt lat="45.51882" lon="6.05557">
        <ele>1071.997530456</ele>
        <time>2015-12-08T08:43:00Z</time>
      </trkpt>
      <trkpt lat="45.5189" lon="6.05546">
        <ele>1073.924032848</ele>
        <time>2015-12-08T08:43:10Z</time>
      </trkpt>
      <trkpt lat="45.51891" lon="6.05543">
        <ele>1073.924032848</ele>
        <time>2015-12-08T08:43:15Z</time>
      </trkpt>
      <trkpt lat="45.51899" lon="6.0553">
        <ele>1075.732371669</ele>
        <time>2015-12-08T08:43:29Z</time>
      </trkpt>
      <trkpt lat="45.519" lon="6.05529">
        <ele>1075.732371669</ele>
        <time>2015-12-08T08:43:35Z</time>
      </trkpt>
      <trkpt lat="45.51907" lon="6.05519">
        <ele>1077.864775434</ele>
        <time>2015-12-08T08:43:45Z</time>
      </trkpt>
      <trkpt lat="45.51909" lon="6.05503">
        <ele>1080.297263761</ele>
        <time>2015-12-08T08:43:59Z</time>
      </trkpt>
      <trkpt lat="45.51911" lon="6.05498">
        <ele>1080.297263761</ele>
        <time>2015-12-08T08:44:04Z</time>
      </trkpt>
      <trkpt lat="45.51907" lon="6.05501">
        <ele>1080.297263761</ele>
        <time>2015-12-08T08:44:09Z</time>
      </trkpt>
      <trkpt lat="45.51908" lon="6.05499">
        <ele>1080.297263761</ele>
        <time>2015-12-08T08:44:14Z</time>
      </trkpt>
      <trkpt lat="45.51905" lon="6.05501">
        <ele>1083.295104056</ele>
        <time>2015-12-08T08:44:20Z</time>
      </trkpt>
      <trkpt lat="45.51904" lon="6.05501">
        <ele>1083.295104056</ele>
        <time>2015-12-08T08:44:25Z</time>
      </trkpt>
      <trkpt lat="45.51903" lon="6.055">
        <ele>1083.295104056</ele>
        <time>2015-12-08T08:44:31Z</time>
      </trkpt>
      <trkpt lat="45.51903" lon="6.055">
        <ele>1083.295104056</ele>
        <time>2015-12-08T08:44:34Z</time>
      </trkpt>
      <trkpt lat="45.51903" lon="6.055">
        <ele>1083.295104056</ele>
        <time>2015-12-08T08:44:40Z</time>
      </trkpt>
      <trkpt lat="45.51901" lon="6.05499">
        <ele>1083.295104056</ele>
        <time>2015-12-08T08:44:45Z</time>
      </trkpt>
      <trkpt lat="45.51897" lon="6.05498">
        <ele>1083.295104056</ele>
        <time>2015-12-08T08:44:50Z</time>
      </trkpt>
      <trkpt lat="45.51896" lon="6.05497">
        <ele>1086.237187689</ele>
        <time>2015-12-08T08:44:55Z</time>
      </trkpt>
      <trkpt lat="45.51891" lon="6.05491">
        <ele>1086.237187689</ele>
        <time>2015-12-08T08:45:00Z</time>
      </trkpt>
      <trkpt lat="45.51885" lon="6.05487">
        <ele>1088.5482655</ele>
        <time>2015-12-08T08:45:05Z</time>
      </trkpt>
      <trkpt lat="45.51882" lon="6.05485">
        <ele>1088.5482655</ele>
        <time>2015-12-08T08:45:10Z</time>
      </trkpt>
      <trkpt lat="45.51878" lon="6.05482">
        <ele>1088.5482655</ele>
        <time>2015-12-08T08:45:15Z</time>
      </trkpt>
      <trkpt lat="45.51877" lon="6.05481">
        <ele>1091.138997306</ele>
        <time>2015-12-08T08:45:20Z</time>
      </trkpt>
      <trkpt lat="45.5187" lon="6.05476">
        <ele>1091.138997306</ele>
        <time>2015-12-08T08:45:25Z</time>
      </trkpt>
      <trkpt lat="45.51865" lon="6.05466">
        <ele>1093.698742223</ele>
        <time>2015-12-08T08:45:30Z</time>
      </trkpt>
      <trkpt lat="45.51862" lon="6.05461">
        <ele>1093.698742223</ele>
        <time>2015-12-08T08:45:35Z</time>
      </trkpt>
      <trkpt lat="45.5186" lon="6.05455">
        <ele>1093.698742223</ele>
        <time>2015-12-08T08:45:40Z</time>
      </trkpt>
      <trkpt lat="45.51859" lon="6.05449">
        <ele>1096.372296372</ele>
        <time>2015-12-08T08:45:45Z</time>
      </trkpt>
      <trkpt lat="45.51859" lon="6.05446">
        <ele>1096.372296372</ele>
        <time>2015-12-08T08:45:50Z</time>
      </trkpt>
      <trkpt lat="45.51858" lon="6.05438">
        <ele>1096.372296372</ele>
        <time>2015-12-08T08:45:55Z</time>
      </trkpt>
      <trkpt lat="45.51857" lon="6.05433">
        <ele>1098.284327378</ele>
        <time>2015-12-08T08:45:59Z</time>
      </trkpt>
      <trkpt lat="45.51859" lon="6.0543">
        <ele>1098.284327378</ele>
        <time>2015-12-08T08:46:05Z</time>
      </trkpt>
      <trkpt lat="45.51857" lon="6.05419">
        <ele>1100.500069597</ele>
        <time>2015-12-08T08:46:10Z</time>
      </trkpt>
      <trkpt lat="45.51855" lon="6.05412">
        <ele>1100.500069597</ele>
        <time>2015-12-08T08:46:14Z</time>
      </trkpt>
      <trkpt lat="45.51854" lon="6.05408">
        <ele>1100.500069597</ele>
        <time>2015-12-08T08:46:20Z</time>
      </trkpt>
      <trkpt lat="45.51854" lon="6.054">
        <ele>1101.699090609</ele>
        <time>2015-12-08T08:46:25Z</time>
      </trkpt>
      <trkpt lat="45.51853" lon="6.05389">
        <ele>1101.699090609</ele>
        <time>2015-12-08T08:46:30Z</time>
      </trkpt>
      <trkpt lat="45.51851" lon="6.05385">
        <ele>1103.255551902</ele>
        <time>2015-12-08T08:46:35Z</time>
      </trkpt>
      <trkpt lat="45.5185" lon="6.05378">
        <ele>1103.255551902</ele>
        <time>2015-12-08T08:46:40Z</time>
      </trkpt>
      <trkpt lat="45.5185" lon="6.05372">
        <ele>1103.255551902</ele>
        <time>2015-12-08T08:46:45Z</time>
      </trkpt>
      <trkpt lat="45.51851" lon="6.05365">
        <ele>1104.711802221</ele>
        <time>2015-12-08T08:46:49Z</time>
      </trkpt>
      <trkpt lat="45.51851" lon="6.05357">
        <ele>1104.711802221</ele>
        <time>2015-12-08T08:46:55Z</time>
      </trkpt>
      <trkpt lat="45.51853" lon="6.05351">
        <ele>1106.220662405</ele>
        <time>2015-12-08T08:47:00Z</time>
      </trkpt>
      <trkpt lat="45.51852" lon="6.05344">
        <ele>1106.220662405</ele>
        <time>2015-12-08T08:47:05Z</time>
      </trkpt>
      <trkpt lat="45.51852" lon="6.05337">
        <ele>1108.211799623</ele>
        <time>2015-12-08T08:47:10Z</time>
      </trkpt>
      <trkpt lat="45.51851" lon="6.0533">
        <ele>1108.211799623</ele>
        <time>2015-12-08T08:47:15Z</time>
      </trkpt>
      <trkpt lat="45.5185" lon="6.05332">
        <ele>1108.211799623</ele>
        <time>2015-12-08T08:47:20Z</time>
      </trkpt>
      <trkpt lat="45.51851" lon="6.0533">
        <ele>1108.211799623</ele>
        <time>2015-12-08T08:47:25Z</time>
      </trkpt>
      <trkpt lat="45.51852" lon="6.05325">
        <ele>1111.081907103</ele>
        <time>2015-12-08T08:47:30Z</time>
      </trkpt>
      <trkpt lat="45.51853" lon="6.05318">
        <ele>1111.081907103</ele>
        <time>2015-12-08T08:47:35Z</time>
      </trkpt>
      <trkpt lat="45.51853" lon="6.05315">
        <ele>1111.081907103</ele>
        <time>2015-12-08T08:47:40Z</time>
      </trkpt>
      <trkpt lat="45.51853" lon="6.05315">
        <ele>1111.081907103</ele>
        <time>2015-12-08T08:47:45Z</time>
      </trkpt>
      <trkpt lat="45.51853" lon="6.05315">
        <ele>1111.081907103</ele>
        <time>2015-12-08T08:47:50Z</time>
      </trkpt>
      <trkpt lat="45.51852" lon="6.05312">
        <ele>1114.331293214</ele>
        <time>2015-12-08T08:47:55Z</time>
      </trkpt>
      <trkpt lat="45.51849" lon="6.05304">
        <ele>1114.331293214</ele>
        <time>2015-12-08T08:48:00Z</time>
      </trkpt>
      <trkpt lat="45.51851" lon="6.05296">
        <ele>1117.495943723</ele>
        <time>2015-12-08T08:48:05Z</time>
      </trkpt>
      <trkpt lat="45.51852" lon="6.05296">
        <ele>1117.495943723</ele>
        <time>2015-12-08T08:48:12Z</time>
      </trkpt>
      <trkpt lat="45.51853" lon="6.05291">
        <ele>1117.495943723</ele>
        <time>2015-12-08T08:48:14Z</time>
      </trkpt>
      <trkpt lat="45.51854" lon="6.05291">
        <ele>1117.495943723</ele>
        <time>2015-12-08T08:48:20Z</time>
      </trkpt>
      <trkpt lat="45.51854" lon="6.05291">
        <ele>1117.495943723</ele>
        <time>2015-12-08T08:48:25Z</time>
      </trkpt>
      <trkpt lat="45.51856" lon="6.05285">
        <ele>1120.722670913</ele>
        <time>2015-12-08T08:48:30Z</time>
      </trkpt>
      <trkpt lat="45.51856" lon="6.05283">
        <ele>1120.722670913</ele>
        <time>2015-12-08T08:48:35Z</time>
      </trkpt>
      <trkpt lat="45.51856" lon="6.05282">
        <ele>1120.722670913</ele>
        <time>2015-12-08T08:48:39Z</time>
      </trkpt>
      <trkpt lat="45.51857" lon="6.05276">
        <ele>1120.722670913</ele>
        <time>2015-12-08T08:48:45Z</time>
      </trkpt>
      <trkpt lat="45.51857" lon="6.05268">
        <ele>1123.714979447</ele>
        <time>2015-12-08T08:48:51Z</time>
      </trkpt>
      <trkpt lat="45.51857" lon="6.05266">
        <ele>1123.714979447</ele>
        <time>2015-12-08T08:48:54Z</time>
      </trkpt>
      <trkpt lat="45.51858" lon="6.05262">
        <ele>1123.714979447</ele>
        <time>2015-12-08T08:49:00Z</time>
      </trkpt>
      <trkpt lat="45.51858" lon="6.0526">
        <ele>1123.714979447</ele>
        <time>2015-12-08T08:49:05Z</time>
      </trkpt>
      <trkpt lat="45.51858" lon="6.05259">
        <ele>1123.714979447</ele>
        <time>2015-12-08T08:49:11Z</time>
      </trkpt>
      <trkpt lat="45.51862" lon="6.05247">
        <ele>1127.351766081</ele>
        <time>2015-12-08T08:49:15Z</time>
      </trkpt>
      <trkpt lat="45.5186" lon="6.05241">
        <ele>1127.351766081</ele>
        <time>2015-12-08T08:49:20Z</time>
      </trkpt>
      <trkpt lat="45.51859" lon="6.05237">
        <ele>1127.351766081</ele>
        <time>2015-12-08T08:49:25Z</time>
      </trkpt>
      <trkpt lat="45.51858" lon="6.05234">
        <ele>1131.148531648</ele>
        <time>2015-12-08T08:49:29Z</time>
      </trkpt>
      <trkpt lat="45.51858" lon="6.05233">
        <ele>1131.148531648</ele>
        <time>2015-12-08T08:49:35Z</time>
      </trkpt>
      <trkpt lat="45.51857" lon="6.05227">
        <ele>1131.148531648</ele>
        <time>2015-12-08T08:49:40Z</time>
      </trkpt>
      <trkpt lat="45.51856" lon="6.05219">
        <ele>1134.655975002</ele>
        <time>2015-12-08T08:49:45Z</time>
      </trkpt>
      <trkpt lat="45.51852" lon="6.05215">
        <ele>1134.655975002</ele>
        <time>2015-12-08T08:49:49Z</time>
      </trkpt>
      <trkpt lat="45.5185" lon="6.0521">
        <ele>1134.655975002</ele>
        <time>2015-12-08T08:49:55Z</time>
      </trkpt>
      <trkpt lat="45.51848" lon="6.05204">
        <ele>1138.179235611</ele>
        <time>2015-12-08T08:49:59Z</time>
      </trkpt>
      <trkpt lat="45.51848" lon="6.052">
        <ele>1138.179235611</ele>
        <time>2015-12-08T08:50:04Z</time>
      </trkpt>
      <trkpt lat="45.51847" lon="6.05196">
        <ele>1138.179235611</ele>
        <time>2015-12-08T08:50:09Z</time>
      </trkpt>
      <trkpt lat="45.51847" lon="6.05196">
        <ele>1138.179235611</ele>
        <time>2015-12-08T08:50:14Z</time>
      </trkpt>
      <trkpt lat="45.51846" lon="6.05194">
        <ele>1138.179235611</ele>
        <time>2015-12-08T08:50:21Z</time>
      </trkpt>
      <trkpt lat="45.51845" lon="6.05194">
        <ele>1138.179235611</ele>
        <time>2015-12-08T08:50:25Z</time>
      </trkpt>
      <trkpt lat="45.51843" lon="6.05193">
        <ele>1141.424598398</ele>
        <time>2015-12-08T08:50:30Z</time>
      </trkpt>
      <trkpt lat="45.51842" lon="6.0519">
        <ele>1141.424598398</ele>
        <time>2015-12-08T08:50:40Z</time>
      </trkpt>
      <trkpt lat="45.51841" lon="6.05189">
        <ele>1141.424598398</ele>
        <time>2015-12-08T08:50:45Z</time>
      </trkpt>
      <trkpt lat="45.51834" lon="6.05183">
        <ele>1144.697224463</ele>
        <time>2015-12-08T08:50:55Z</time>
      </trkpt>
      <trkpt lat="45.51829" lon="6.05181">
        <ele>1144.697224463</ele>
        <time>2015-12-08T08:51:00Z</time>
      </trkpt>
      <trkpt lat="45.51822" lon="6.05173">
        <ele>1148.135742789</ele>
        <time>2015-12-08T08:51:10Z</time>
      </trkpt>
      <trkpt lat="45.51821" lon="6.0517">
        <ele>1148.135742789</ele>
        <time>2015-12-08T08:51:15Z</time>
      </trkpt>
      <trkpt lat="45.51816" lon="6.0516">
        <ele>1151.724102405</ele>
        <time>2015-12-08T08:51:26Z</time>
      </trkpt>
      <trkpt lat="45.51815" lon="6.05153">
        <ele>1151.724102405</ele>
        <time>2015-12-08T08:51:30Z</time>
      </trkpt>
      <trkpt lat="45.51815" lon="6.05146">
        <ele>1154.870646466</ele>
        <time>2015-12-08T08:51:40Z</time>
      </trkpt>
      <trkpt lat="45.51813" lon="6.05143">
        <ele>1154.870646466</ele>
        <time>2015-12-08T08:51:45Z</time>
      </trkpt>
      <trkpt lat="45.51811" lon="6.05136">
        <ele>1154.870646466</ele>
        <time>2015-12-08T08:51:55Z</time>
      </trkpt>
      <trkpt lat="45.51809" lon="6.05133">
        <ele>1158.037299029</ele>
        <time>2015-12-08T08:52:00Z</time>
      </trkpt>
      <trkpt lat="45.51804" lon="6.0512">
        <ele>1161.075637201</ele>
        <time>2015-12-08T08:52:10Z</time>
      </trkpt>
      <trkpt lat="45.51799" lon="6.05116">
        <ele>1161.075637201</ele>
        <time>2015-12-08T08:52:15Z</time>
      </trkpt>
      <trkpt lat="45.51793" lon="6.05111">
        <ele>1163.848594787</ele>
        <time>2015-12-08T08:52:25Z</time>
      </trkpt>
      <trkpt lat="45.51788" lon="6.0511">
        <ele>1163.848594787</ele>
        <time>2015-12-08T08:52:30Z</time>
      </trkpt>
      <trkpt lat="45.51785" lon="6.05111">
        <ele>1163.848594787</ele>
        <time>2015-12-08T08:52:40Z</time>
      </trkpt>
      <trkpt lat="45.51781" lon="6.0511">
        <ele>1166.80646747</ele>
        <time>2015-12-08T08:52:45Z</time>
      </trkpt>
      <trkpt lat="45.51779" lon="6.05109">
        <ele>1166.80646747</ele>
        <time>2015-12-08T08:52:50Z</time>
      </trkpt>
      <trkpt lat="45.51776" lon="6.05108">
        <ele>1166.80646747</ele>
        <time>2015-12-08T08:53:00Z</time>
      </trkpt>
      <trkpt lat="45.51775" lon="6.05108">
        <ele>1166.80646747</ele>
        <time>2015-12-08T08:53:05Z</time>
      </trkpt>
      <trkpt lat="45.51772" lon="6.05104">
        <ele>1170.366050391</ele>
        <time>2015-12-08T08:53:14Z</time>
      </trkpt>
      <trkpt lat="45.51764" lon="6.05097">
        <ele>1173.903129974</ele>
        <time>2015-12-08T08:53:31Z</time>
      </trkpt>
      <trkpt lat="45.51758" lon="6.05096">
        <ele>1173.903129974</ele>
        <time>2015-12-08T08:53:35Z</time>
      </trkpt>
      <trkpt lat="45.51757" lon="6.05095">
        <ele>1173.903129974</ele>
        <time>2015-12-08T08:53:45Z</time>
      </trkpt>
      <trkpt lat="45.51757" lon="6.05095">
        <ele>1173.903129974</ele>
        <time>2015-12-08T08:53:50Z</time>
      </trkpt>
      <trkpt lat="45.51757" lon="6.05095">
        <ele>1173.903129974</ele>
        <time>2015-12-08T08:53:59Z</time>
      </trkpt>
      <trkpt lat="45.51757" lon="6.05095">
        <ele>1173.903129974</ele>
        <time>2015-12-08T08:54:04Z</time>
      </trkpt>
      <trkpt lat="45.51757" lon="6.05095">
        <ele>1173.903129974</ele>
        <time>2015-12-08T08:54:09Z</time>
      </trkpt>
      <trkpt lat="45.51757" lon="6.05095">
        <ele>1173.903129974</ele>
        <time>2015-12-08T08:54:19Z</time>
      </trkpt>
      <trkpt lat="45.51757" lon="6.05095">
        <ele>1173.903129974</ele>
        <time>2015-12-08T08:54:24Z</time>
      </trkpt>
      <trkpt lat="45.51757" lon="6.05095">
        <ele>1173.903129974</ele>
        <time>2015-12-08T08:54:34Z</time>
      </trkpt>
      <trkpt lat="45.51757" lon="6.05095">
        <ele>1173.903129974</ele>
        <time>2015-12-08T08:54:39Z</time>
      </trkpt>
      <trkpt lat="45.51757" lon="6.05094">
        <ele>1173.903129974</ele>
        <time>2015-12-08T08:54:49Z</time>
      </trkpt>
      <trkpt lat="45.51757" lon="6.05094">
        <ele>1173.903129974</ele>
        <time>2015-12-08T08:54:54Z</time>
      </trkpt>
      <trkpt lat="45.51756" lon="6.05087">
        <ele>1177.992419856</ele>
        <time>2015-12-08T08:55:05Z</time>
      </trkpt>
      <trkpt lat="45.51756" lon="6.05086">
        <ele>1177.992419856</ele>
        <time>2015-12-08T08:55:09Z</time>
      </trkpt>
      <trkpt lat="45.51753" lon="6.05083">
        <ele>1177.992419856</ele>
        <time>2015-12-08T08:55:20Z</time>
      </trkpt>
      <trkpt lat="45.51753" lon="6.05082">
        <ele>1177.992419856</ele>
        <time>2015-12-08T08:55:26Z</time>
      </trkpt>
      <trkpt lat="45.5175" lon="6.05076">
        <ele>1181.867936934</ele>
        <time>2015-12-08T08:55:36Z</time>
      </trkpt>
      <trkpt lat="45.51746" lon="6.0507">
        <ele>1181.867936934</ele>
        <time>2015-12-08T08:55:40Z</time>
      </trkpt>
      <trkpt lat="45.51743" lon="6.05061">
        <ele>1185.541243071</ele>
        <time>2015-12-08T08:55:50Z</time>
      </trkpt>
      <trkpt lat="45.51744" lon="6.05055">
        <ele>1185.541243071</ele>
        <time>2015-12-08T08:55:55Z</time>
      </trkpt>
      <trkpt lat="45.51742" lon="6.05052">
        <ele>1185.541243071</ele>
        <time>2015-12-08T08:56:06Z</time>
      </trkpt>
      <trkpt lat="45.51742" lon="6.0505">
        <ele>1185.541243071</ele>
        <time>2015-12-08T08:56:10Z</time>
      </trkpt>
      <trkpt lat="45.51742" lon="6.05044">
        <ele>1188.879611562</ele>
        <time>2015-12-08T08:56:21Z</time>
      </trkpt>
      <trkpt lat="45.51743" lon="6.05038">
        <ele>1188.879611562</ele>
        <time>2015-12-08T08:56:25Z</time>
      </trkpt>
      <trkpt lat="45.51742" lon="6.05023">
        <ele>1192.193460366</ele>
        <time>2015-12-08T08:56:40Z</time>
      </trkpt>
      <trkpt lat="45.51742" lon="6.05021">
        <ele>1192.193460366</ele>
        <time>2015-12-08T08:56:46Z</time>
      </trkpt>
      <trkpt lat="45.51742" lon="6.05019">
        <ele>1192.193460366</ele>
        <time>2015-12-08T08:56:54Z</time>
      </trkpt>
      <trkpt lat="45.51741" lon="6.0502">
        <ele>1192.193460366</ele>
        <time>2015-12-08T08:56:59Z</time>
      </trkpt>
      <trkpt lat="45.51741" lon="6.05019">
        <ele>1192.193460366</ele>
        <time>2015-12-08T08:57:14Z</time>
      </trkpt>
      <trkpt lat="45.5174" lon="6.0502">
        <ele>1192.193460366</ele>
        <time>2015-12-08T08:57:19Z</time>
      </trkpt>
      <trkpt lat="45.51738" lon="6.05016">
        <ele>1192.193460366</ele>
        <time>2015-12-08T08:57:24Z</time>
      </trkpt>
      <trkpt lat="45.51731" lon="6.05003">
        <ele>1196.202929048</ele>
        <time>2015-12-08T08:57:36Z</time>
      </trkpt>
      <trkpt lat="45.5173" lon="6.05">
        <ele>1196.202929048</ele>
        <time>2015-12-08T08:57:40Z</time>
      </trkpt>
      <trkpt lat="45.51728" lon="6.04987">
        <ele>1199.84403693</ele>
        <time>2015-12-08T08:57:51Z</time>
      </trkpt>
      <trkpt lat="45.51728" lon="6.04986">
        <ele>1199.84403693</ele>
        <time>2015-12-08T08:57:55Z</time>
      </trkpt>
      <trkpt lat="45.51727" lon="6.0498">
        <ele>1199.84403693</ele>
        <time>2015-12-08T08:58:05Z</time>
      </trkpt>
      <trkpt lat="45.51725" lon="6.04973">
        <ele>1202.708568937</ele>
        <time>2015-12-08T08:58:10Z</time>
      </trkpt>
      <trkpt lat="45.51722" lon="6.04965">
        <ele>1202.708568937</ele>
        <time>2015-12-08T08:58:20Z</time>
      </trkpt>
      <trkpt lat="45.51721" lon="6.04959">
        <ele>1205.573504228</ele>
        <time>2015-12-08T08:58:26Z</time>
      </trkpt>
      <trkpt lat="45.51718" lon="6.04953">
        <ele>1205.573504228</ele>
        <time>2015-12-08T08:58:35Z</time>
      </trkpt>
      <trkpt lat="45.51716" lon="6.04948">
        <ele>1208.29415986</ele>
        <time>2015-12-08T08:58:40Z</time>
      </trkpt>
      <trkpt lat="45.51712" lon="6.04935">
        <ele>1210.881100637</ele>
        <time>2015-12-08T08:58:50Z</time>
      </trkpt>
      <trkpt lat="45.51711" lon="6.04933">
        <ele>1210.881100637</ele>
        <time>2015-12-08T08:58:55Z</time>
      </trkpt>
      <trkpt lat="45.5171" lon="6.0493">
        <ele>1210.881100637</ele>
        <time>2015-12-08T08:59:06Z</time>
      </trkpt>
      <trkpt lat="45.5171" lon="6.0493">
        <ele>1210.881100637</ele>
        <time>2015-12-08T08:59:10Z</time>
      </trkpt>
      <trkpt lat="45.51712" lon="6.04929">
        <ele>1210.881100637</ele>
        <time>2015-12-08T08:59:15Z</time>
      </trkpt>
      <trkpt lat="45.51712" lon="6.04928">
        <ele>1210.881100637</ele>
        <time>2015-12-08T08:59:19Z</time>
      </trkpt>
      <trkpt lat="45.51711" lon="6.04928">
        <ele>1210.881100637</ele>
        <time>2015-12-08T08:59:24Z</time>
      </trkpt>
      <trkpt lat="45.51711" lon="6.04929">
        <ele>1210.881100637</ele>
        <time>2015-12-08T08:59:34Z</time>
      </trkpt>
      <trkpt lat="45.51711" lon="6.04929">
        <ele>1210.881100637</ele>
        <time>2015-12-08T08:59:39Z</time>
      </trkpt>
      <trkpt lat="45.51711" lon="6.04929">
        <ele>1210.881100637</ele>
        <time>2015-12-08T08:59:49Z</time>
      </trkpt>
      <trkpt lat="45.51711" lon="6.04929">
        <ele>1210.881100637</ele>
        <time>2015-12-08T08:59:54Z</time>
      </trkpt>
      <trkpt lat="45.5171" lon="6.04928">
        <ele>1210.881100637</ele>
        <time>2015-12-08T09:00:04Z</time>
      </trkpt>
      <trkpt lat="45.5171" lon="6.04928">
        <ele>1210.881100637</ele>
        <time>2015-12-08T09:00:09Z</time>
      </trkpt>
      <trkpt lat="45.5171" lon="6.04927">
        <ele>1213.056353423</ele>
        <time>2015-12-08T09:00:19Z</time>
      </trkpt>
      <trkpt lat="45.51711" lon="6.04927">
        <ele>1213.056353423</ele>
        <time>2015-12-08T09:00:24Z</time>
      </trkpt>
      <trkpt lat="45.51712" lon="6.04927">
        <ele>1213.056353423</ele>
        <time>2015-12-08T09:00:39Z</time>
      </trkpt>
      <trkpt lat="45.51712" lon="6.04927">
        <ele>1213.056353423</ele>
        <time>2015-12-08T09:00:46Z</time>
      </trkpt>
      <trkpt lat="45.51711" lon="6.04924">
        <ele>1213.056353423</ele>
        <time>2015-12-08T09:00:56Z</time>
      </trkpt>
      <trkpt lat="45.5171" lon="6.04919">
        <ele>1213.056353423</ele>
        <time>2015-12-08T09:01:00Z</time>
      </trkpt>
      <trkpt lat="45.5171" lon="6.04904">
        <ele>1215.860631137</ele>
        <time>2015-12-08T09:01:10Z</time>
      </trkpt>
      <trkpt lat="45.51711" lon="6.04897">
        <ele>1215.860631137</ele>
        <time>2015-12-08T09:01:16Z</time>
      </trkpt>
      <trkpt lat="45.5171" lon="6.04889">
        <ele>1218.383021234</ele>
        <time>2015-12-08T09:01:25Z</time>
      </trkpt>
      <trkpt lat="45.5171" lon="6.04889">
        <ele>1218.383021234</ele>
        <time>2015-12-08T09:01:30Z</time>
      </trkpt>
      <trkpt lat="45.5171" lon="6.04889">
        <ele>1218.383021234</ele>
        <time>2015-12-08T09:01:41Z</time>
      </trkpt>
      <trkpt lat="45.5171" lon="6.04889">
        <ele>1218.383021234</ele>
        <time>2015-12-08T09:01:44Z</time>
      </trkpt>
      <trkpt lat="45.5171" lon="6.04889">
        <ele>1218.383021234</ele>
        <time>2015-12-08T09:01:49Z</time>
      </trkpt>
      <trkpt lat="45.5171" lon="6.04889">
        <ele>1218.383021234</ele>
        <time>2015-12-08T09:01:59Z</time>
      </trkpt>
      <trkpt lat="45.5171" lon="6.04889">
        <ele>1218.383021234</ele>
        <time>2015-12-08T09:02:04Z</time>
      </trkpt>
      <trkpt lat="45.5171" lon="6.04889">
        <ele>1218.383021234</ele>
        <time>2015-12-08T09:02:20Z</time>
      </trkpt>
      <trkpt lat="45.5171" lon="6.04889">
        <ele>1218.383021234</ele>
        <time>2015-12-08T09:02:24Z</time>
      </trkpt>
      <trkpt lat="45.5171" lon="6.04889">
        <ele>1218.383021234</ele>
        <time>2015-12-08T09:02:30Z</time>
      </trkpt>
      <trkpt lat="45.5171" lon="6.04889">
        <ele>1218.383021234</ele>
        <time>2015-12-08T09:02:35Z</time>
      </trkpt>
      <trkpt lat="45.5171" lon="6.04889">
        <ele>1218.383021234</ele>
        <time>2015-12-08T09:02:50Z</time>
      </trkpt>
      <trkpt lat="45.5171" lon="6.04889">
        <ele>1218.383021234</ele>
        <time>2015-12-08T09:02:55Z</time>
      </trkpt>
      <trkpt lat="45.5171" lon="6.04889">
        <ele>1218.383021234</ele>
        <time>2015-12-08T09:03:06Z</time>
      </trkpt>
      <trkpt lat="45.5171" lon="6.04889">
        <ele>1218.383021234</ele>
        <time>2015-12-08T09:03:10Z</time>
      </trkpt>
      <trkpt lat="45.5171" lon="6.04889">
        <ele>1218.383021234</ele>
        <time>2015-12-08T09:03:20Z</time>
      </trkpt>
      <trkpt lat="45.5171" lon="6.04889">
        <ele>1218.383021234</ele>
        <time>2015-12-08T09:03:25Z</time>
      </trkpt>
      <trkpt lat="45.5171" lon="6.04889">
        <ele>1218.383021234</ele>
        <time>2015-12-08T09:03:35Z</time>
      </trkpt>
      <trkpt lat="45.51708" lon="6.04891">
        <ele>1218.383021234</ele>
        <time>2015-12-08T09:03:40Z</time>
      </trkpt>
      <trkpt lat="45.51708" lon="6.04889">
        <ele>1218.383021234</ele>
        <time>2015-12-08T09:03:50Z</time>
      </trkpt>
      <trkpt lat="45.51706" lon="6.04887">
        <ele>1218.383021234</ele>
        <time>2015-12-08T09:03:56Z</time>
      </trkpt>
      <trkpt lat="45.51705" lon="6.04882">
        <ele>1220.933298561</ele>
        <time>2015-12-08T09:04:05Z</time>
      </trkpt>
      <trkpt lat="45.51706" lon="6.04882">
        <ele>1220.933298561</ele>
        <time>2015-12-08T09:04:10Z</time>
      </trkpt>
      <trkpt lat="45.51706" lon="6.04882">
        <ele>1220.933298561</ele>
        <time>2015-12-08T09:04:24Z</time>
      </trkpt>
      <trkpt lat="45.51706" lon="6.04882">
        <ele>1220.933298561</ele>
        <time>2015-12-08T09:04:29Z</time>
      </trkpt>
      <trkpt lat="45.51706" lon="6.04882">
        <ele>1220.933298561</ele>
        <time>2015-12-08T09:04:39Z</time>
      </trkpt>
      <trkpt lat="45.51706" lon="6.04882">
        <ele>1220.933298561</ele>
        <time>2015-12-08T09:04:44Z</time>
      </trkpt>
      <trkpt lat="45.51706" lon="6.04882">
        <ele>1220.933298561</ele>
        <time>2015-12-08T09:04:49Z</time>
      </trkpt>
      <trkpt lat="45.51707" lon="6.04881">
        <ele>1220.933298561</ele>
        <time>2015-12-08T09:04:59Z</time>
      </trkpt>
      <trkpt lat="45.51706" lon="6.0488">
        <ele>1220.933298561</ele>
        <time>2015-12-08T09:05:04Z</time>
      </trkpt>
      <trkpt lat="45.51707" lon="6.0488">
        <ele>1220.933298561</ele>
        <time>2015-12-08T09:05:14Z</time>
      </trkpt>
      <trkpt lat="45.51707" lon="6.0488">
        <ele>1220.933298561</ele>
        <time>2015-12-08T09:05:19Z</time>
      </trkpt>
      <trkpt lat="45.51707" lon="6.0488">
        <ele>1220.933298561</ele>
        <time>2015-12-08T09:05:34Z</time>
      </trkpt>
      <trkpt lat="45.51706" lon="6.0488">
        <ele>1220.933298561</ele>
        <time>2015-12-08T09:05:49Z</time>
      </trkpt>
      <trkpt lat="45.51706" lon="6.0488">
        <ele>1220.933298561</ele>
        <time>2015-12-08T09:05:54Z</time>
      </trkpt>
      <trkpt lat="45.51706" lon="6.04879">
        <ele>1220.933298561</ele>
        <time>2015-12-08T09:06:04Z</time>
      </trkpt>
      <trkpt lat="45.51706" lon="6.04879">
        <ele>1220.933298561</ele>
        <time>2015-12-08T09:06:10Z</time>
      </trkpt>
      <trkpt lat="45.51706" lon="6.04879">
        <ele>1220.933298561</ele>
        <time>2015-12-08T09:06:19Z</time>
      </trkpt>
      <trkpt lat="45.51706" lon="6.04879">
        <ele>1220.933298561</ele>
        <time>2015-12-08T09:06:26Z</time>
      </trkpt>
      <trkpt lat="45.51706" lon="6.04879">
        <ele>1220.933298561</ele>
        <time>2015-12-08T09:06:36Z</time>
      </trkpt>
      <trkpt lat="45.51706" lon="6.04879">
        <ele>1220.933298561</ele>
        <time>2015-12-08T09:06:40Z</time>
      </trkpt>
      <trkpt lat="45.51706" lon="6.04879">
        <ele>1220.933298561</ele>
        <time>2015-12-08T09:06:55Z</time>
      </trkpt>
      <trkpt lat="45.51706" lon="6.04879">
        <ele>1220.933298561</ele>
        <time>2015-12-08T09:07:00Z</time>
      </trkpt>
      <trkpt lat="45.51706" lon="6.04879">
        <ele>1220.933298561</ele>
        <time>2015-12-08T09:07:05Z</time>
      </trkpt>
      <trkpt lat="45.51706" lon="6.04879">
        <ele>1220.933298561</ele>
        <time>2015-12-08T09:07:10Z</time>
      </trkpt>
      <trkpt lat="45.51706" lon="6.04881">
        <ele>1220.933298561</ele>
        <time>2015-12-08T09:07:25Z</time>
      </trkpt>
      <trkpt lat="45.51706" lon="6.04881">
        <ele>1220.933298561</ele>
        <time>2015-12-08T09:07:30Z</time>
      </trkpt>
      <trkpt lat="45.51707" lon="6.04886">
        <ele>1222.069098242</ele>
        <time>2015-12-08T09:07:41Z</time>
      </trkpt>
      <trkpt lat="45.51708" lon="6.04891">
        <ele>1222.069098242</ele>
        <time>2015-12-08T09:07:45Z</time>
      </trkpt>
      <trkpt lat="45.51709" lon="6.04885">
        <ele>1222.069098242</ele>
        <time>2015-12-08T09:07:56Z</time>
      </trkpt>
      <trkpt lat="45.5171" lon="6.04885">
        <ele>1222.069098242</ele>
        <time>2015-12-08T09:08:00Z</time>
      </trkpt>
      <trkpt lat="45.51712" lon="6.04882">
        <ele>1222.331503803</ele>
        <time>2015-12-08T09:08:10Z</time>
      </trkpt>
      <trkpt lat="45.51714" lon="6.04881">
        <ele>1222.331503803</ele>
        <time>2015-12-08T09:08:15Z</time>
      </trkpt>
      <trkpt lat="45.51717" lon="6.04885">
        <ele>1222.331503803</ele>
        <time>2015-12-08T09:08:25Z</time>
      </trkpt>
      <trkpt lat="45.51718" lon="6.04885">
        <ele>1222.331503803</ele>
        <time>2015-12-08T09:08:31Z</time>
      </trkpt>
      <trkpt lat="45.51721" lon="6.04887">
        <ele>1222.224325977</ele>
        <time>2015-12-08T09:08:40Z</time>
      </trkpt>
      <trkpt lat="45.51724" lon="6.04886">
        <ele>1222.224325977</ele>
        <time>2015-12-08T09:08:45Z</time>
      </trkpt>
      <trkpt lat="45.51728" lon="6.0489">
        <ele>1222.224325977</ele>
        <time>2015-12-08T09:08:56Z</time>
      </trkpt>
      <trkpt lat="45.51729" lon="6.04889">
        <ele>1222.224325977</ele>
        <time>2015-12-08T09:09:00Z</time>
      </trkpt>
      <trkpt lat="45.51732" lon="6.04899">
        <ele>1221.494842044</ele>
        <time>2015-12-08T09:09:15Z</time>
      </trkpt>
      <trkpt lat="45.51732" lon="6.04898">
        <ele>1221.494842044</ele>
        <time>2015-12-08T09:09:19Z</time>
      </trkpt>
      <trkpt lat="45.51734" lon="6.04902">
        <ele>1221.494842044</ele>
        <time>2015-12-08T09:09:31Z</time>
      </trkpt>
      <trkpt lat="45.51734" lon="6.04911">
        <ele>1220.342959428</ele>
        <time>2015-12-08T09:09:35Z</time>
      </trkpt>
      <trkpt lat="45.51741" lon="6.04919">
        <ele>1220.342959428</ele>
        <time>2015-12-08T09:09:45Z</time>
      </trkpt>
      <trkpt lat="45.5174" lon="6.04919">
        <ele>1220.342959428</ele>
        <time>2015-12-08T09:09:50Z</time>
      </trkpt>
      <trkpt lat="45.5174" lon="6.0492">
        <ele>1220.342959428</ele>
        <time>2015-12-08T09:10:00Z</time>
      </trkpt>
      <trkpt lat="45.5174" lon="6.0492">
        <ele>1218.810923858</ele>
        <time>2015-12-08T09:10:05Z</time>
      </trkpt>
      <trkpt lat="45.51742" lon="6.04892">
        <ele>1217.082978639</ele>
        <time>2015-12-08T09:10:15Z</time>
      </trkpt>
      <trkpt lat="45.51742" lon="6.04888">
        <ele>1217.082978639</ele>
        <time>2015-12-08T09:10:20Z</time>
      </trkpt>
      <trkpt lat="45.51741" lon="6.04885">
        <ele>1217.082978639</ele>
        <time>2015-12-08T09:10:30Z</time>
      </trkpt>
      <trkpt lat="45.51741" lon="6.04885">
        <ele>1217.082978639</ele>
        <time>2015-12-08T09:10:34Z</time>
      </trkpt>
      <trkpt lat="45.51739" lon="6.04879">
        <ele>1215.61849882</ele>
        <time>2015-12-08T09:10:45Z</time>
      </trkpt>
      <trkpt lat="45.51738" lon="6.04877">
        <ele>1215.61849882</ele>
        <time>2015-12-08T09:10:50Z</time>
      </trkpt>
      <trkpt lat="45.51733" lon="6.04863">
        <ele>1213.977566044</ele>
        <time>2015-12-08T09:10:59Z</time>
      </trkpt>
      <trkpt lat="45.51732" lon="6.04857">
        <ele>1213.977566044</ele>
        <time>2015-12-08T09:11:05Z</time>
      </trkpt>
      <trkpt lat="45.51727" lon="6.04852">
        <ele>1212.185248383</ele>
        <time>2015-12-08T09:11:15Z</time>
      </trkpt>
      <trkpt lat="45.51726" lon="6.04852">
        <ele>1212.185248383</ele>
        <time>2015-12-08T09:11:20Z</time>
      </trkpt>
      <trkpt lat="45.51719" lon="6.04845">
        <ele>1210.120898336</ele>
        <time>2015-12-08T09:11:30Z</time>
      </trkpt>
      <trkpt lat="45.51716" lon="6.04846">
        <ele>1210.120898336</ele>
        <time>2015-12-08T09:11:35Z</time>
      </trkpt>
      <trkpt lat="45.51709" lon="6.04836">
        <ele>1208.249731307</ele>
        <time>2015-12-08T09:11:50Z</time>
      </trkpt>
      <trkpt lat="45.51707" lon="6.04827">
        <ele>1208.249731307</ele>
        <time>2015-12-08T09:12:06Z</time>
      </trkpt>
      <trkpt lat="45.51705" lon="6.04826">
        <ele>1205.849120803</ele>
        <time>2015-12-08T09:12:10Z</time>
      </trkpt>
      <trkpt lat="45.51696" lon="6.04814">
        <ele>1203.403649635</ele>
        <time>2015-12-08T09:12:20Z</time>
      </trkpt>
      <trkpt lat="45.51692" lon="6.04809">
        <ele>1203.403649635</ele>
        <time>2015-12-08T09:12:25Z</time>
      </trkpt>
      <trkpt lat="45.51689" lon="6.04806">
        <ele>1200.929821343</ele>
        <time>2015-12-08T09:12:35Z</time>
      </trkpt>
      <trkpt lat="45.51689" lon="6.04807">
        <ele>1200.929821343</ele>
        <time>2015-12-08T09:12:39Z</time>
      </trkpt>
      <trkpt lat="45.5169" lon="6.04805">
        <ele>1200.929821343</ele>
        <time>2015-12-08T09:12:44Z</time>
      </trkpt>
      <trkpt lat="45.5169" lon="6.04805">
        <ele>1200.929821343</ele>
        <time>2015-12-08T09:12:49Z</time>
      </trkpt>
      <trkpt lat="45.5169" lon="6.04805">
        <ele>1200.929821343</ele>
        <time>2015-12-08T09:12:54Z</time>
      </trkpt>
      <trkpt lat="45.5169" lon="6.04805">
        <ele>1200.929821343</ele>
        <time>2015-12-08T09:12:59Z</time>
      </trkpt>
      <trkpt lat="45.5169" lon="6.04805">
        <ele>1200.929821343</ele>
        <time>2015-12-08T09:13:04Z</time>
      </trkpt>
      <trkpt lat="45.5169" lon="6.04805">
        <ele>1200.929821343</ele>
        <time>2015-12-08T09:13:09Z</time>
      </trkpt>
      <trkpt lat="45.5169" lon="6.04805">
        <ele>1200.929821343</ele>
        <time>2015-12-08T09:13:14Z</time>
      </trkpt>
      <trkpt lat="45.51679" lon="6.04811">
        <ele>1198.010380699</ele>
        <time>2015-12-08T09:13:25Z</time>
      </trkpt>
      <trkpt lat="45.51677" lon="6.04811">
        <ele>1198.010380699</ele>
        <time>2015-12-08T09:13:29Z</time>
      </trkpt>
      <trkpt lat="45.51667" lon="6.0482">
        <ele>1195.124332067</ele>
        <time>2015-12-08T09:13:40Z</time>
      </trkpt>
      <trkpt lat="45.51664" lon="6.04819">
        <ele>1195.124332067</ele>
        <time>2015-12-08T09:13:46Z</time>
      </trkpt>
      <trkpt lat="45.51653" lon="6.04805">
        <ele>1192.138625937</ele>
        <time>2015-12-08T09:13:55Z</time>
      </trkpt>
      <trkpt lat="45.51651" lon="6.04802">
        <ele>1192.138625937</ele>
        <time>2015-12-08T09:14:00Z</time>
      </trkpt>
      <trkpt lat="45.51643" lon="6.04794">
        <ele>1189.938703368</ele>
        <time>2015-12-08T09:14:10Z</time>
      </trkpt>
      <trkpt lat="45.51639" lon="6.04793">
        <ele>1189.938703368</ele>
        <time>2015-12-08T09:14:15Z</time>
      </trkpt>
      <trkpt lat="45.51636" lon="6.0479">
        <ele>1189.938703368</ele>
        <time>2015-12-08T09:14:20Z</time>
      </trkpt>
      <trkpt lat="45.51632" lon="6.04785">
        <ele>1187.468956644</ele>
        <time>2015-12-08T09:14:31Z</time>
      </trkpt>
      <trkpt lat="45.51629" lon="6.04785">
        <ele>1187.468956644</ele>
        <time>2015-12-08T09:14:45Z</time>
      </trkpt>
      <trkpt lat="45.51626" lon="6.04782">
        <ele>1187.468956644</ele>
        <time>2015-12-08T09:14:50Z</time>
      </trkpt>
      <trkpt lat="45.51624" lon="6.04784">
        <ele>1187.468956644</ele>
        <time>2015-12-08T09:15:01Z</time>
      </trkpt>
      <trkpt lat="45.51623" lon="6.04785">
        <ele>1185.048717524</ele>
        <time>2015-12-08T09:15:05Z</time>
      </trkpt>
      <trkpt lat="45.5161" lon="6.04781">
        <ele>1183.261574657</ele>
        <time>2015-12-08T09:15:16Z</time>
      </trkpt>
      <trkpt lat="45.51609" lon="6.04776">
        <ele>1183.261574657</ele>
        <time>2015-12-08T09:15:20Z</time>
      </trkpt>
      <trkpt lat="45.51608" lon="6.04765">
        <ele>1181.349098483</ele>
        <time>2015-12-08T09:15:30Z</time>
      </trkpt>
      <trkpt lat="45.51606" lon="6.04759">
        <ele>1181.349098483</ele>
        <time>2015-12-08T09:15:35Z</time>
      </trkpt>
      <trkpt lat="45.51601" lon="6.04745">
        <ele>1180.049666422</ele>
        <time>2015-12-08T09:15:45Z</time>
      </trkpt>
      <trkpt lat="45.51599" lon="6.04743">
        <ele>1180.049666422</ele>
        <time>2015-12-08T09:15:50Z</time>
      </trkpt>
      <trkpt lat="45.51595" lon="6.04729">
        <ele>1179.612996331</ele>
        <time>2015-12-08T09:16:00Z</time>
      </trkpt>
      <trkpt lat="45.51593" lon="6.04722">
        <ele>1179.612996331</ele>
        <time>2015-12-08T09:16:05Z</time>
      </trkpt>
      <trkpt lat="45.51592" lon="6.04709">
        <ele>1179.258906814</ele>
        <time>2015-12-08T09:16:15Z</time>
      </trkpt>
      <trkpt lat="45.51592" lon="6.04709">
        <ele>1179.258906814</ele>
        <time>2015-12-08T09:16:20Z</time>
      </trkpt>
      <trkpt lat="45.51591" lon="6.04693">
        <ele>1178.696285658</ele>
        <time>2015-12-08T09:16:31Z</time>
      </trkpt>
      <trkpt lat="45.51591" lon="6.04683">
        <ele>1178.696285658</ele>
        <time>2015-12-08T09:16:35Z</time>
      </trkpt>
      <trkpt lat="45.51589" lon="6.0467">
        <ele>1178.232105747</ele>
        <time>2015-12-08T09:16:46Z</time>
      </trkpt>
      <trkpt lat="45.51588" lon="6.04664">
        <ele>1178.232105747</ele>
        <time>2015-12-08T09:16:50Z</time>
      </trkpt>
      <trkpt lat="45.51587" lon="6.04656">
        <ele>1178.438423376</ele>
        <time>2015-12-08T09:16:54Z</time>
      </trkpt>
      <trkpt lat="45.51586" lon="6.04648">
        <ele>1178.438423376</ele>
        <time>2015-12-08T09:17:01Z</time>
      </trkpt>
      <trkpt lat="45.51585" lon="6.04643">
        <ele>1178.113759675</ele>
        <time>2015-12-08T09:17:05Z</time>
      </trkpt>
      <trkpt lat="45.51582" lon="6.04627">
        <ele>1177.875440245</ele>
        <time>2015-12-08T09:17:15Z</time>
      </trkpt>
      <trkpt lat="45.51582" lon="6.04615">
        <ele>1177.875440245</ele>
        <time>2015-12-08T09:17:20Z</time>
      </trkpt>
      <trkpt lat="45.5158" lon="6.04612">
        <ele>1178.006715305</ele>
        <time>2015-12-08T09:17:25Z</time>
      </trkpt>
      <trkpt lat="45.51579" lon="6.04597">
        <ele>1177.904078016</ele>
        <time>2015-12-08T09:17:35Z</time>
      </trkpt>
      <trkpt lat="45.51579" lon="6.04592">
        <ele>1177.904078016</ele>
        <time>2015-12-08T09:17:40Z</time>
      </trkpt>
      <trkpt lat="45.5158" lon="6.04581">
        <ele>1177.441115129</ele>
        <time>2015-12-08T09:17:50Z</time>
      </trkpt>
      <trkpt lat="45.51579" lon="6.04573">
        <ele>1177.441115129</ele>
        <time>2015-12-08T09:17:55Z</time>
      </trkpt>
      <trkpt lat="45.51583" lon="6.04553">
        <ele>1177.510275744</ele>
        <time>2015-12-08T09:18:05Z</time>
      </trkpt>
      <trkpt lat="45.5158" lon="6.04546">
        <ele>1177.510275744</ele>
        <time>2015-12-08T09:18:10Z</time>
      </trkpt>
      <trkpt lat="45.5158" lon="6.04538">
        <ele>1177.495646572</ele>
        <time>2015-12-08T09:18:20Z</time>
      </trkpt>
      <trkpt lat="45.51578" lon="6.04532">
        <ele>1177.495646572</ele>
        <time>2015-12-08T09:18:25Z</time>
      </trkpt>
      <trkpt lat="45.51578" lon="6.04516">
        <ele>1178.267724508</ele>
        <time>2015-12-08T09:18:35Z</time>
      </trkpt>
      <trkpt lat="45.51573" lon="6.04509">
        <ele>1178.267724508</ele>
        <time>2015-12-08T09:18:40Z</time>
      </trkpt>
      <trkpt lat="45.5157" lon="6.04504">
        <ele>1179.045464092</ele>
        <time>2015-12-08T09:18:51Z</time>
      </trkpt>
      <trkpt lat="45.5157" lon="6.04503">
        <ele>1179.045464092</ele>
        <time>2015-12-08T09:18:56Z</time>
      </trkpt>
      <trkpt lat="45.51566" lon="6.04506">
        <ele>1179.045464092</ele>
        <time>2015-12-08T09:19:05Z</time>
      </trkpt>
      <trkpt lat="45.51562" lon="6.04508">
        <ele>1180.546146036</ele>
        <time>2015-12-08T09:19:10Z</time>
      </trkpt>
      <trkpt lat="45.51556" lon="6.04514">
        <ele>1180.546146036</ele>
        <time>2015-12-08T09:19:21Z</time>
      </trkpt>
      <trkpt lat="45.51555" lon="6.04513">
        <ele>1180.546146036</ele>
        <time>2015-12-08T09:19:25Z</time>
      </trkpt>
      <trkpt lat="45.51548" lon="6.04507">
        <ele>1182.135205859</ele>
        <time>2015-12-08T09:19:41Z</time>
      </trkpt>
      <trkpt lat="45.51546" lon="6.04496">
        <ele>1182.135205859</ele>
        <time>2015-12-08T09:19:51Z</time>
      </trkpt>
      <trkpt lat="45.51545" lon="6.04492">
        <ele>1183.944900447</ele>
        <time>2015-12-08T09:19:54Z</time>
      </trkpt>
      <trkpt lat="45.51544" lon="6.04484">
        <ele>1183.944900447</ele>
        <time>2015-12-08T09:20:10Z</time>
      </trkpt>
      <trkpt lat="45.51544" lon="6.04483">
        <ele>1183.944900447</ele>
        <time>2015-12-08T09:20:15Z</time>
      </trkpt>
      <trkpt lat="45.51542" lon="6.04479">
        <ele>1186.961743436</ele>
        <time>2015-12-08T09:20:25Z</time>
      </trkpt>
      <trkpt lat="45.51542" lon="6.04479">
        <ele>1186.961743436</ele>
        <time>2015-12-08T09:20:30Z</time>
      </trkpt>
      <trkpt lat="45.51542" lon="6.04479">
        <ele>1186.961743436</ele>
        <time>2015-12-08T09:20:34Z</time>
      </trkpt>
      <trkpt lat="45.51542" lon="6.04479">
        <ele>1186.961743436</ele>
        <time>2015-12-08T09:20:39Z</time>
      </trkpt>
      <trkpt lat="45.51542" lon="6.04479">
        <ele>1186.961743436</ele>
        <time>2015-12-08T09:20:49Z</time>
      </trkpt>
      <trkpt lat="45.51542" lon="6.0448">
        <ele>1186.961743436</ele>
        <time>2015-12-08T09:20:54Z</time>
      </trkpt>
      <trkpt lat="45.51541" lon="6.0448">
        <ele>1186.961743436</ele>
        <time>2015-12-08T09:20:59Z</time>
      </trkpt>
      <trkpt lat="45.51541" lon="6.0448">
        <ele>1186.961743436</ele>
        <time>2015-12-08T09:21:04Z</time>
      </trkpt>
      <trkpt lat="45.51541" lon="6.0448">
        <ele>1186.961743436</ele>
        <time>2015-12-08T09:21:14Z</time>
      </trkpt>
      <trkpt lat="45.51541" lon="6.0448">
        <ele>1186.961743436</ele>
        <time>2015-12-08T09:21:19Z</time>
      </trkpt>
      <trkpt lat="45.51544" lon="6.04469">
        <ele>1189.214117583</ele>
        <time>2015-12-08T09:21:30Z</time>
      </trkpt>
      <trkpt lat="45.51545" lon="6.04465">
        <ele>1189.214117583</ele>
        <time>2015-12-08T09:21:36Z</time>
      </trkpt>
      <trkpt lat="45.51545" lon="6.04464">
        <ele>1189.214117583</ele>
        <time>2015-12-08T09:21:40Z</time>
      </trkpt>
      <trkpt lat="45.51544" lon="6.04455">
        <ele>1190.318470068</ele>
        <time>2015-12-08T09:21:51Z</time>
      </trkpt>
      <trkpt lat="45.51544" lon="6.04454">
        <ele>1190.318470068</ele>
        <time>2015-12-08T09:21:55Z</time>
      </trkpt>
      <trkpt lat="45.51543" lon="6.04447">
        <ele>1190.318470068</ele>
        <time>2015-12-08T09:22:05Z</time>
      </trkpt>
      <trkpt lat="45.51545" lon="6.04441">
        <ele>1191.075528585</ele>
        <time>2015-12-08T09:22:11Z</time>
      </trkpt>
      <trkpt lat="45.51547" lon="6.04433">
        <ele>1191.075528585</ele>
        <time>2015-12-08T09:22:20Z</time>
      </trkpt>
      <trkpt lat="45.51547" lon="6.04429">
        <ele>1191.075528585</ele>
        <time>2015-12-08T09:22:25Z</time>
      </trkpt>
      <trkpt lat="45.51545" lon="6.04416">
        <ele>1192.228185929</ele>
        <time>2015-12-08T09:22:35Z</time>
      </trkpt>
      <trkpt lat="45.51545" lon="6.0441">
        <ele>1192.228185929</ele>
        <time>2015-12-08T09:22:40Z</time>
      </trkpt>
      <trkpt lat="45.51548" lon="6.04402">
        <ele>1193.310787159</ele>
        <time>2015-12-08T09:22:50Z</time>
      </trkpt>
      <trkpt lat="45.51547" lon="6.04395">
        <ele>1193.310787159</ele>
        <time>2015-12-08T09:22:55Z</time>
      </trkpt>
      <trkpt lat="45.51545" lon="6.04379">
        <ele>1195.33322897</ele>
        <time>2015-12-08T09:23:04Z</time>
      </trkpt>
      <trkpt lat="45.51542" lon="6.04374">
        <ele>1195.33322897</ele>
        <time>2015-12-08T09:23:10Z</time>
      </trkpt>
      <trkpt lat="45.51545" lon="6.04359">
        <ele>1196.058183972</ele>
        <time>2015-12-08T09:23:21Z</time>
      </trkpt>
      <trkpt lat="45.51545" lon="6.04355">
        <ele>1196.058183972</ele>
        <time>2015-12-08T09:23:25Z</time>
      </trkpt>
      <trkpt lat="45.51542" lon="6.0433">
        <ele>1196.154484981</ele>
        <time>2015-12-08T09:23:41Z</time>
      </trkpt>
      <trkpt lat="45.51543" lon="6.04328">
        <ele>1196.154484981</ele>
        <time>2015-12-08T09:23:45Z</time>
      </trkpt>
      <trkpt lat="45.51544" lon="6.04318">
        <ele>1196.154484981</ele>
        <time>2015-12-08T09:23:55Z</time>
      </trkpt>
      <trkpt lat="45.51542" lon="6.04315">
        <ele>1195.667210427</ele>
        <time>2015-12-08T09:24:00Z</time>
      </trkpt>
      <trkpt lat="45.51544" lon="6.04311">
        <ele>1195.667210427</ele>
        <time>2015-12-08T09:24:10Z</time>
      </trkpt>
      <trkpt lat="45.5155" lon="6.0431">
        <ele>1194.495711965</ele>
        <time>2015-12-08T09:24:26Z</time>
      </trkpt>
      <trkpt lat="45.51551" lon="6.04305">
        <ele>1194.495711965</ele>
        <time>2015-12-08T09:24:30Z</time>
      </trkpt>
      <trkpt lat="45.51552" lon="6.04305">
        <ele>1194.495711965</ele>
        <time>2015-12-08T09:24:40Z</time>
      </trkpt>
      <trkpt lat="45.51554" lon="6.04309">
        <ele>1194.495711965</ele>
        <time>2015-12-08T09:24:45Z</time>
      </trkpt>
      <trkpt lat="45.51556" lon="6.04305">
        <ele>1192.692817572</ele>
        <time>2015-12-08T09:24:55Z</time>
      </trkpt>
      <trkpt lat="45.51558" lon="6.04301">
        <ele>1192.692817572</ele>
        <time>2015-12-08T09:25:00Z</time>
      </trkpt>
      <trkpt lat="45.51564" lon="6.04304">
        <ele>1190.597509135</ele>
        <time>2015-12-08T09:25:09Z</time>
      </trkpt>
      <trkpt lat="45.51563" lon="6.04301">
        <ele>1190.597509135</ele>
        <time>2015-12-08T09:25:15Z</time>
      </trkpt>
      <trkpt lat="45.51563" lon="6.04294">
        <ele>1190.597509135</ele>
        <time>2015-12-08T09:25:25Z</time>
      </trkpt>
      <trkpt lat="45.51563" lon="6.04293">
        <ele>1190.597509135</ele>
        <time>2015-12-08T09:25:30Z</time>
      </trkpt>
      <trkpt lat="45.51564" lon="6.04294">
        <ele>1188.236491321</ele>
        <time>2015-12-08T09:25:41Z</time>
      </trkpt>
      <trkpt lat="45.51564" lon="6.04294">
        <ele>1188.236491321</ele>
        <time>2015-12-08T09:25:45Z</time>
      </trkpt>
      <trkpt lat="45.51564" lon="6.04294">
        <ele>1188.236491321</ele>
        <time>2015-12-08T09:25:54Z</time>
      </trkpt>
      <trkpt lat="45.51564" lon="6.04294">
        <ele>1188.236491321</ele>
        <time>2015-12-08T09:26:00Z</time>
      </trkpt>
      <trkpt lat="45.51564" lon="6.04294">
        <ele>1188.236491321</ele>
        <time>2015-12-08T09:26:11Z</time>
      </trkpt>
      <trkpt lat="45.51564" lon="6.04294">
        <ele>1188.236491321</ele>
        <time>2015-12-08T09:26:15Z</time>
      </trkpt>
      <trkpt lat="45.51563" lon="6.04287">
        <ele>1188.236491321</ele>
        <time>2015-12-08T09:26:19Z</time>
      </trkpt>
      <trkpt lat="45.51562" lon="6.04282">
        <ele>1188.236491321</ele>
        <time>2015-12-08T09:26:31Z</time>
      </trkpt>
      <trkpt lat="45.51557" lon="6.04279">
        <ele>1185.491150129</ele>
        <time>2015-12-08T09:26:35Z</time>
      </trkpt>
      <trkpt lat="45.51558" lon="6.04278">
        <ele>1185.491150129</ele>
        <time>2015-12-08T09:26:46Z</time>
      </trkpt>
      <trkpt lat="45.51558" lon="6.04278">
        <ele>1185.491150129</ele>
        <time>2015-12-08T09:26:50Z</time>
      </trkpt>
      <trkpt lat="45.51558" lon="6.04278">
        <ele>1185.491150129</ele>
        <time>2015-12-08T09:27:00Z</time>
      </trkpt>
      <trkpt lat="45.51558" lon="6.04278">
        <ele>1185.491150129</ele>
        <time>2015-12-08T09:27:05Z</time>
      </trkpt>
      <trkpt lat="45.51558" lon="6.04277">
        <ele>1185.491150129</ele>
        <time>2015-12-08T09:27:16Z</time>
      </trkpt>
      <trkpt lat="45.51554" lon="6.04275">
        <ele>1185.491150129</ele>
        <time>2015-12-08T09:27:20Z</time>
      </trkpt>
      <trkpt lat="45.51554" lon="6.04275">
        <ele>1185.491150129</ele>
        <time>2015-12-08T09:27:31Z</time>
      </trkpt>
      <trkpt lat="45.51555" lon="6.04272">
        <ele>1185.491150129</ele>
        <time>2015-12-08T09:27:35Z</time>
      </trkpt>
      <trkpt lat="45.51556" lon="6.04272">
        <ele>1185.491150129</ele>
        <time>2015-12-08T09:27:45Z</time>
      </trkpt>
      <trkpt lat="45.51557" lon="6.04271">
        <ele>1182.82909808</ele>
        <time>2015-12-08T09:27:50Z</time>
      </trkpt>
      <trkpt lat="45.51557" lon="6.04272">
        <ele>1182.82909808</ele>
        <time>2015-12-08T09:28:01Z</time>
      </trkpt>
      <trkpt lat="45.51557" lon="6.04272">
        <ele>1182.82909808</ele>
        <time>2015-12-08T09:28:05Z</time>
      </trkpt>
      <trkpt lat="45.51558" lon="6.04272">
        <ele>1182.82909808</ele>
        <time>2015-12-08T09:28:16Z</time>
      </trkpt>
      <trkpt lat="45.51559" lon="6.04275">
        <ele>1182.82909808</ele>
        <time>2015-12-08T09:28:20Z</time>
      </trkpt>
      <trkpt lat="45.51562" lon="6.04274">
        <ele>1182.82909808</ele>
        <time>2015-12-08T09:28:25Z</time>
      </trkpt>
      <trkpt lat="45.51562" lon="6.04273">
        <ele>1182.82909808</ele>
        <time>2015-12-08T09:28:34Z</time>
      </trkpt>
      <trkpt lat="45.51562" lon="6.04273">
        <ele>1182.82909808</ele>
        <time>2015-12-08T09:28:39Z</time>
      </trkpt>
      <trkpt lat="45.51567" lon="6.04275">
        <ele>1179.386333125</ele>
        <time>2015-12-08T09:28:50Z</time>
      </trkpt>
      <trkpt lat="45.51569" lon="6.04274">
        <ele>1179.386333125</ele>
        <time>2015-12-08T09:28:55Z</time>
      </trkpt>
      <trkpt lat="45.51569" lon="6.04273">
        <ele>1179.386333125</ele>
        <time>2015-12-08T09:29:05Z</time>
      </trkpt>
      <trkpt lat="45.51569" lon="6.04272">
        <ele>1179.386333125</ele>
        <time>2015-12-08T09:29:10Z</time>
      </trkpt>
      <trkpt lat="45.5157" lon="6.04271">
        <ele>1179.386333125</ele>
        <time>2015-12-08T09:29:20Z</time>
      </trkpt>
      <trkpt lat="45.51573" lon="6.04272">
        <ele>1179.386333125</ele>
        <time>2015-12-08T09:29:24Z</time>
      </trkpt>
      <trkpt lat="45.51576" lon="6.04274">
        <ele>1174.940905319</ele>
        <time>2015-12-08T09:29:34Z</time>
      </trkpt>
      <trkpt lat="45.5158" lon="6.04272">
        <ele>1174.940905319</ele>
        <time>2015-12-08T09:29:42Z</time>
      </trkpt>
      <trkpt lat="45.51585" lon="6.04268">
        <ele>1170.298684178</ele>
        <time>2015-12-08T09:29:50Z</time>
      </trkpt>
      <trkpt lat="45.51588" lon="6.04266">
        <ele>1170.298684178</ele>
        <time>2015-12-08T09:29:55Z</time>
      </trkpt>
      <trkpt lat="45.51588" lon="6.04258">
        <ele>1170.298684178</ele>
        <time>2015-12-08T09:30:05Z</time>
      </trkpt>
      <trkpt lat="45.51587" lon="6.04257">
        <ele>1165.774457685</ele>
        <time>2015-12-08T09:30:10Z</time>
      </trkpt>
      <trkpt lat="45.51586" lon="6.04249">
        <ele>1165.774457685</ele>
        <time>2015-12-08T09:30:20Z</time>
      </trkpt>
      <trkpt lat="45.51588" lon="6.04246">
        <ele>1165.774457685</ele>
        <time>2015-12-08T09:30:25Z</time>
      </trkpt>
      <trkpt lat="45.51591" lon="6.04239">
        <ele>1160.362428705</ele>
        <time>2015-12-08T09:30:35Z</time>
      </trkpt>
      <trkpt lat="45.51591" lon="6.04237">
        <ele>1160.362428705</ele>
        <time>2015-12-08T09:30:40Z</time>
      </trkpt>
      <trkpt lat="45.51586" lon="6.0423">
        <ele>1160.362428705</ele>
        <time>2015-12-08T09:30:51Z</time>
      </trkpt>
      <trkpt lat="45.51583" lon="6.04227">
        <ele>1154.430017935</ele>
        <time>2015-12-08T09:30:55Z</time>
      </trkpt>
      <trkpt lat="45.5158" lon="6.04225">
        <ele>1154.430017935</ele>
        <time>2015-12-08T09:31:00Z</time>
      </trkpt>
      <trkpt lat="45.51578" lon="6.04209">
        <ele>1149.039484605</ele>
        <time>2015-12-08T09:31:10Z</time>
      </trkpt>
      <trkpt lat="45.51564" lon="6.04191">
        <ele>1144.452766474</ele>
        <time>2015-12-08T09:31:26Z</time>
      </trkpt>
      <trkpt lat="45.51564" lon="6.04184">
        <ele>1144.452766474</ele>
        <time>2015-12-08T09:31:30Z</time>
      </trkpt>
      <trkpt lat="45.5156" lon="6.04177">
        <ele>1140.910070509</ele>
        <time>2015-12-08T09:31:40Z</time>
      </trkpt>
      <trkpt lat="45.51561" lon="6.0417">
        <ele>1140.910070509</ele>
        <time>2015-12-08T09:31:44Z</time>
      </trkpt>
      <trkpt lat="45.51559" lon="6.04155">
        <ele>1136.757333362</ele>
        <time>2015-12-08T09:31:54Z</time>
      </trkpt>
      <trkpt lat="45.51559" lon="6.04147">
        <ele>1136.757333362</ele>
        <time>2015-12-08T09:31:59Z</time>
      </trkpt>
      <trkpt lat="45.51559" lon="6.04137">
        <ele>1133.057449398</ele>
        <time>2015-12-08T09:32:05Z</time>
      </trkpt>
      <trkpt lat="45.51561" lon="6.04131">
        <ele>1133.057449398</ele>
        <time>2015-12-08T09:32:10Z</time>
      </trkpt>
      <trkpt lat="45.51566" lon="6.04125">
        <ele>1129.496695317</ele>
        <time>2015-12-08T09:32:15Z</time>
      </trkpt>
      <trkpt lat="45.51569" lon="6.04119">
        <ele>1129.496695317</ele>
        <time>2015-12-08T09:32:20Z</time>
      </trkpt>
      <trkpt lat="45.5157" lon="6.04118">
        <ele>1129.496695317</ele>
        <time>2015-12-08T09:32:25Z</time>
      </trkpt>
      <trkpt lat="45.51571" lon="6.04118">
        <ele>1129.496695317</ele>
        <time>2015-12-08T09:32:30Z</time>
      </trkpt>
      <trkpt lat="45.51571" lon="6.04118">
        <ele>1129.496695317</ele>
        <time>2015-12-08T09:32:35Z</time>
      </trkpt>
      <trkpt lat="45.51568" lon="6.04122">
        <ele>1125.35139838</ele>
        <time>2015-12-08T09:32:40Z</time>
      </trkpt>
      <trkpt lat="45.51562" lon="6.04125">
        <ele>1125.35139838</ele>
        <time>2015-12-08T09:32:45Z</time>
      </trkpt>
      <trkpt lat="45.51555" lon="6.04126">
        <ele>1121.825857252</ele>
        <time>2015-12-08T09:32:50Z</time>
      </trkpt>
      <trkpt lat="45.51548" lon="6.04123">
        <ele>1121.825857252</ele>
        <time>2015-12-08T09:32:55Z</time>
      </trkpt>
      <trkpt lat="45.51543" lon="6.04121">
        <ele>1117.728110045</ele>
        <time>2015-12-08T09:32:59Z</time>
      </trkpt>
      <trkpt lat="45.51539" lon="6.04121">
        <ele>1117.728110045</ele>
        <time>2015-12-08T09:33:05Z</time>
      </trkpt>
      <trkpt lat="45.51533" lon="6.04116">
        <ele>1114.11675154</ele>
        <time>2015-12-08T09:33:10Z</time>
      </trkpt>
      <trkpt lat="45.51528" lon="6.04117">
        <ele>1114.11675154</ele>
        <time>2015-12-08T09:33:16Z</time>
      </trkpt>
      <trkpt lat="45.51525" lon="6.04113">
        <ele>1111.826862699</ele>
        <time>2015-12-08T09:33:20Z</time>
      </trkpt>
      <trkpt lat="45.51521" lon="6.04113">
        <ele>1111.826862699</ele>
        <time>2015-12-08T09:33:25Z</time>
      </trkpt>
      <trkpt lat="45.51517" lon="6.04113">
        <ele>1111.826862699</ele>
        <time>2015-12-08T09:33:30Z</time>
      </trkpt>
      <trkpt lat="45.51513" lon="6.04113">
        <ele>1110.907650472</ele>
        <time>2015-12-08T09:33:35Z</time>
      </trkpt>
      <trkpt lat="45.51511" lon="6.04116">
        <ele>1110.907650472</ele>
        <time>2015-12-08T09:33:40Z</time>
      </trkpt>
      <trkpt lat="45.51509" lon="6.04114">
        <ele>1110.907650472</ele>
        <time>2015-12-08T09:33:45Z</time>
      </trkpt>
      <trkpt lat="45.51508" lon="6.04115">
        <ele>1110.907650472</ele>
        <time>2015-12-08T09:33:50Z</time>
      </trkpt>
      <trkpt lat="45.51509" lon="6.04119">
        <ele>1110.680053689</ele>
        <time>2015-12-08T09:33:55Z</time>
      </trkpt>
      <trkpt lat="45.5151" lon="6.04121">
        <ele>1110.680053689</ele>
        <time>2015-12-08T09:34:00Z</time>
      </trkpt>
      <trkpt lat="45.51511" lon="6.0412">
        <ele>1110.680053689</ele>
        <time>2015-12-08T09:34:05Z</time>
      </trkpt>
      <trkpt lat="45.51511" lon="6.04119">
        <ele>1110.680053689</ele>
        <time>2015-12-08T09:34:10Z</time>
      </trkpt>
      <trkpt lat="45.51511" lon="6.04119">
        <ele>1110.680053689</ele>
        <time>2015-12-08T09:34:15Z</time>
      </trkpt>
      <trkpt lat="45.51511" lon="6.04119">
        <ele>1110.680053689</ele>
        <time>2015-12-08T09:34:20Z</time>
      </trkpt>
      <trkpt lat="45.51507" lon="6.04114">
        <ele>1110.680053689</ele>
        <time>2015-12-08T09:34:25Z</time>
      </trkpt>
      <trkpt lat="45.51505" lon="6.04109">
        <ele>1110.224500096</ele>
        <time>2015-12-08T09:34:30Z</time>
      </trkpt>
      <trkpt lat="45.51503" lon="6.04106">
        <ele>1110.224500096</ele>
        <time>2015-12-08T09:34:35Z</time>
      </trkpt>
      <trkpt lat="45.515" lon="6.04099">
        <ele>1110.224500096</ele>
        <time>2015-12-08T09:34:40Z</time>
      </trkpt>
      <trkpt lat="45.515" lon="6.04098">
        <ele>1110.224500096</ele>
        <time>2015-12-08T09:34:45Z</time>
      </trkpt>
      <trkpt lat="45.515" lon="6.04097">
        <ele>1109.842290863</ele>
        <time>2015-12-08T09:34:50Z</time>
      </trkpt>
      <trkpt lat="45.51505" lon="6.041">
        <ele>1109.842290863</ele>
        <time>2015-12-08T09:34:55Z</time>
      </trkpt>
      <trkpt lat="45.51505" lon="6.041">
        <ele>1109.842290863</ele>
        <time>2015-12-08T09:34:59Z</time>
      </trkpt>
      <trkpt lat="45.51506" lon="6.041">
        <ele>1109.842290863</ele>
        <time>2015-12-08T09:35:05Z</time>
      </trkpt>
      <trkpt lat="45.51506" lon="6.041">
        <ele>1109.842290863</ele>
        <time>2015-12-08T09:35:12Z</time>
      </trkpt>
      <trkpt lat="45.51506" lon="6.041">
        <ele>1109.842290863</ele>
        <time>2015-12-08T09:35:14Z</time>
      </trkpt>
      <trkpt lat="45.51508" lon="6.04103">
        <ele>1110.244543125</ele>
        <time>2015-12-08T09:35:20Z</time>
      </trkpt>
      <trkpt lat="45.51508" lon="6.04101">
        <ele>1110.244543125</ele>
        <time>2015-12-08T09:35:24Z</time>
      </trkpt>
      <trkpt lat="45.51507" lon="6.04101">
        <ele>1110.244543125</ele>
        <time>2015-12-08T09:35:30Z</time>
      </trkpt>
      <trkpt lat="45.51506" lon="6.04101">
        <ele>1110.244543125</ele>
        <time>2015-12-08T09:35:34Z</time>
      </trkpt>
      <trkpt lat="45.51506" lon="6.04101">
        <ele>1110.244543125</ele>
        <time>2015-12-08T09:35:40Z</time>
      </trkpt>
      <trkpt lat="45.51506" lon="6.04101">
        <ele>1110.244543125</ele>
        <time>2015-12-08T09:35:45Z</time>
      </trkpt>
      <trkpt lat="45.51506" lon="6.04101">
        <ele>1110.244543125</ele>
        <time>2015-12-08T09:35:50Z</time>
      </trkpt>
      <trkpt lat="45.51505" lon="6.04099">
        <ele>1110.244543125</ele>
        <time>2015-12-08T09:35:55Z</time>
      </trkpt>
      <trkpt lat="45.51505" lon="6.04099">
        <ele>1110.244543125</ele>
        <time>2015-12-08T09:35:59Z</time>
      </trkpt>
      <trkpt lat="45.51505" lon="6.04099">
        <ele>1110.244543125</ele>
        <time>2015-12-08T09:36:05Z</time>
      </trkpt>
      <trkpt lat="45.51505" lon="6.04099">
        <ele>1110.244543125</ele>
        <time>2015-12-08T09:36:10Z</time>
      </trkpt>
      <trkpt lat="45.51504" lon="6.04099">
        <ele>1110.244543125</ele>
        <time>2015-12-08T09:36:15Z</time>
      </trkpt>
      <trkpt lat="45.51504" lon="6.041">
        <ele>1110.244543125</ele>
        <time>2015-12-08T09:36:21Z</time>
      </trkpt>
      <trkpt lat="45.51504" lon="6.041">
        <ele>1110.244543125</ele>
        <time>2015-12-08T09:36:25Z</time>
      </trkpt>
      <trkpt lat="45.51505" lon="6.04101">
        <ele>1110.244543125</ele>
        <time>2015-12-08T09:36:30Z</time>
      </trkpt>
      <trkpt lat="45.51505" lon="6.04101">
        <ele>1110.244543125</ele>
        <time>2015-12-08T09:36:34Z</time>
      </trkpt>
      <trkpt lat="45.51506" lon="6.04102">
        <ele>1109.349670623</ele>
        <time>2015-12-08T09:36:39Z</time>
      </trkpt>
      <trkpt lat="45.51506" lon="6.04102">
        <ele>1109.349670623</ele>
        <time>2015-12-08T09:36:44Z</time>
      </trkpt>
      <trkpt lat="45.51508" lon="6.041">
        <ele>1109.349670623</ele>
        <time>2015-12-08T09:36:49Z</time>
      </trkpt>
      <trkpt lat="45.51513" lon="6.041">
        <ele>1109.349670623</ele>
        <time>2015-12-08T09:36:54Z</time>
      </trkpt>
      <trkpt lat="45.51519" lon="6.04108">
        <ele>1109.123512713</ele>
        <time>2015-12-08T09:37:00Z</time>
      </trkpt>
      <trkpt lat="45.51523" lon="6.04106">
        <ele>1109.123512713</ele>
        <time>2015-12-08T09:37:05Z</time>
      </trkpt>
      <trkpt lat="45.51528" lon="6.04104">
        <ele>1109.512076183</ele>
        <time>2015-12-08T09:37:10Z</time>
      </trkpt>
      <trkpt lat="45.51533" lon="6.04107">
        <ele>1109.512076183</ele>
        <time>2015-12-08T09:37:14Z</time>
      </trkpt>
      <trkpt lat="45.51537" lon="6.04109">
        <ele>1109.887086858</ele>
        <time>2015-12-08T09:37:20Z</time>
      </trkpt>
      <trkpt lat="45.51541" lon="6.04107">
        <ele>1109.887086858</ele>
        <time>2015-12-08T09:37:25Z</time>
      </trkpt>
      <trkpt lat="45.51547" lon="6.04108">
        <ele>1110.531073734</ele>
        <time>2015-12-08T09:37:30Z</time>
      </trkpt>
      <trkpt lat="45.51549" lon="6.04111">
        <ele>1110.531073734</ele>
        <time>2015-12-08T09:37:34Z</time>
      </trkpt>
      <trkpt lat="45.51555" lon="6.04113">
        <ele>1111.128582001</ele>
        <time>2015-12-08T09:37:40Z</time>
      </trkpt>
      <trkpt lat="45.51558" lon="6.04117">
        <ele>1111.128582001</ele>
        <time>2015-12-08T09:37:45Z</time>
      </trkpt>
      <trkpt lat="45.51564" lon="6.04119">
        <ele>1111.243342087</ele>
        <time>2015-12-08T09:37:50Z</time>
      </trkpt>
      <trkpt lat="45.51566" lon="6.04116">
        <ele>1111.243342087</ele>
        <time>2015-12-08T09:37:55Z</time>
      </trkpt>
      <trkpt lat="45.51568" lon="6.04113">
        <ele>1111.243342087</ele>
        <time>2015-12-08T09:38:00Z</time>
      </trkpt>
      <trkpt lat="45.5157" lon="6.04105">
        <ele>1111.481279154</ele>
        <time>2015-12-08T09:38:05Z</time>
      </trkpt>
      <trkpt lat="45.51569" lon="6.04096">
        <ele>1111.481279154</ele>
        <time>2015-12-08T09:38:10Z</time>
      </trkpt>
      <trkpt lat="45.5157" lon="6.04091">
        <ele>1111.827050699</ele>
        <time>2015-12-08T09:38:15Z</time>
      </trkpt>
      <trkpt lat="45.5157" lon="6.04086">
        <ele>1111.827050699</ele>
        <time>2015-12-08T09:38:20Z</time>
      </trkpt>
      <trkpt lat="45.51571" lon="6.04082">
        <ele>1111.827050699</ele>
        <time>2015-12-08T09:38:24Z</time>
      </trkpt>
      <trkpt lat="45.51573" lon="6.04079">
        <ele>1111.827050699</ele>
        <time>2015-12-08T09:38:30Z</time>
      </trkpt>
      <trkpt lat="45.51573" lon="6.04075">
        <ele>1111.977966622</ele>
        <time>2015-12-08T09:38:34Z</time>
      </trkpt>
      <trkpt lat="45.51571" lon="6.0407">
        <ele>1111.977966622</ele>
        <time>2015-12-08T09:38:39Z</time>
      </trkpt>
      <trkpt lat="45.51569" lon="6.04061">
        <ele>1111.942405948</ele>
        <time>2015-12-08T09:38:45Z</time>
      </trkpt>
      <trkpt lat="45.51567" lon="6.04057">
        <ele>1111.942405948</ele>
        <time>2015-12-08T09:38:50Z</time>
      </trkpt>
      <trkpt lat="45.51566" lon="6.04057">
        <ele>1111.942405948</ele>
        <time>2015-12-08T09:38:55Z</time>
      </trkpt>
      <trkpt lat="45.51564" lon="6.04055">
        <ele>1111.942405948</ele>
        <time>2015-12-08T09:38:59Z</time>
      </trkpt>
      <trkpt lat="45.51564" lon="6.04055">
        <ele>1111.942405948</ele>
        <time>2015-12-08T09:39:04Z</time>
      </trkpt>
      <trkpt lat="45.51565" lon="6.04054">
        <ele>1111.942405948</ele>
        <time>2015-12-08T09:39:09Z</time>
      </trkpt>
      <trkpt lat="45.51568" lon="6.04049">
        <ele>1111.440509841</ele>
        <time>2015-12-08T09:39:15Z</time>
      </trkpt>
      <trkpt lat="45.51575" lon="6.04036">
        <ele>1110.934928383</ele>
        <time>2015-12-08T09:39:24Z</time>
      </trkpt>
      <trkpt lat="45.51576" lon="6.04024">
        <ele>1110.934928383</ele>
        <time>2015-12-08T09:39:30Z</time>
      </trkpt>
      <trkpt lat="45.51581" lon="6.04011">
        <ele>1110.27798478</ele>
        <time>2015-12-08T09:39:40Z</time>
      </trkpt>
      <trkpt lat="45.5158" lon="6.04">
        <ele>1110.27798478</ele>
        <time>2015-12-08T09:39:46Z</time>
      </trkpt>
      <trkpt lat="45.51577" lon="6.03986">
        <ele>1109.765706985</ele>
        <time>2015-12-08T09:39:55Z</time>
      </trkpt>
      <trkpt lat="45.51577" lon="6.03976">
        <ele>1109.765706985</ele>
        <time>2015-12-08T09:40:00Z</time>
      </trkpt>
      <trkpt lat="45.51569" lon="6.03969">
        <ele>1110.24851934</ele>
        <time>2015-12-08T09:40:11Z</time>
      </trkpt>
      <trkpt lat="45.51566" lon="6.03964">
        <ele>1110.24851934</ele>
        <time>2015-12-08T09:40:15Z</time>
      </trkpt>
      <trkpt lat="45.51563" lon="6.03945">
        <ele>1110.205912811</ele>
        <time>2015-12-08T09:40:25Z</time>
      </trkpt>
      <trkpt lat="45.51556" lon="6.03942">
        <ele>1110.205912811</ele>
        <time>2015-12-08T09:40:30Z</time>
      </trkpt>
      <trkpt lat="45.51553" lon="6.0393">
        <ele>1110.392330078</ele>
        <time>2015-12-08T09:40:40Z</time>
      </trkpt>
      <trkpt lat="45.51552" lon="6.0393">
        <ele>1110.392330078</ele>
        <time>2015-12-08T09:40:45Z</time>
      </trkpt>
      <trkpt lat="45.51549" lon="6.03925">
        <ele>1110.392330078</ele>
        <time>2015-12-08T09:40:55Z</time>
      </trkpt>
      <trkpt lat="45.51548" lon="6.03922">
        <ele>1110.392330078</ele>
        <time>2015-12-08T09:41:01Z</time>
      </trkpt>
      <trkpt lat="45.51547" lon="6.03916">
        <ele>1110.785716122</ele>
        <time>2015-12-08T09:41:05Z</time>
      </trkpt>
      <trkpt lat="45.51542" lon="6.03898">
        <ele>1111.365184463</ele>
        <time>2015-12-08T09:41:15Z</time>
      </trkpt>
      <trkpt lat="45.51547" lon="6.03881">
        <ele>1111.534551468</ele>
        <time>2015-12-08T09:41:25Z</time>
      </trkpt>
      <trkpt lat="45.51547" lon="6.03878">
        <ele>1111.534551468</ele>
        <time>2015-12-08T09:41:30Z</time>
      </trkpt>
      <trkpt lat="45.5154" lon="6.03856">
        <ele>1111.895610035</ele>
        <time>2015-12-08T09:41:45Z</time>
      </trkpt>
      <trkpt lat="45.51539" lon="6.03841">
        <ele>1111.564441909</ele>
        <time>2015-12-08T09:41:50Z</time>
      </trkpt>
      <trkpt lat="45.51537" lon="6.03829">
        <ele>1111.741708018</ele>
        <time>2015-12-08T09:41:59Z</time>
      </trkpt>
      <trkpt lat="45.51539" lon="6.03821">
        <ele>1111.741708018</ele>
        <time>2015-12-08T09:42:06Z</time>
      </trkpt>
      <trkpt lat="45.51545" lon="6.03809">
        <ele>1111.665147945</ele>
        <time>2015-12-08T09:42:16Z</time>
      </trkpt>
      <trkpt lat="45.51549" lon="6.038">
        <ele>1111.665147945</ele>
        <time>2015-12-08T09:42:20Z</time>
      </trkpt>
      <trkpt lat="45.51554" lon="6.03792">
        <ele>1111.349914131</ele>
        <time>2015-12-08T09:42:30Z</time>
      </trkpt>
      <trkpt lat="45.51559" lon="6.03784">
        <ele>1111.349914131</ele>
        <time>2015-12-08T09:42:35Z</time>
      </trkpt>
      <trkpt lat="45.51565" lon="6.03773">
        <ele>1111.387309102</ele>
        <time>2015-12-08T09:42:45Z</time>
      </trkpt>
      <trkpt lat="45.51564" lon="6.03767">
        <ele>1111.387309102</ele>
        <time>2015-12-08T09:42:50Z</time>
      </trkpt>
      <trkpt lat="45.51566" lon="6.03755">
        <ele>1110.883244729</ele>
        <time>2015-12-08T09:43:00Z</time>
      </trkpt>
      <trkpt lat="45.51566" lon="6.03752">
        <ele>1110.883244729</ele>
        <time>2015-12-08T09:43:06Z</time>
      </trkpt>
      <trkpt lat="45.51565" lon="6.03733">
        <ele>1110.163863879</ele>
        <time>2015-12-08T09:43:15Z</time>
      </trkpt>
      <trkpt lat="45.51566" lon="6.0372">
        <ele>1110.163863879</ele>
        <time>2015-12-08T09:43:20Z</time>
      </trkpt>
      <trkpt lat="45.51569" lon="6.03704">
        <ele>1109.243871353</ele>
        <time>2015-12-08T09:43:30Z</time>
      </trkpt>
      <trkpt lat="45.51576" lon="6.03698">
        <ele>1109.243871353</ele>
        <time>2015-12-08T09:43:35Z</time>
      </trkpt>
      <trkpt lat="45.51575" lon="6.03683">
        <ele>1108.714032024</ele>
        <time>2015-12-08T09:43:45Z</time>
      </trkpt>
      <trkpt lat="45.51578" lon="6.03677">
        <ele>1108.714032024</ele>
        <time>2015-12-08T09:43:50Z</time>
      </trkpt>
      <trkpt lat="45.51582" lon="6.03661">
        <ele>1108.68841253</ele>
        <time>2015-12-08T09:44:05Z</time>
      </trkpt>
      <trkpt lat="45.51579" lon="6.03636">
        <ele>1108.839074594</ele>
        <time>2015-12-08T09:44:20Z</time>
      </trkpt>
      <trkpt lat="45.51579" lon="6.03628">
        <ele>1108.839074594</ele>
        <time>2015-12-08T09:44:35Z</time>
      </trkpt>
      <trkpt lat="45.51582" lon="6.0362">
        <ele>1109.150017608</ele>
        <time>2015-12-08T09:44:40Z</time>
      </trkpt>
      <trkpt lat="45.51585" lon="6.03614">
        <ele>1109.150017608</ele>
        <time>2015-12-08T09:44:50Z</time>
      </trkpt>
      <trkpt lat="45.51585" lon="6.0361">
        <ele>1109.150017608</ele>
        <time>2015-12-08T09:44:55Z</time>
      </trkpt>
      <trkpt lat="45.51587" lon="6.03598">
        <ele>1109.173751757</ele>
        <time>2015-12-08T09:45:05Z</time>
      </trkpt>
      <trkpt lat="45.51587" lon="6.03587">
        <ele>1109.173751757</ele>
        <time>2015-12-08T09:45:10Z</time>
      </trkpt>
      <trkpt lat="45.51591" lon="6.03576">
        <ele>1109.505362033</ele>
        <time>2015-12-08T09:45:20Z</time>
      </trkpt>
      <trkpt lat="45.51591" lon="6.03569">
        <ele>1109.505362033</ele>
        <time>2015-12-08T09:45:25Z</time>
      </trkpt>
      <trkpt lat="45.51587" lon="6.03552">
        <ele>1109.542584</ele>
        <time>2015-12-08T09:45:35Z</time>
      </trkpt>
      <trkpt lat="45.51587" lon="6.03544">
        <ele>1109.542584</ele>
        <time>2015-12-08T09:45:41Z</time>
      </trkpt>
      <trkpt lat="45.51583" lon="6.03532">
        <ele>1109.304782552</ele>
        <time>2015-12-08T09:45:50Z</time>
      </trkpt>
      <trkpt lat="45.51583" lon="6.03522">
        <ele>1109.304782552</ele>
        <time>2015-12-08T09:45:55Z</time>
      </trkpt>
      <trkpt lat="45.51584" lon="6.03497">
        <ele>1108.090228531</ele>
        <time>2015-12-08T09:46:10Z</time>
      </trkpt>
      <trkpt lat="45.51585" lon="6.0348">
        <ele>1107.269145149</ele>
        <time>2015-12-08T09:46:22Z</time>
      </trkpt>
      <trkpt lat="45.51582" lon="6.03479">
        <ele>1107.269145149</ele>
        <time>2015-12-08T09:46:25Z</time>
      </trkpt>
      <trkpt lat="45.5158" lon="6.03477">
        <ele>1107.269145149</ele>
        <time>2015-12-08T09:46:30Z</time>
      </trkpt>
      <trkpt lat="45.51581" lon="6.03476">
        <ele>1107.269145149</ele>
        <time>2015-12-08T09:46:40Z</time>
      </trkpt>
      <trkpt lat="45.51581" lon="6.03468">
        <ele>1106.38076148</ele>
        <time>2015-12-08T09:46:45Z</time>
      </trkpt>
      <trkpt lat="45.51576" lon="6.03465">
        <ele>1106.38076148</ele>
        <time>2015-12-08T09:46:55Z</time>
      </trkpt>
      <trkpt lat="45.51571" lon="6.03465">
        <ele>1106.727769764</ele>
        <time>2015-12-08T09:47:00Z</time>
      </trkpt>
      <trkpt lat="45.51565" lon="6.03465">
        <ele>1106.727769764</ele>
        <time>2015-12-08T09:47:10Z</time>
      </trkpt>
      <trkpt lat="45.51561" lon="6.03464">
        <ele>1107.063898338</ele>
        <time>2015-12-08T09:47:15Z</time>
      </trkpt>
      <trkpt lat="45.51556" lon="6.03469">
        <ele>1107.063898338</ele>
        <time>2015-12-08T09:47:26Z</time>
      </trkpt>
      <trkpt lat="45.51551" lon="6.03467">
        <ele>1107.963875276</ele>
        <time>2015-12-08T09:47:30Z</time>
      </trkpt>
      <trkpt lat="45.51546" lon="6.03462">
        <ele>1107.963875276</ele>
        <time>2015-12-08T09:47:40Z</time>
      </trkpt>
      <trkpt lat="45.51545" lon="6.03458">
        <ele>1107.963875276</ele>
        <time>2015-12-08T09:47:46Z</time>
      </trkpt>
      <trkpt lat="45.51542" lon="6.03458">
        <ele>1109.382270015</ele>
        <time>2015-12-08T09:47:55Z</time>
      </trkpt>
      <trkpt lat="45.51543" lon="6.03457">
        <ele>1109.382270015</ele>
        <time>2015-12-08T09:47:59Z</time>
      </trkpt>
      <trkpt lat="45.51543" lon="6.03456">
        <ele>1109.382270015</ele>
        <time>2015-12-08T09:48:05Z</time>
      </trkpt>
      <trkpt lat="45.51542" lon="6.03455">
        <ele>1109.382270015</ele>
        <time>2015-12-08T09:48:15Z</time>
      </trkpt>
      <trkpt lat="45.51542" lon="6.03452">
        <ele>1109.382270015</ele>
        <time>2015-12-08T09:48:19Z</time>
      </trkpt>
      <trkpt lat="45.5154" lon="6.0345">
        <ele>1109.382270015</ele>
        <time>2015-12-08T09:48:31Z</time>
      </trkpt>
      <trkpt lat="45.51539" lon="6.03448">
        <ele>1109.382270015</ele>
        <time>2015-12-08T09:48:35Z</time>
      </trkpt>
      <trkpt lat="45.51539" lon="6.03444">
        <ele>1111.996185087</ele>
        <time>2015-12-08T09:48:45Z</time>
      </trkpt>
      <trkpt lat="45.51539" lon="6.03442">
        <ele>1111.996185087</ele>
        <time>2015-12-08T09:48:50Z</time>
      </trkpt>
      <trkpt lat="45.51537" lon="6.03439">
        <ele>1111.996185087</ele>
        <time>2015-12-08T09:49:00Z</time>
      </trkpt>
      <trkpt lat="45.51537" lon="6.03438">
        <ele>1111.996185087</ele>
        <time>2015-12-08T09:49:05Z</time>
      </trkpt>
      <trkpt lat="45.51537" lon="6.03437">
        <ele>1111.996185087</ele>
        <time>2015-12-08T09:49:15Z</time>
      </trkpt>
      <trkpt lat="45.51536" lon="6.03433">
        <ele>1111.996185087</ele>
        <time>2015-12-08T09:49:20Z</time>
      </trkpt>
      <trkpt lat="45.51537" lon="6.03428">
        <ele>1115.132734617</ele>
        <time>2015-12-08T09:49:31Z</time>
      </trkpt>
      <trkpt lat="45.51537" lon="6.03428">
        <ele>1115.132734617</ele>
        <time>2015-12-08T09:49:34Z</time>
      </trkpt>
      <trkpt lat="45.51535" lon="6.03424">
        <ele>1115.132734617</ele>
        <time>2015-12-08T09:49:46Z</time>
      </trkpt>
      <trkpt lat="45.51535" lon="6.03424">
        <ele>1115.132734617</ele>
        <time>2015-12-08T09:49:50Z</time>
      </trkpt>
      <trkpt lat="45.51531" lon="6.03417">
        <ele>1118.455339417</ele>
        <time>2015-12-08T09:50:06Z</time>
      </trkpt>
      <trkpt lat="45.51531" lon="6.03413">
        <ele>1118.455339417</ele>
        <time>2015-12-08T09:50:10Z</time>
      </trkpt>
      <trkpt lat="45.51525" lon="6.0341">
        <ele>1118.455339417</ele>
        <time>2015-12-08T09:50:25Z</time>
      </trkpt>
      <trkpt lat="45.5152" lon="6.03401">
        <ele>1121.219427638</ele>
        <time>2015-12-08T09:50:35Z</time>
      </trkpt>
      <trkpt lat="45.5152" lon="6.03401">
        <ele>1121.219427638</ele>
        <time>2015-12-08T09:50:40Z</time>
      </trkpt>
      <trkpt lat="45.5152" lon="6.03401">
        <ele>1121.219427638</ele>
        <time>2015-12-08T09:50:55Z</time>
      </trkpt>
      <trkpt lat="45.51519" lon="6.03402">
        <ele>1121.219427638</ele>
        <time>2015-12-08T09:51:00Z</time>
      </trkpt>
      <trkpt lat="45.5152" lon="6.03402">
        <ele>1121.219427638</ele>
        <time>2015-12-08T09:51:10Z</time>
      </trkpt>
      <trkpt lat="45.5152" lon="6.03402">
        <ele>1121.219427638</ele>
        <time>2015-12-08T09:51:15Z</time>
      </trkpt>
      <trkpt lat="45.5152" lon="6.03402">
        <ele>1121.219427638</ele>
        <time>2015-12-08T09:51:25Z</time>
      </trkpt>
      <trkpt lat="45.5152" lon="6.03402">
        <ele>1121.219427638</ele>
        <time>2015-12-08T09:51:29Z</time>
      </trkpt>
      <trkpt lat="45.5152" lon="6.03402">
        <ele>1121.219427638</ele>
        <time>2015-12-08T09:51:39Z</time>
      </trkpt>
      <trkpt lat="45.5152" lon="6.03403">
        <ele>1121.219427638</ele>
        <time>2015-12-08T09:51:44Z</time>
      </trkpt>
      <trkpt lat="45.5152" lon="6.03403">
        <ele>1121.219427638</ele>
        <time>2015-12-08T09:51:54Z</time>
      </trkpt>
      <trkpt lat="45.51519" lon="6.03403">
        <ele>1121.219427638</ele>
        <time>2015-12-08T09:51:59Z</time>
      </trkpt>
      <trkpt lat="45.51518" lon="6.03404">
        <ele>1121.219427638</ele>
        <time>2015-12-08T09:52:09Z</time>
      </trkpt>
      <trkpt lat="45.51518" lon="6.03404">
        <ele>1121.219427638</ele>
        <time>2015-12-08T09:52:14Z</time>
      </trkpt>
      <trkpt lat="45.51518" lon="6.03404">
        <ele>1121.219427638</ele>
        <time>2015-12-08T09:52:25Z</time>
      </trkpt>
      <trkpt lat="45.51518" lon="6.03404">
        <ele>1121.219427638</ele>
        <time>2015-12-08T09:52:29Z</time>
      </trkpt>
      <trkpt lat="45.51518" lon="6.03404">
        <ele>1121.219427638</ele>
        <time>2015-12-08T09:52:44Z</time>
      </trkpt>
      <trkpt lat="45.51518" lon="6.03404">
        <ele>1121.219427638</ele>
        <time>2015-12-08T09:52:49Z</time>
      </trkpt>
      <trkpt lat="45.51518" lon="6.03404">
        <ele>1121.219427638</ele>
        <time>2015-12-08T09:53:00Z</time>
      </trkpt>
      <trkpt lat="45.51518" lon="6.03404">
        <ele>1121.219427638</ele>
        <time>2015-12-08T09:53:05Z</time>
      </trkpt>
      <trkpt lat="45.51518" lon="6.03404">
        <ele>1121.219427638</ele>
        <time>2015-12-08T09:53:14Z</time>
      </trkpt>
      <trkpt lat="45.51518" lon="6.03404">
        <ele>1121.219427638</ele>
        <time>2015-12-08T09:53:19Z</time>
      </trkpt>
      <trkpt lat="45.51518" lon="6.03404">
        <ele>1121.219427638</ele>
        <time>2015-12-08T09:53:29Z</time>
      </trkpt>
      <trkpt lat="45.51518" lon="6.03404">
        <ele>1121.219427638</ele>
        <time>2015-12-08T09:53:34Z</time>
      </trkpt>
      <trkpt lat="45.51518" lon="6.03404">
        <ele>1121.219427638</ele>
        <time>2015-12-08T09:53:45Z</time>
      </trkpt>
      <trkpt lat="45.51518" lon="6.03404">
        <ele>1121.219427638</ele>
        <time>2015-12-08T09:53:50Z</time>
      </trkpt>
      <trkpt lat="45.51518" lon="6.03404">
        <ele>1121.219427638</ele>
        <time>2015-12-08T09:54:04Z</time>
      </trkpt>
      <trkpt lat="45.51518" lon="6.03404">
        <ele>1121.219427638</ele>
        <time>2015-12-08T09:54:09Z</time>
      </trkpt>
      <trkpt lat="45.51518" lon="6.03404">
        <ele>1121.219427638</ele>
        <time>2015-12-08T09:54:19Z</time>
      </trkpt>
      <trkpt lat="45.51518" lon="6.03404">
        <ele>1121.219427638</ele>
        <time>2015-12-08T09:54:24Z</time>
      </trkpt>
      <trkpt lat="45.51518" lon="6.03404">
        <ele>1121.219427638</ele>
        <time>2015-12-08T09:54:34Z</time>
      </trkpt>
      <trkpt lat="45.51518" lon="6.03404">
        <ele>1121.219427638</ele>
        <time>2015-12-08T09:54:39Z</time>
      </trkpt>
      <trkpt lat="45.51518" lon="6.03404">
        <ele>1121.219427638</ele>
        <time>2015-12-08T09:54:49Z</time>
      </trkpt>
      <trkpt lat="45.51518" lon="6.03404">
        <ele>1121.219427638</ele>
        <time>2015-12-08T09:54:54Z</time>
      </trkpt>
      <trkpt lat="45.51518" lon="6.03404">
        <ele>1121.219427638</ele>
        <time>2015-12-08T09:55:05Z</time>
      </trkpt>
      <trkpt lat="45.5152" lon="6.03402">
        <ele>1121.219427638</ele>
        <time>2015-12-08T09:55:09Z</time>
      </trkpt>
      <trkpt lat="45.51525" lon="6.03391">
        <ele>1124.466180507</ele>
        <time>2015-12-08T09:55:21Z</time>
      </trkpt>
      <trkpt lat="45.51527" lon="6.03388">
        <ele>1124.466180507</ele>
        <time>2015-12-08T09:55:25Z</time>
      </trkpt>
      <trkpt lat="45.5153" lon="6.0338">
        <ele>1127.285668502</ele>
        <time>2015-12-08T09:55:29Z</time>
      </trkpt>
      <trkpt lat="45.51531" lon="6.03377">
        <ele>1127.285668502</ele>
        <time>2015-12-08T09:55:34Z</time>
      </trkpt>
      <trkpt lat="45.51533" lon="6.03371">
        <ele>1127.285668502</ele>
        <time>2015-12-08T09:55:49Z</time>
      </trkpt>
      <trkpt lat="45.51534" lon="6.03368">
        <ele>1129.700857195</ele>
        <time>2015-12-08T09:55:54Z</time>
      </trkpt>
      <trkpt lat="45.51536" lon="6.03365">
        <ele>1129.700857195</ele>
        <time>2015-12-08T09:56:04Z</time>
      </trkpt>
      <trkpt lat="45.51538" lon="6.03362">
        <ele>1129.700857195</ele>
        <time>2015-12-08T09:56:09Z</time>
      </trkpt>
      <trkpt lat="45.5154" lon="6.03362">
        <ele>1129.700857195</ele>
        <time>2015-12-08T09:56:19Z</time>
      </trkpt>
      <trkpt lat="45.51539" lon="6.03359">
        <ele>1131.734356021</ele>
        <time>2015-12-08T09:56:31Z</time>
      </trkpt>
      <trkpt lat="45.51543" lon="6.03361">
        <ele>1131.734356021</ele>
        <time>2015-12-08T09:56:35Z</time>
      </trkpt>
      <trkpt lat="45.51553" lon="6.03356">
        <ele>1133.408387604</ele>
        <time>2015-12-08T09:56:46Z</time>
      </trkpt>
      <trkpt lat="45.51556" lon="6.03353">
        <ele>1133.408387604</ele>
        <time>2015-12-08T09:56:50Z</time>
      </trkpt>
      <trkpt lat="45.51562" lon="6.03337">
        <ele>1133.447753312</ele>
        <time>2015-12-08T09:57:05Z</time>
      </trkpt>
      <trkpt lat="45.51571" lon="6.03334">
        <ele>1133.447753312</ele>
        <time>2015-12-08T09:57:10Z</time>
      </trkpt>
      <trkpt lat="45.51581" lon="6.03332">
        <ele>1133.413826019</ele>
        <time>2015-12-08T09:57:21Z</time>
      </trkpt>
      <trkpt lat="45.51586" lon="6.03331">
        <ele>1133.413826019</ele>
        <time>2015-12-08T09:57:25Z</time>
      </trkpt>
      <trkpt lat="45.51594" lon="6.03327">
        <ele>1133.024340419</ele>
        <time>2015-12-08T09:57:35Z</time>
      </trkpt>
      <trkpt lat="45.51596" lon="6.03329">
        <ele>1133.024340419</ele>
        <time>2015-12-08T09:57:40Z</time>
      </trkpt>
      <trkpt lat="45.51604" lon="6.03323">
        <ele>1132.883604191</ele>
        <time>2015-12-08T09:57:49Z</time>
      </trkpt>
      <trkpt lat="45.51609" lon="6.03322">
        <ele>1132.883604191</ele>
        <time>2015-12-08T09:57:54Z</time>
      </trkpt>
      <trkpt lat="45.51611" lon="6.03315">
        <ele>1132.398102224</ele>
        <time>2015-12-08T09:58:04Z</time>
      </trkpt>
      <trkpt lat="45.51615" lon="6.03312">
        <ele>1132.398102224</ele>
        <time>2015-12-08T09:58:11Z</time>
      </trkpt>
      <trkpt lat="45.51618" lon="6.03303">
        <ele>1132.316026515</ele>
        <time>2015-12-08T09:58:20Z</time>
      </trkpt>
      <trkpt lat="45.51616" lon="6.03296">
        <ele>1132.316026515</ele>
        <time>2015-12-08T09:58:25Z</time>
      </trkpt>
      <trkpt lat="45.51628" lon="6.03286">
        <ele>1132.032599287</ele>
        <time>2015-12-08T09:58:40Z</time>
      </trkpt>
      <trkpt lat="45.51627" lon="6.03282">
        <ele>1132.032599287</ele>
        <time>2015-12-08T09:58:45Z</time>
      </trkpt>
      <trkpt lat="45.51628" lon="6.0328">
        <ele>1132.032599287</ele>
        <time>2015-12-08T09:58:55Z</time>
      </trkpt>
      <trkpt lat="45.51628" lon="6.0328">
        <ele>1132.032599287</ele>
        <time>2015-12-08T09:59:00Z</time>
      </trkpt>
      <trkpt lat="45.5163" lon="6.03278">
        <ele>1132.032599287</ele>
        <time>2015-12-08T09:59:10Z</time>
      </trkpt>
      <trkpt lat="45.51632" lon="6.03274">
        <ele>1131.852810694</ele>
        <time>2015-12-08T09:59:15Z</time>
      </trkpt>
      <trkpt lat="45.51631" lon="6.03267">
        <ele>1131.852810694</ele>
        <time>2015-12-08T09:59:25Z</time>
      </trkpt>
      <trkpt lat="45.51631" lon="6.03266">
        <ele>1131.852810694</ele>
        <time>2015-12-08T09:59:30Z</time>
      </trkpt>
      <trkpt lat="45.51631" lon="6.03265">
        <ele>1131.852810694</ele>
        <time>2015-12-08T09:59:40Z</time>
      </trkpt>
      <trkpt lat="45.51631" lon="6.03265">
        <ele>1131.852810694</ele>
        <time>2015-12-08T09:59:45Z</time>
      </trkpt>
      <trkpt lat="45.51633" lon="6.03262">
        <ele>1131.852810694</ele>
        <time>2015-12-08T09:59:55Z</time>
      </trkpt>
      <trkpt lat="45.51636" lon="6.03262">
        <ele>1130.617937839</ele>
        <time>2015-12-08T10:00:00Z</time>
      </trkpt>
      <trkpt lat="45.51645" lon="6.03246">
        <ele>1129.851416447</ele>
        <time>2015-12-08T10:00:10Z</time>
      </trkpt>
      <trkpt lat="45.5165" lon="6.03244">
        <ele>1129.851416447</ele>
        <time>2015-12-08T10:00:15Z</time>
      </trkpt>
      <trkpt lat="45.51662" lon="6.03223">
        <ele>1129.090075492</ele>
        <time>2015-12-08T10:00:31Z</time>
      </trkpt>
      <trkpt lat="45.51672" lon="6.03206">
        <ele>1127.904800198</ele>
        <time>2015-12-08T10:00:40Z</time>
      </trkpt>
      <trkpt lat="45.5167" lon="6.03203">
        <ele>1127.904800198</ele>
        <time>2015-12-08T10:00:45Z</time>
      </trkpt>
      <trkpt lat="45.51671" lon="6.03195">
        <ele>1126.76388476</ele>
        <time>2015-12-08T10:00:50Z</time>
      </trkpt>
      <trkpt lat="45.51671" lon="6.03187">
        <ele>1126.76388476</ele>
        <time>2015-12-08T10:00:55Z</time>
      </trkpt>
      <trkpt lat="45.51673" lon="6.0318">
        <ele>1126.101114004</ele>
        <time>2015-12-08T10:00:59Z</time>
      </trkpt>
      <trkpt lat="45.51683" lon="6.0316">
        <ele>1125.308289589</ele>
        <time>2015-12-08T10:01:14Z</time>
      </trkpt>
      <trkpt lat="45.51683" lon="6.0316">
        <ele>1125.308289589</ele>
        <time>2015-12-08T10:01:19Z</time>
      </trkpt>
      <trkpt lat="45.51687" lon="6.0315">
        <ele>1125.308289589</ele>
        <time>2015-12-08T10:01:29Z</time>
      </trkpt>
      <trkpt lat="45.51687" lon="6.03148">
        <ele>1124.542801289</ele>
        <time>2015-12-08T10:01:34Z</time>
      </trkpt>
      <trkpt lat="45.51688" lon="6.03148">
        <ele>1124.542801289</ele>
        <time>2015-12-08T10:01:44Z</time>
      </trkpt>
      <trkpt lat="45.51688" lon="6.03147">
        <ele>1124.542801289</ele>
        <time>2015-12-08T10:01:49Z</time>
      </trkpt>
      <trkpt lat="45.51687" lon="6.03146">
        <ele>1124.542801289</ele>
        <time>2015-12-08T10:01:54Z</time>
      </trkpt>
      <trkpt lat="45.51688" lon="6.03146">
        <ele>1124.542801289</ele>
        <time>2015-12-08T10:02:00Z</time>
      </trkpt>
      <trkpt lat="45.51689" lon="6.03145">
        <ele>1124.542801289</ele>
        <time>2015-12-08T10:02:14Z</time>
      </trkpt>
      <trkpt lat="45.5169" lon="6.03145">
        <ele>1124.542801289</ele>
        <time>2015-12-08T10:02:19Z</time>
      </trkpt>
      <trkpt lat="45.51698" lon="6.03146">
        <ele>1123.229822594</ele>
        <time>2015-12-08T10:02:30Z</time>
      </trkpt>
      <trkpt lat="45.51698" lon="6.03146">
        <ele>1123.229822594</ele>
        <time>2015-12-08T10:02:35Z</time>
      </trkpt>
      <trkpt lat="45.51707" lon="6.03143">
        <ele>1121.270588758</ele>
        <time>2015-12-08T10:02:45Z</time>
      </trkpt>
      <trkpt lat="45.51709" lon="6.03144">
        <ele>1121.270588758</ele>
        <time>2015-12-08T10:02:50Z</time>
      </trkpt>
      <trkpt lat="45.51723" lon="6.03144">
        <ele>1119.295911833</ele>
        <time>2015-12-08T10:03:05Z</time>
      </trkpt>
      <trkpt lat="45.51725" lon="6.03144">
        <ele>1119.295911833</ele>
        <time>2015-12-08T10:03:10Z</time>
      </trkpt>
      <trkpt lat="45.51734" lon="6.03141">
        <ele>1117.169690444</ele>
        <time>2015-12-08T10:03:20Z</time>
      </trkpt>
      <trkpt lat="45.51737" lon="6.0314">
        <ele>1117.169690444</ele>
        <time>2015-12-08T10:03:25Z</time>
      </trkpt>
      <trkpt lat="45.51738" lon="6.03157">
        <ele>1115.054391156</ele>
        <time>2015-12-08T10:03:35Z</time>
      </trkpt>
      <trkpt lat="45.5174" lon="6.03167">
        <ele>1115.054391156</ele>
        <time>2015-12-08T10:03:40Z</time>
      </trkpt>
      <trkpt lat="45.5174" lon="6.03177">
        <ele>1113.532756894</ele>
        <time>2015-12-08T10:03:51Z</time>
      </trkpt>
      <trkpt lat="45.51743" lon="6.03181">
        <ele>1113.532756894</ele>
        <time>2015-12-08T10:03:55Z</time>
      </trkpt>
      <trkpt lat="45.51742" lon="6.0319">
        <ele>1112.422397814</ele>
        <time>2015-12-08T10:04:10Z</time>
      </trkpt>
      <trkpt lat="45.51742" lon="6.03194">
        <ele>1112.422397814</ele>
        <time>2015-12-08T10:04:10Z</time>
      </trkpt>
      <trkpt lat="45.51743" lon="6.03215">
        <ele>1111.12072219</ele>
        <time>2015-12-08T10:04:20Z</time>
      </trkpt>
      <trkpt lat="45.51745" lon="6.03231">
        <ele>1109.934488879</ele>
        <time>2015-12-08T10:04:26Z</time>
      </trkpt>
      <trkpt lat="45.51741" lon="6.03246">
        <ele>1109.003364646</ele>
        <time>2015-12-08T10:04:35Z</time>
      </trkpt>
      <trkpt lat="45.51742" lon="6.03254">
        <ele>1109.003364646</ele>
        <time>2015-12-08T10:04:40Z</time>
      </trkpt>
      <trkpt lat="45.51744" lon="6.03268">
        <ele>1108.167693652</ele>
        <time>2015-12-08T10:04:50Z</time>
      </trkpt>
      <trkpt lat="45.51746" lon="6.03275">
        <ele>1108.167693652</ele>
        <time>2015-12-08T10:04:55Z</time>
      </trkpt>
      <trkpt lat="45.51746" lon="6.0328">
        <ele>1108.167693652</ele>
        <time>2015-12-08T10:05:10Z</time>
      </trkpt>
      <trkpt lat="45.51746" lon="6.0328">
        <ele>1108.167693652</ele>
        <time>2015-12-08T10:05:14Z</time>
      </trkpt>
      <trkpt lat="45.51746" lon="6.0328">
        <ele>1108.167693652</ele>
        <time>2015-12-08T10:05:20Z</time>
      </trkpt>
      <trkpt lat="45.51746" lon="6.03281">
        <ele>1107.279154764</ele>
        <time>2015-12-08T10:05:25Z</time>
      </trkpt>
      <trkpt lat="45.51747" lon="6.03299">
        <ele>1105.047453613</ele>
        <time>2015-12-08T10:05:35Z</time>
      </trkpt>
      <trkpt lat="45.51748" lon="6.03306">
        <ele>1105.047453613</ele>
        <time>2015-12-08T10:05:40Z</time>
      </trkpt>
      <trkpt lat="45.51753" lon="6.03308">
        <ele>1102.586495643</ele>
        <time>2015-12-08T10:05:50Z</time>
      </trkpt>
      <trkpt lat="45.51757" lon="6.03308">
        <ele>1102.586495643</ele>
        <time>2015-12-08T10:05:55Z</time>
      </trkpt>
      <trkpt lat="45.51754" lon="6.03316">
        <ele>1099.775975885</ele>
        <time>2015-12-08T10:06:05Z</time>
      </trkpt>
      <trkpt lat="45.51755" lon="6.03323">
        <ele>1099.775975885</ele>
        <time>2015-12-08T10:06:10Z</time>
      </trkpt>
      <trkpt lat="45.51757" lon="6.03327">
        <ele>1099.775975885</ele>
        <time>2015-12-08T10:06:20Z</time>
      </trkpt>
      <trkpt lat="45.51761" lon="6.03327">
        <ele>1097.514040184</ele>
        <time>2015-12-08T10:06:25Z</time>
      </trkpt>
      <trkpt lat="45.51767" lon="6.03338">
        <ele>1095.190051563</ele>
        <time>2015-12-08T10:06:36Z</time>
      </trkpt>
      <trkpt lat="45.51765" lon="6.03337">
        <ele>1095.190051563</ele>
        <time>2015-12-08T10:06:40Z</time>
      </trkpt>
      <trkpt lat="45.51768" lon="6.03341">
        <ele>1095.190051563</ele>
        <time>2015-12-08T10:06:50Z</time>
      </trkpt>
      <trkpt lat="45.51775" lon="6.03343">
        <ele>1092.670574146</ele>
        <time>2015-12-08T10:06:55Z</time>
      </trkpt>
      <trkpt lat="45.5178" lon="6.0334">
        <ele>1092.670574146</ele>
        <time>2015-12-08T10:07:00Z</time>
      </trkpt>
      <trkpt lat="45.51792" lon="6.03345">
        <ele>1089.97646275</ele>
        <time>2015-12-08T10:07:11Z</time>
      </trkpt>
      <trkpt lat="45.51796" lon="6.03343">
        <ele>1089.97646275</ele>
        <time>2015-12-08T10:07:15Z</time>
      </trkpt>
      <trkpt lat="45.51807" lon="6.03334">
        <ele>1086.983241016</ele>
        <time>2015-12-08T10:07:25Z</time>
      </trkpt>
      <trkpt lat="45.5181" lon="6.03329">
        <ele>1086.983241016</ele>
        <time>2015-12-08T10:07:30Z</time>
      </trkpt>
      <trkpt lat="45.51819" lon="6.03323">
        <ele>1083.720341308</ele>
        <time>2015-12-08T10:07:40Z</time>
      </trkpt>
      <trkpt lat="45.51821" lon="6.0332">
        <ele>1083.720341308</ele>
        <time>2015-12-08T10:07:45Z</time>
      </trkpt>
      <trkpt lat="45.51827" lon="6.03314">
        <ele>1080.503819327</ele>
        <time>2015-12-08T10:07:55Z</time>
      </trkpt>
      <trkpt lat="45.51829" lon="6.03314">
        <ele>1080.503819327</ele>
        <time>2015-12-08T10:07:59Z</time>
      </trkpt>
      <trkpt lat="45.5183" lon="6.03314">
        <ele>1080.503819327</ele>
        <time>2015-12-08T10:08:04Z</time>
      </trkpt>
      <trkpt lat="45.51831" lon="6.03313">
        <ele>1080.503819327</ele>
        <time>2015-12-08T10:08:10Z</time>
      </trkpt>
      <trkpt lat="45.51839" lon="6.03302">
        <ele>1077.626182481</ele>
        <time>2015-12-08T10:08:24Z</time>
      </trkpt>
      <trkpt lat="45.51847" lon="6.03292">
        <ele>1074.204402181</ele>
        <time>2015-12-08T10:08:30Z</time>
      </trkpt>
      <trkpt lat="45.51859" lon="6.03285">
        <ele>1070.718628156</ele>
        <time>2015-12-08T10:08:41Z</time>
      </trkpt>
      <trkpt lat="45.51858" lon="6.03276">
        <ele>1070.718628156</ele>
        <time>2015-12-08T10:08:45Z</time>
      </trkpt>
      <trkpt lat="45.51868" lon="6.03273">
        <ele>1067.469585821</ele>
        <time>2015-12-08T10:08:55Z</time>
      </trkpt>
      <trkpt lat="45.51869" lon="6.03266">
        <ele>1067.469585821</ele>
        <time>2015-12-08T10:09:00Z</time>
      </trkpt>
      <trkpt lat="45.51873" lon="6.03261">
        <ele>1063.870351548</ele>
        <time>2015-12-08T10:09:10Z</time>
      </trkpt>
      <trkpt lat="45.51873" lon="6.03261">
        <ele>1063.870351548</ele>
        <time>2015-12-08T10:09:15Z</time>
      </trkpt>
      <trkpt lat="45.51886" lon="6.03255">
        <ele>1060.818979554</ele>
        <time>2015-12-08T10:09:25Z</time>
      </trkpt>
      <trkpt lat="45.5189" lon="6.03253">
        <ele>1060.818979554</ele>
        <time>2015-12-08T10:09:30Z</time>
      </trkpt>
      <trkpt lat="45.51896" lon="6.03243">
        <ele>1057.416447707</ele>
        <time>2015-12-08T10:09:40Z</time>
      </trkpt>
      <trkpt lat="45.51897" lon="6.0324">
        <ele>1057.416447707</ele>
        <time>2015-12-08T10:09:45Z</time>
      </trkpt>
      <trkpt lat="45.51903" lon="6.03235">
        <ele>1053.98341264</ele>
        <time>2015-12-08T10:09:55Z</time>
      </trkpt>
      <trkpt lat="45.51903" lon="6.03234">
        <ele>1053.98341264</ele>
        <time>2015-12-08T10:10:00Z</time>
      </trkpt>
      <trkpt lat="45.51909" lon="6.03218">
        <ele>1050.240377142</ele>
        <time>2015-12-08T10:10:11Z</time>
      </trkpt>
      <trkpt lat="45.51912" lon="6.03214">
        <ele>1050.240377142</ele>
        <time>2015-12-08T10:10:15Z</time>
      </trkpt>
      <trkpt lat="45.51916" lon="6.03198">
        <ele>1046.505448786</ele>
        <time>2015-12-08T10:10:25Z</time>
      </trkpt>
      <trkpt lat="45.51917" lon="6.0319">
        <ele>1046.505448786</ele>
        <time>2015-12-08T10:10:29Z</time>
      </trkpt>
      <trkpt lat="45.51919" lon="6.03187">
        <ele>1046.505448786</ele>
        <time>2015-12-08T10:10:35Z</time>
      </trkpt>
      <trkpt lat="45.51934" lon="6.03177">
        <ele>1043.649547352</ele>
        <time>2015-12-08T10:10:49Z</time>
      </trkpt>
      <trkpt lat="45.51936" lon="6.03176">
        <ele>1043.649547352</ele>
        <time>2015-12-08T10:10:54Z</time>
      </trkpt>
      <trkpt lat="45.51943" lon="6.03173">
        <ele>1041.324020114</ele>
        <time>2015-12-08T10:11:04Z</time>
      </trkpt>
      <trkpt lat="45.51951" lon="6.03173">
        <ele>1041.324020114</ele>
        <time>2015-12-08T10:11:10Z</time>
      </trkpt>
      <trkpt lat="45.51963" lon="6.03171">
        <ele>1038.195323204</ele>
        <time>2015-12-08T10:11:20Z</time>
      </trkpt>
      <trkpt lat="45.51968" lon="6.03169">
        <ele>1038.195323204</ele>
        <time>2015-12-08T10:11:25Z</time>
      </trkpt>
      <trkpt lat="45.51981" lon="6.03172">
        <ele>1035.91212039</ele>
        <time>2015-12-08T10:11:40Z</time>
      </trkpt>
      <trkpt lat="45.51985" lon="6.0317">
        <ele>1035.91212039</ele>
        <time>2015-12-08T10:11:45Z</time>
      </trkpt>
      <trkpt lat="45.51995" lon="6.03164">
        <ele>1034.270039347</ele>
        <time>2015-12-08T10:11:55Z</time>
      </trkpt>
      <trkpt lat="45.52001" lon="6.03168">
        <ele>1034.270039347</ele>
        <time>2015-12-08T10:12:00Z</time>
      </trkpt>
      <trkpt lat="45.52014" lon="6.03169">
        <ele>1032.213045641</ele>
        <time>2015-12-08T10:12:10Z</time>
      </trkpt>
      <trkpt lat="45.52022" lon="6.03168">
        <ele>1032.213045641</ele>
        <time>2015-12-08T10:12:15Z</time>
      </trkpt>
      <trkpt lat="45.52032" lon="6.03157">
        <ele>1030.781204129</ele>
        <time>2015-12-08T10:12:25Z</time>
      </trkpt>
      <trkpt lat="45.52037" lon="6.03151">
        <ele>1030.781204129</ele>
        <time>2015-12-08T10:12:30Z</time>
      </trkpt>
      <trkpt lat="45.52046" lon="6.03149">
        <ele>1029.062796048</ele>
        <time>2015-12-08T10:12:40Z</time>
      </trkpt>
      <trkpt lat="45.52048" lon="6.03144">
        <ele>1029.062796048</ele>
        <time>2015-12-08T10:12:45Z</time>
      </trkpt>
      <trkpt lat="45.52063" lon="6.03159">
        <ele>1027.510714383</ele>
        <time>2015-12-08T10:12:55Z</time>
      </trkpt>
      <trkpt lat="45.52064" lon="6.03156">
        <ele>1027.510714383</ele>
        <time>2015-12-08T10:13:00Z</time>
      </trkpt>
      <trkpt lat="45.52072" lon="6.03147">
        <ele>1027.840967901</ele>
        <time>2015-12-08T10:13:11Z</time>
      </trkpt>
      <trkpt lat="45.52074" lon="6.03141">
        <ele>1027.840967901</ele>
        <time>2015-12-08T10:13:15Z</time>
      </trkpt>
      <trkpt lat="45.52081" lon="6.0313">
        <ele>1028.179431354</ele>
        <time>2015-12-08T10:13:30Z</time>
      </trkpt>
      <trkpt lat="45.52083" lon="6.03128">
        <ele>1028.179431354</ele>
        <time>2015-12-08T10:13:35Z</time>
      </trkpt>
      <trkpt lat="45.52085" lon="6.03127">
        <ele>1028.179431354</ele>
        <time>2015-12-08T10:13:45Z</time>
      </trkpt>
      <trkpt lat="45.52085" lon="6.03127">
        <ele>1028.179431354</ele>
        <time>2015-12-08T10:13:50Z</time>
      </trkpt>
      <trkpt lat="45.52099" lon="6.03134">
        <ele>1028.230634256</ele>
        <time>2015-12-08T10:14:00Z</time>
      </trkpt>
      <trkpt lat="45.52102" lon="6.03138">
        <ele>1028.230634256</ele>
        <time>2015-12-08T10:14:05Z</time>
      </trkpt>
      <trkpt lat="45.52112" lon="6.03143">
        <ele>1029.450871804</ele>
        <time>2015-12-08T10:14:15Z</time>
      </trkpt>
      <trkpt lat="45.52115" lon="6.03146">
        <ele>1029.450871804</ele>
        <time>2015-12-08T10:14:20Z</time>
      </trkpt>
      <trkpt lat="45.52119" lon="6.03149">
        <ele>1029.450871804</ele>
        <time>2015-12-08T10:14:30Z</time>
      </trkpt>
      <trkpt lat="45.52121" lon="6.0315">
        <ele>1030.592129236</ele>
        <time>2015-12-08T10:14:36Z</time>
      </trkpt>
      <trkpt lat="45.52125" lon="6.03149">
        <ele>1030.592129236</ele>
        <time>2015-12-08T10:14:45Z</time>
      </trkpt>
      <trkpt lat="45.52128" lon="6.03151">
        <ele>1030.592129236</ele>
        <time>2015-12-08T10:14:50Z</time>
      </trkpt>
      <trkpt lat="45.52136" lon="6.03155">
        <ele>1032.227603852</ele>
        <time>2015-12-08T10:15:00Z</time>
      </trkpt>
      <trkpt lat="45.52138" lon="6.03156">
        <ele>1032.227603852</ele>
        <time>2015-12-08T10:15:07Z</time>
      </trkpt>
      <trkpt lat="45.52138" lon="6.03156">
        <ele>1032.227603852</ele>
        <time>2015-12-08T10:15:15Z</time>
      </trkpt>
      <trkpt lat="45.52138" lon="6.03156">
        <ele>1032.227603852</ele>
        <time>2015-12-08T10:15:20Z</time>
      </trkpt>
      <trkpt lat="45.52138" lon="6.03156">
        <ele>1032.227603852</ele>
        <time>2015-12-08T10:15:30Z</time>
      </trkpt>
      <trkpt lat="45.5214" lon="6.03156">
        <ele>1032.227603852</ele>
        <time>2015-12-08T10:15:35Z</time>
      </trkpt>
      <trkpt lat="45.52145" lon="6.03158">
        <ele>1034.310563231</ele>
        <time>2015-12-08T10:15:39Z</time>
      </trkpt>
      <trkpt lat="45.5215" lon="6.03159">
        <ele>1034.310563231</ele>
        <time>2015-12-08T10:15:49Z</time>
      </trkpt>
      <trkpt lat="45.5215" lon="6.0316">
        <ele>1034.310563231</ele>
        <time>2015-12-08T10:15:54Z</time>
      </trkpt>
      <trkpt lat="45.5215" lon="6.0316">
        <ele>1034.310563231</ele>
        <time>2015-12-08T10:16:04Z</time>
      </trkpt>
      <trkpt lat="45.52155" lon="6.03165">
        <ele>1036.364157882</ele>
        <time>2015-12-08T10:16:10Z</time>
      </trkpt>
      <trkpt lat="45.52164" lon="6.03175">
        <ele>1039.387831961</ele>
        <time>2015-12-08T10:16:20Z</time>
      </trkpt>
      <trkpt lat="45.52165" lon="6.03176">
        <ele>1039.387831961</ele>
        <time>2015-12-08T10:16:24Z</time>
      </trkpt>
      <trkpt lat="45.52167" lon="6.03176">
        <ele>1039.387831961</ele>
        <time>2015-12-08T10:16:29Z</time>
      </trkpt>
      <trkpt lat="45.52173" lon="6.0318">
        <ele>1042.575658372</ele>
        <time>2015-12-08T10:16:34Z</time>
      </trkpt>
      <trkpt lat="45.52173" lon="6.03182">
        <ele>1042.575658372</ele>
        <time>2015-12-08T10:16:39Z</time>
      </trkpt>
      <trkpt lat="45.52175" lon="6.03183">
        <ele>1042.575658372</ele>
        <time>2015-12-08T10:16:45Z</time>
      </trkpt>
      <trkpt lat="45.52189" lon="6.03193">
        <ele>1046.621700457</ele>
        <time>2015-12-08T10:16:56Z</time>
      </trkpt>
      <trkpt lat="45.52194" lon="6.03197">
        <ele>1046.621700457</ele>
        <time>2015-12-08T10:17:00Z</time>
      </trkpt>
      <trkpt lat="45.52204" lon="6.03212">
        <ele>1049.57279602</ele>
        <time>2015-12-08T10:17:10Z</time>
      </trkpt>
      <trkpt lat="45.52208" lon="6.03216">
        <ele>1049.57279602</ele>
        <time>2015-12-08T10:17:15Z</time>
      </trkpt>
      <trkpt lat="45.52217" lon="6.03227">
        <ele>1052.648867004</ele>
        <time>2015-12-08T10:17:30Z</time>
      </trkpt>
      <trkpt lat="45.52224" lon="6.03226">
        <ele>1052.648867004</ele>
        <time>2015-12-08T10:17:35Z</time>
      </trkpt>
      <trkpt lat="45.52235" lon="6.03229">
        <ele>1056.115431741</ele>
        <time>2015-12-08T10:17:45Z</time>
      </trkpt>
      <trkpt lat="45.52244" lon="6.03231">
        <ele>1056.115431741</ele>
        <time>2015-12-08T10:17:50Z</time>
      </trkpt>
      <trkpt lat="45.52251" lon="6.03224">
        <ele>1059.208883964</ele>
        <time>2015-12-08T10:18:00Z</time>
      </trkpt>
      <trkpt lat="45.52258" lon="6.03224">
        <ele>1059.208883964</ele>
        <time>2015-12-08T10:18:05Z</time>
      </trkpt>
      <trkpt lat="45.52265" lon="6.03222">
        <ele>1061.799477279</ele>
        <time>2015-12-08T10:18:15Z</time>
      </trkpt>
      <trkpt lat="45.52266" lon="6.03218">
        <ele>1061.799477279</ele>
        <time>2015-12-08T10:18:20Z</time>
      </trkpt>
      <trkpt lat="45.52269" lon="6.03218">
        <ele>1061.799477279</ele>
        <time>2015-12-08T10:18:30Z</time>
      </trkpt>
      <trkpt lat="45.52277" lon="6.03219">
        <ele>1064.921589474</ele>
        <time>2015-12-08T10:18:35Z</time>
      </trkpt>
      <trkpt lat="45.52293" lon="6.03218">
        <ele>1067.226651288</ele>
        <time>2015-12-08T10:18:45Z</time>
      </trkpt>
      <trkpt lat="45.523" lon="6.0322">
        <ele>1067.226651288</ele>
        <time>2015-12-08T10:18:50Z</time>
      </trkpt>
      <trkpt lat="45.52311" lon="6.03216">
        <ele>1069.773548024</ele>
        <time>2015-12-08T10:19:00Z</time>
      </trkpt>
      <trkpt lat="45.52314" lon="6.03215">
        <ele>1069.773548024</ele>
        <time>2015-12-08T10:19:05Z</time>
      </trkpt>
      <trkpt lat="45.52326" lon="6.03206">
        <ele>1072.678362278</ele>
        <time>2015-12-08T10:19:15Z</time>
      </trkpt>
      <trkpt lat="45.5233" lon="6.03204">
        <ele>1072.678362278</ele>
        <time>2015-12-08T10:19:20Z</time>
      </trkpt>
      <trkpt lat="45.5234" lon="6.032">
        <ele>1075.759758465</ele>
        <time>2015-12-08T10:19:31Z</time>
      </trkpt>
      <trkpt lat="45.52343" lon="6.03197">
        <ele>1075.759758465</ele>
        <time>2015-12-08T10:19:35Z</time>
      </trkpt>
      <trkpt lat="45.52349" lon="6.03193">
        <ele>1077.984900038</ele>
        <time>2015-12-08T10:19:44Z</time>
      </trkpt>
      <trkpt lat="45.52354" lon="6.03195">
        <ele>1077.984900038</ele>
        <time>2015-12-08T10:19:49Z</time>
      </trkpt>
      <trkpt lat="45.52359" lon="6.03192">
        <ele>1079.696568127</ele>
        <time>2015-12-08T10:19:54Z</time>
      </trkpt>
      <trkpt lat="45.5236" lon="6.03192">
        <ele>1079.696568127</ele>
        <time>2015-12-08T10:20:00Z</time>
      </trkpt>
      <trkpt lat="45.5236" lon="6.03192">
        <ele>1079.696568127</ele>
        <time>2015-12-08T10:20:05Z</time>
      </trkpt>
      <trkpt lat="45.5236" lon="6.03191">
        <ele>1079.696568127</ele>
        <time>2015-12-08T10:20:10Z</time>
      </trkpt>
      <trkpt lat="45.52362" lon="6.03189">
        <ele>1079.696568127</ele>
        <time>2015-12-08T10:20:15Z</time>
      </trkpt>
      <trkpt lat="45.52363" lon="6.03187">
        <ele>1079.696568127</ele>
        <time>2015-12-08T10:20:20Z</time>
      </trkpt>
      <trkpt lat="45.52364" lon="6.03185">
        <ele>1079.696568127</ele>
        <time>2015-12-08T10:20:28Z</time>
      </trkpt>
      <trkpt lat="45.52364" lon="6.03185">
        <ele>1079.696568127</ele>
        <time>2015-12-08T10:20:29Z</time>
      </trkpt>
      <trkpt lat="45.52368" lon="6.03181">
        <ele>1081.502369963</ele>
        <time>2015-12-08T10:20:35Z</time>
      </trkpt>
      <trkpt lat="45.5237" lon="6.03183">
        <ele>1081.502369963</ele>
        <time>2015-12-08T10:20:40Z</time>
      </trkpt>
      <trkpt lat="45.5237" lon="6.03182">
        <ele>1081.502369963</ele>
        <time>2015-12-08T10:20:45Z</time>
      </trkpt>
      <trkpt lat="45.5237" lon="6.03182">
        <ele>1081.502369963</ele>
        <time>2015-12-08T10:20:50Z</time>
      </trkpt>
      <trkpt lat="45.5237" lon="6.03182">
        <ele>1081.502369963</ele>
        <time>2015-12-08T10:20:55Z</time>
      </trkpt>
      <trkpt lat="45.52373" lon="6.03177">
        <ele>1081.502369963</ele>
        <time>2015-12-08T10:21:00Z</time>
      </trkpt>
      <trkpt lat="45.52377" lon="6.03165">
        <ele>1083.533021746</ele>
        <time>2015-12-08T10:21:10Z</time>
      </trkpt>
      <trkpt lat="45.52378" lon="6.03163">
        <ele>1083.533021746</ele>
        <time>2015-12-08T10:21:15Z</time>
      </trkpt>
      <trkpt lat="45.52378" lon="6.03163">
        <ele>1083.533021746</ele>
        <time>2015-12-08T10:21:21Z</time>
      </trkpt>
      <trkpt lat="45.52379" lon="6.03159">
        <ele>1083.533021746</ele>
        <time>2015-12-08T10:21:25Z</time>
      </trkpt>
      <trkpt lat="45.52381" lon="6.03156">
        <ele>1083.533021746</ele>
        <time>2015-12-08T10:21:31Z</time>
      </trkpt>
      <trkpt lat="45.52383" lon="6.03149">
        <ele>1086.918122782</ele>
        <time>2015-12-08T10:21:35Z</time>
      </trkpt>
      <trkpt lat="45.52384" lon="6.0315">
        <ele>1086.918122782</ele>
        <time>2015-12-08T10:21:40Z</time>
      </trkpt>
      <trkpt lat="45.52384" lon="6.0315">
        <ele>1086.918122782</ele>
        <time>2015-12-08T10:21:46Z</time>
      </trkpt>
      <trkpt lat="45.52386" lon="6.03152">
        <ele>1086.918122782</ele>
        <time>2015-12-08T10:21:50Z</time>
      </trkpt>
      <trkpt lat="45.52386" lon="6.03151">
        <ele>1086.918122782</ele>
        <time>2015-12-08T10:21:55Z</time>
      </trkpt>
      <trkpt lat="45.52386" lon="6.03151">
        <ele>1086.918122782</ele>
        <time>2015-12-08T10:21:59Z</time>
      </trkpt>
      <trkpt lat="45.52385" lon="6.0315">
        <ele>1086.918122782</ele>
        <time>2015-12-08T10:22:04Z</time>
      </trkpt>
      <trkpt lat="45.52385" lon="6.03151">
        <ele>1086.918122782</ele>
        <time>2015-12-08T10:22:09Z</time>
      </trkpt>
      <trkpt lat="45.52385" lon="6.03151">
        <ele>1086.918122782</ele>
        <time>2015-12-08T10:22:14Z</time>
      </trkpt>
      <trkpt lat="45.52385" lon="6.03151">
        <ele>1086.918122782</ele>
        <time>2015-12-08T10:22:19Z</time>
      </trkpt>
      <trkpt lat="45.52385" lon="6.03149">
        <ele>1091.115607686</ele>
        <time>2015-12-08T10:22:25Z</time>
      </trkpt>
      <trkpt lat="45.52384" lon="6.03145">
        <ele>1091.115607686</ele>
        <time>2015-12-08T10:22:30Z</time>
      </trkpt>
      <trkpt lat="45.52383" lon="6.03145">
        <ele>1091.115607686</ele>
        <time>2015-12-08T10:22:34Z</time>
      </trkpt>
      <trkpt lat="45.52383" lon="6.03144">
        <ele>1091.115607686</ele>
        <time>2015-12-08T10:22:39Z</time>
      </trkpt>
      <trkpt lat="45.52383" lon="6.03144">
        <ele>1091.115607686</ele>
        <time>2015-12-08T10:22:45Z</time>
      </trkpt>
      <trkpt lat="45.52382" lon="6.03141">
        <ele>1091.115607686</ele>
        <time>2015-12-08T10:22:49Z</time>
      </trkpt>
      <trkpt lat="45.52382" lon="6.03137">
        <ele>1095.333069967</ele>
        <time>2015-12-08T10:22:55Z</time>
      </trkpt>
      <trkpt lat="45.52381" lon="6.03137">
        <ele>1095.333069967</ele>
        <time>2015-12-08T10:23:00Z</time>
      </trkpt>
      <trkpt lat="45.5238" lon="6.03139">
        <ele>1095.333069967</ele>
        <time>2015-12-08T10:23:05Z</time>
      </trkpt>
      <trkpt lat="45.52378" lon="6.03137">
        <ele>1095.333069967</ele>
        <time>2015-12-08T10:23:10Z</time>
      </trkpt>
      <trkpt lat="45.52376" lon="6.03136">
        <ele>1095.333069967</ele>
        <time>2015-12-08T10:23:15Z</time>
      </trkpt>
      <trkpt lat="45.52376" lon="6.03136">
        <ele>1095.333069967</ele>
        <time>2015-12-08T10:23:20Z</time>
      </trkpt>
      <trkpt lat="45.52376" lon="6.03135">
        <ele>1095.333069967</ele>
        <time>2015-12-08T10:23:25Z</time>
      </trkpt>
      <trkpt lat="45.52376" lon="6.03135">
        <ele>1095.333069967</ele>
        <time>2015-12-08T10:23:30Z</time>
      </trkpt>
      <trkpt lat="45.52376" lon="6.03135">
        <ele>1095.333069967</ele>
        <time>2015-12-08T10:23:35Z</time>
      </trkpt>
      <trkpt lat="45.52376" lon="6.03134">
        <ele>1095.333069967</ele>
        <time>2015-12-08T10:23:40Z</time>
      </trkpt>
      <trkpt lat="45.52376" lon="6.03134">
        <ele>1095.333069967</ele>
        <time>2015-12-08T10:23:44Z</time>
      </trkpt>
      <trkpt lat="45.52376" lon="6.03134">
        <ele>1095.333069967</ele>
        <time>2015-12-08T10:23:49Z</time>
      </trkpt>
      <trkpt lat="45.52376" lon="6.03134">
        <ele>1095.333069967</ele>
        <time>2015-12-08T10:23:54Z</time>
      </trkpt>
      <trkpt lat="45.52376" lon="6.03134">
        <ele>1095.333069967</ele>
        <time>2015-12-08T10:23:59Z</time>
      </trkpt>
      <trkpt lat="45.52376" lon="6.03134">
        <ele>1095.333069967</ele>
        <time>2015-12-08T10:24:04Z</time>
      </trkpt>
      <trkpt lat="45.52376" lon="6.03134">
        <ele>1095.333069967</ele>
        <time>2015-12-08T10:24:09Z</time>
      </trkpt>
      <trkpt lat="45.52376" lon="6.03134">
        <ele>1095.333069967</ele>
        <time>2015-12-08T10:24:14Z</time>
      </trkpt>
      <trkpt lat="45.52376" lon="6.03134">
        <ele>1095.333069967</ele>
        <time>2015-12-08T10:24:19Z</time>
      </trkpt>
      <trkpt lat="45.52376" lon="6.03134">
        <ele>1095.333069967</ele>
        <time>2015-12-08T10:24:24Z</time>
      </trkpt>
      <trkpt lat="45.52376" lon="6.03133">
        <ele>1099.701270847</ele>
        <time>2015-12-08T10:24:29Z</time>
      </trkpt>
      <trkpt lat="45.52376" lon="6.03132">
        <ele>1099.701270847</ele>
        <time>2015-12-08T10:24:34Z</time>
      </trkpt>
      <trkpt lat="45.52376" lon="6.0313">
        <ele>1099.701270847</ele>
        <time>2015-12-08T10:24:39Z</time>
      </trkpt>
      <trkpt lat="45.52376" lon="6.0313">
        <ele>1099.701270847</ele>
        <time>2015-12-08T10:24:44Z</time>
      </trkpt>
      <trkpt lat="45.52376" lon="6.0313">
        <ele>1099.701270847</ele>
        <time>2015-12-08T10:24:49Z</time>
      </trkpt>
      <trkpt lat="45.52374" lon="6.03129">
        <ele>1099.701270847</ele>
        <time>2015-12-08T10:24:54Z</time>
      </trkpt>
      <trkpt lat="45.52373" lon="6.03129">
        <ele>1099.701270847</ele>
        <time>2015-12-08T10:24:59Z</time>
      </trkpt>
      <trkpt lat="45.52373" lon="6.03129">
        <ele>1099.701270847</ele>
        <time>2015-12-08T10:25:04Z</time>
      </trkpt>
      <trkpt lat="45.52373" lon="6.03129">
        <ele>1099.701270847</ele>
        <time>2015-12-08T10:25:09Z</time>
      </trkpt>
      <trkpt lat="45.5237" lon="6.03131">
        <ele>1103.764853679</ele>
        <time>2015-12-08T10:25:14Z</time>
      </trkpt>
      <trkpt lat="45.52368" lon="6.03133">
        <ele>1103.764853679</ele>
        <time>2015-12-08T10:25:21Z</time>
      </trkpt>
      <trkpt lat="45.52366" lon="6.03135">
        <ele>1103.764853679</ele>
        <time>2015-12-08T10:25:24Z</time>
      </trkpt>
      <trkpt lat="45.52364" lon="6.03133">
        <ele>1103.764853679</ele>
        <time>2015-12-08T10:25:30Z</time>
      </trkpt>
      <trkpt lat="45.52363" lon="6.03133">
        <ele>1103.764853679</ele>
        <time>2015-12-08T10:25:34Z</time>
      </trkpt>
      <trkpt lat="45.52362" lon="6.03133">
        <ele>1103.764853679</ele>
        <time>2015-12-08T10:25:39Z</time>
      </trkpt>
      <trkpt lat="45.5236" lon="6.03134">
        <ele>1108.111908147</ele>
        <time>2015-12-08T10:25:45Z</time>
      </trkpt>
      <trkpt lat="45.52357" lon="6.03134">
        <ele>1108.111908147</ele>
        <time>2015-12-08T10:25:51Z</time>
      </trkpt>
      <trkpt lat="45.52354" lon="6.03133">
        <ele>1108.111908147</ele>
        <time>2015-12-08T10:25:55Z</time>
      </trkpt>
      <trkpt lat="45.52352" lon="6.03134">
        <ele>1108.111908147</ele>
        <time>2015-12-08T10:26:00Z</time>
      </trkpt>
      <trkpt lat="45.52349" lon="6.03135">
        <ele>1113.431010702</ele>
        <time>2015-12-08T10:26:05Z</time>
      </trkpt>
      <trkpt lat="45.52349" lon="6.03135">
        <ele>1113.431010702</ele>
        <time>2015-12-08T10:26:10Z</time>
      </trkpt>
      <trkpt lat="45.52349" lon="6.03134">
        <ele>1113.431010702</ele>
        <time>2015-12-08T10:26:15Z</time>
      </trkpt>
      <trkpt lat="45.52349" lon="6.03134">
        <ele>1113.431010702</ele>
        <time>2015-12-08T10:26:20Z</time>
      </trkpt>
      <trkpt lat="45.52349" lon="6.03134">
        <ele>1113.431010702</ele>
        <time>2015-12-08T10:26:25Z</time>
      </trkpt>
      <trkpt lat="45.52348" lon="6.03132">
        <ele>1113.431010702</ele>
        <time>2015-12-08T10:26:30Z</time>
      </trkpt>
      <trkpt lat="45.52347" lon="6.03128">
        <ele>1113.431010702</ele>
        <time>2015-12-08T10:26:35Z</time>
      </trkpt>
      <trkpt lat="45.52345" lon="6.03123">
        <ele>1118.484362288</ele>
        <time>2015-12-08T10:26:40Z</time>
      </trkpt>
      <trkpt lat="45.52343" lon="6.03123">
        <ele>1118.484362288</ele>
        <time>2015-12-08T10:26:45Z</time>
      </trkpt>
      <trkpt lat="45.52343" lon="6.03121">
        <ele>1118.484362288</ele>
        <time>2015-12-08T10:26:50Z</time>
      </trkpt>
      <trkpt lat="45.52342" lon="6.03117">
        <ele>1118.484362288</ele>
        <time>2015-12-08T10:26:55Z</time>
      </trkpt>
      <trkpt lat="45.52342" lon="6.03114">
        <ele>1118.484362288</ele>
        <time>2015-12-08T10:27:00Z</time>
      </trkpt>
      <trkpt lat="45.52341" lon="6.03113">
        <ele>1123.711446957</ele>
        <time>2015-12-08T10:27:05Z</time>
      </trkpt>
      <trkpt lat="45.5234" lon="6.03112">
        <ele>1123.711446957</ele>
        <time>2015-12-08T10:27:10Z</time>
      </trkpt>
      <trkpt lat="45.52339" lon="6.03111">
        <ele>1123.711446957</ele>
        <time>2015-12-08T10:27:15Z</time>
      </trkpt>
      <trkpt lat="45.52339" lon="6.03108">
        <ele>1123.711446957</ele>
        <time>2015-12-08T10:27:20Z</time>
      </trkpt>
      <trkpt lat="45.52338" lon="6.03109">
        <ele>1123.711446957</ele>
        <time>2015-12-08T10:27:25Z</time>
      </trkpt>
      <trkpt lat="45.52338" lon="6.03109">
        <ele>1123.711446957</ele>
        <time>2015-12-08T10:27:30Z</time>
      </trkpt>
      <trkpt lat="45.52336" lon="6.03108">
        <ele>1123.711446957</ele>
        <time>2015-12-08T10:27:35Z</time>
      </trkpt>
      <trkpt lat="45.52335" lon="6.03104">
        <ele>1129.087038727</ele>
        <time>2015-12-08T10:27:40Z</time>
      </trkpt>
      <trkpt lat="45.52332" lon="6.03104">
        <ele>1129.087038727</ele>
        <time>2015-12-08T10:27:45Z</time>
      </trkpt>
      <trkpt lat="45.52332" lon="6.031">
        <ele>1129.087038727</ele>
        <time>2015-12-08T10:27:50Z</time>
      </trkpt>
      <trkpt lat="45.52331" lon="6.03097">
        <ele>1129.087038727</ele>
        <time>2015-12-08T10:27:55Z</time>
      </trkpt>
      <trkpt lat="45.52329" lon="6.03095">
        <ele>1134.011305554</ele>
        <time>2015-12-08T10:28:00Z</time>
      </trkpt>
      <trkpt lat="45.52328" lon="6.03096">
        <ele>1134.011305554</ele>
        <time>2015-12-08T10:28:05Z</time>
      </trkpt>
      <trkpt lat="45.52328" lon="6.03096">
        <ele>1134.011305554</ele>
        <time>2015-12-08T10:28:10Z</time>
      </trkpt>
      <trkpt lat="45.52324" lon="6.03096">
        <ele>1134.011305554</ele>
        <time>2015-12-08T10:28:15Z</time>
      </trkpt>
      <trkpt lat="45.52322" lon="6.03094">
        <ele>1134.011305554</ele>
        <time>2015-12-08T10:28:20Z</time>
      </trkpt>
      <trkpt lat="45.52321" lon="6.03093">
        <ele>1138.794818653</ele>
        <time>2015-12-08T10:28:25Z</time>
      </trkpt>
      <trkpt lat="45.5232" lon="6.03093">
        <ele>1138.794818653</ele>
        <time>2015-12-08T10:28:31Z</time>
      </trkpt>
      <trkpt lat="45.5232" lon="6.03093">
        <ele>1138.794818653</ele>
        <time>2015-12-08T10:28:34Z</time>
      </trkpt>
      <trkpt lat="45.5232" lon="6.03093">
        <ele>1138.794818653</ele>
        <time>2015-12-08T10:28:40Z</time>
      </trkpt>
      <trkpt lat="45.52318" lon="6.03093">
        <ele>1138.794818653</ele>
        <time>2015-12-08T10:28:44Z</time>
      </trkpt>
      <trkpt lat="45.52317" lon="6.03093">
        <ele>1138.794818653</ele>
        <time>2015-12-08T10:28:50Z</time>
      </trkpt>
      <trkpt lat="45.52312" lon="6.03089">
        <ele>1144.014362213</ele>
        <time>2015-12-08T10:28:55Z</time>
      </trkpt>
      <trkpt lat="45.52311" lon="6.03089">
        <ele>1144.014362213</ele>
        <time>2015-12-08T10:29:00Z</time>
      </trkpt>
      <trkpt lat="45.5231" lon="6.03088">
        <ele>1144.014362213</ele>
        <time>2015-12-08T10:29:05Z</time>
      </trkpt>
      <trkpt lat="45.5231" lon="6.03088">
        <ele>1144.014362213</ele>
        <time>2015-12-08T10:29:10Z</time>
      </trkpt>
      <trkpt lat="45.52306" lon="6.03086">
        <ele>1144.014362213</ele>
        <time>2015-12-08T10:29:15Z</time>
      </trkpt>
      <trkpt lat="45.52301" lon="6.03086">
        <ele>1148.906537507</ele>
        <time>2015-12-08T10:29:20Z</time>
      </trkpt>
      <trkpt lat="45.52298" lon="6.03082">
        <ele>1148.906537507</ele>
        <time>2015-12-08T10:29:25Z</time>
      </trkpt>
      <trkpt lat="45.52296" lon="6.0308">
        <ele>1148.906537507</ele>
        <time>2015-12-08T10:29:30Z</time>
      </trkpt>
      <trkpt lat="45.52294" lon="6.03076">
        <ele>1153.053574143</ele>
        <time>2015-12-08T10:29:35Z</time>
      </trkpt>
      <trkpt lat="45.52292" lon="6.03068">
        <ele>1153.053574143</ele>
        <time>2015-12-08T10:29:40Z</time>
      </trkpt>
      <trkpt lat="45.52292" lon="6.03069">
        <ele>1153.053574143</ele>
        <time>2015-12-08T10:29:44Z</time>
      </trkpt>
      <trkpt lat="45.52292" lon="6.03067">
        <ele>1153.053574143</ele>
        <time>2015-12-08T10:29:50Z</time>
      </trkpt>
      <trkpt lat="45.52292" lon="6.03066">
        <ele>1153.053574143</ele>
        <time>2015-12-08T10:29:55Z</time>
      </trkpt>
      <trkpt lat="45.52293" lon="6.03062">
        <ele>1156.7914409</ele>
        <time>2015-12-08T10:29:59Z</time>
      </trkpt>
      <trkpt lat="45.52292" lon="6.03057">
        <ele>1156.7914409</ele>
        <time>2015-12-08T10:30:05Z</time>
      </trkpt>
      <trkpt lat="45.52291" lon="6.03055">
        <ele>1156.7914409</ele>
        <time>2015-12-08T10:30:11Z</time>
      </trkpt>
      <trkpt lat="45.52291" lon="6.03054">
        <ele>1156.7914409</ele>
        <time>2015-12-08T10:30:15Z</time>
      </trkpt>
      <trkpt lat="45.52291" lon="6.03053">
        <ele>1156.7914409</ele>
        <time>2015-12-08T10:30:20Z</time>
      </trkpt>
      <trkpt lat="45.52293" lon="6.03046">
        <ele>1160.43297005</ele>
        <time>2015-12-08T10:30:25Z</time>
      </trkpt>
      <trkpt lat="45.52295" lon="6.03042">
        <ele>1160.43297005</ele>
        <time>2015-12-08T10:30:30Z</time>
      </trkpt>
      <trkpt lat="45.52297" lon="6.03037">
        <ele>1160.43297005</ele>
        <time>2015-12-08T10:30:35Z</time>
      </trkpt>
      <trkpt lat="45.52298" lon="6.03036">
        <ele>1160.43297005</ele>
        <time>2015-12-08T10:30:39Z</time>
      </trkpt>
      <trkpt lat="45.52299" lon="6.03036">
        <ele>1163.980445261</ele>
        <time>2015-12-08T10:30:45Z</time>
      </trkpt>
      <trkpt lat="45.52303" lon="6.03033">
        <ele>1163.980445261</ele>
        <time>2015-12-08T10:30:50Z</time>
      </trkpt>
      <trkpt lat="45.52307" lon="6.03037">
        <ele>1163.980445261</ele>
        <time>2015-12-08T10:30:55Z</time>
      </trkpt>
      <trkpt lat="45.5231" lon="6.03034">
        <ele>1166.716058817</ele>
        <time>2015-12-08T10:31:00Z</time>
      </trkpt>
      <trkpt lat="45.52314" lon="6.0303">
        <ele>1166.716058817</ele>
        <time>2015-12-08T10:31:05Z</time>
      </trkpt>
      <trkpt lat="45.52316" lon="6.03024">
        <ele>1168.84202699</ele>
        <time>2015-12-08T10:31:10Z</time>
      </trkpt>
      <trkpt lat="45.52322" lon="6.03023">
        <ele>1168.84202699</ele>
        <time>2015-12-08T10:31:15Z</time>
      </trkpt>
      <trkpt lat="45.52329" lon="6.03018">
        <ele>1170.980083806</ele>
        <time>2015-12-08T10:31:20Z</time>
      </trkpt>
      <trkpt lat="45.52332" lon="6.03015">
        <ele>1170.980083806</ele>
        <time>2015-12-08T10:31:25Z</time>
      </trkpt>
      <trkpt lat="45.52335" lon="6.03015">
        <ele>1170.980083806</ele>
        <time>2015-12-08T10:31:30Z</time>
      </trkpt>
      <trkpt lat="45.52342" lon="6.03015">
        <ele>1172.121337896</ele>
        <time>2015-12-08T10:31:35Z</time>
      </trkpt>
      <trkpt lat="45.52343" lon="6.03015">
        <ele>1172.121337896</ele>
        <time>2015-12-08T10:31:40Z</time>
      </trkpt>
      <trkpt lat="45.52348" lon="6.03013">
        <ele>1172.121337896</ele>
        <time>2015-12-08T10:31:45Z</time>
      </trkpt>
      <trkpt lat="45.52351" lon="6.03012">
        <ele>1174.072196144</ele>
        <time>2015-12-08T10:31:50Z</time>
      </trkpt>
      <trkpt lat="45.52353" lon="6.03009">
        <ele>1174.072196144</ele>
        <time>2015-12-08T10:31:55Z</time>
      </trkpt>
      <trkpt lat="45.52356" lon="6.03005">
        <ele>1174.072196144</ele>
        <time>2015-12-08T10:32:00Z</time>
      </trkpt>
      <trkpt lat="45.52359" lon="6.03001">
        <ele>1176.054457126</ele>
        <time>2015-12-08T10:32:05Z</time>
      </trkpt>
      <trkpt lat="45.52359" lon="6.03001">
        <ele>1176.054457126</ele>
        <time>2015-12-08T10:32:10Z</time>
      </trkpt>
      <trkpt lat="45.5236" lon="6.03">
        <ele>1176.054457126</ele>
        <time>2015-12-08T10:32:15Z</time>
      </trkpt>
      <trkpt lat="45.5236" lon="6.03">
        <ele>1176.054457126</ele>
        <time>2015-12-08T10:32:20Z</time>
      </trkpt>
      <trkpt lat="45.5236" lon="6.03">
        <ele>1176.054457126</ele>
        <time>2015-12-08T10:32:25Z</time>
      </trkpt>
      <trkpt lat="45.5236" lon="6.02999">
        <ele>1176.054457126</ele>
        <time>2015-12-08T10:32:30Z</time>
      </trkpt>
      <trkpt lat="45.5236" lon="6.02999">
        <ele>1176.054457126</ele>
        <time>2015-12-08T10:32:36Z</time>
      </trkpt>
      <trkpt lat="45.52364" lon="6.03001">
        <ele>1176.054457126</ele>
        <time>2015-12-08T10:32:39Z</time>
      </trkpt>
      <trkpt lat="45.52368" lon="6.03003">
        <ele>1178.067777837</ele>
        <time>2015-12-08T10:32:45Z</time>
      </trkpt>
      <trkpt lat="45.52369" lon="6.03004">
        <ele>1178.067777837</ele>
        <time>2015-12-08T10:32:49Z</time>
      </trkpt>
      <trkpt lat="45.5237" lon="6.03006">
        <ele>1178.067777837</ele>
        <time>2015-12-08T10:32:55Z</time>
      </trkpt>
      <trkpt lat="45.5237" lon="6.03006">
        <ele>1178.067777837</ele>
        <time>2015-12-08T10:32:59Z</time>
      </trkpt>
      <trkpt lat="45.5237" lon="6.03006">
        <ele>1178.067777837</ele>
        <time>2015-12-08T10:33:05Z</time>
      </trkpt>
      <trkpt lat="45.52371" lon="6.03007">
        <ele>1178.067777837</ele>
        <time>2015-12-08T10:33:10Z</time>
      </trkpt>
      <trkpt lat="45.52375" lon="6.03009">
        <ele>1178.067777837</ele>
        <time>2015-12-08T10:33:15Z</time>
      </trkpt>
      <trkpt lat="45.52376" lon="6.03009">
        <ele>1178.067777837</ele>
        <time>2015-12-08T10:33:20Z</time>
      </trkpt>
      <trkpt lat="45.52377" lon="6.0301">
        <ele>1180.111953685</ele>
        <time>2015-12-08T10:33:25Z</time>
      </trkpt>
      <trkpt lat="45.52379" lon="6.03009">
        <ele>1180.111953685</ele>
        <time>2015-12-08T10:33:30Z</time>
      </trkpt>
      <trkpt lat="45.52383" lon="6.03008">
        <ele>1180.111953685</ele>
        <time>2015-12-08T10:33:35Z</time>
      </trkpt>
      <trkpt lat="45.52385" lon="6.03008">
        <ele>1180.111953685</ele>
        <time>2015-12-08T10:33:40Z</time>
      </trkpt>
      <trkpt lat="45.52386" lon="6.03007">
        <ele>1182.763333006</ele>
        <time>2015-12-08T10:33:45Z</time>
      </trkpt>
      <trkpt lat="45.5239" lon="6.03008">
        <ele>1182.763333006</ele>
        <time>2015-12-08T10:33:50Z</time>
      </trkpt>
      <trkpt lat="45.52391" lon="6.03006">
        <ele>1182.763333006</ele>
        <time>2015-12-08T10:33:54Z</time>
      </trkpt>
      <trkpt lat="45.52393" lon="6.03005">
        <ele>1182.763333006</ele>
        <time>2015-12-08T10:34:00Z</time>
      </trkpt>
      <trkpt lat="45.52397" lon="6.03003">
        <ele>1185.833828672</ele>
        <time>2015-12-08T10:34:05Z</time>
      </trkpt>
      <trkpt lat="45.52399" lon="6.02998">
        <ele>1185.833828672</ele>
        <time>2015-12-08T10:34:10Z</time>
      </trkpt>
      <trkpt lat="45.52401" lon="6.02995">
        <ele>1185.833828672</ele>
        <time>2015-12-08T10:34:15Z</time>
      </trkpt>
      <trkpt lat="45.52405" lon="6.02994">
        <ele>1188.283473429</ele>
        <time>2015-12-08T10:34:20Z</time>
      </trkpt>
      <trkpt lat="45.52408" lon="6.02995">
        <ele>1188.283473429</ele>
        <time>2015-12-08T10:34:24Z</time>
      </trkpt>
      <trkpt lat="45.52411" lon="6.02994">
        <ele>1188.283473429</ele>
        <time>2015-12-08T10:34:29Z</time>
      </trkpt>
      <trkpt lat="45.52413" lon="6.02995">
        <ele>1188.283473429</ele>
        <time>2015-12-08T10:34:34Z</time>
      </trkpt>
      <trkpt lat="45.52414" lon="6.02995">
        <ele>1190.303457458</ele>
        <time>2015-12-08T10:34:40Z</time>
      </trkpt>
      <trkpt lat="45.52414" lon="6.02994">
        <ele>1190.303457458</ele>
        <time>2015-12-08T10:34:45Z</time>
      </trkpt>
      <trkpt lat="45.52422" lon="6.02986">
        <ele>1192.504582151</ele>
        <time>2015-12-08T10:34:55Z</time>
      </trkpt>
      <trkpt lat="45.52425" lon="6.02982">
        <ele>1192.504582151</ele>
        <time>2015-12-08T10:35:00Z</time>
      </trkpt>
      <trkpt lat="45.52434" lon="6.02981">
        <ele>1194.155372744</ele>
        <time>2015-12-08T10:35:10Z</time>
      </trkpt>
      <trkpt lat="45.52439" lon="6.02985">
        <ele>1194.155372744</ele>
        <time>2015-12-08T10:35:15Z</time>
      </trkpt>
      <trkpt lat="45.52444" lon="6.02983">
        <ele>1195.300271895</ele>
        <time>2015-12-08T10:35:25Z</time>
      </trkpt>
      <trkpt lat="45.52449" lon="6.02981">
        <ele>1195.300271895</ele>
        <time>2015-12-08T10:35:30Z</time>
      </trkpt>
      <trkpt lat="45.52453" lon="6.02985">
        <ele>1196.126052832</ele>
        <time>2015-12-08T10:35:40Z</time>
      </trkpt>
      <trkpt lat="45.52457" lon="6.0298">
        <ele>1196.126052832</ele>
        <time>2015-12-08T10:35:45Z</time>
      </trkpt>
      <trkpt lat="45.52471" lon="6.02979">
        <ele>1197.671376828</ele>
        <time>2015-12-08T10:35:55Z</time>
      </trkpt>
      <trkpt lat="45.52475" lon="6.02979">
        <ele>1197.671376828</ele>
        <time>2015-12-08T10:36:00Z</time>
      </trkpt>
      <trkpt lat="45.52484" lon="6.02976">
        <ele>1198.734945884</ele>
        <time>2015-12-08T10:36:10Z</time>
      </trkpt>
      <trkpt lat="45.52489" lon="6.02973">
        <ele>1198.734945884</ele>
        <time>2015-12-08T10:36:15Z</time>
      </trkpt>
      <trkpt lat="45.52497" lon="6.02963">
        <ele>1199.646178799</ele>
        <time>2015-12-08T10:36:25Z</time>
      </trkpt>
      <trkpt lat="45.52502" lon="6.02966">
        <ele>1199.646178799</ele>
        <time>2015-12-08T10:36:30Z</time>
      </trkpt>
      <trkpt lat="45.5251" lon="6.02959">
        <ele>1200.422489316</ele>
        <time>2015-12-08T10:36:40Z</time>
      </trkpt>
      <trkpt lat="45.52512" lon="6.02957">
        <ele>1200.422489316</ele>
        <time>2015-12-08T10:36:45Z</time>
      </trkpt>
      <trkpt lat="45.52516" lon="6.02955">
        <ele>1200.422489316</ele>
        <time>2015-12-08T10:36:50Z</time>
      </trkpt>
      <trkpt lat="45.52522" lon="6.02956">
        <ele>1201.080361879</ele>
        <time>2015-12-08T10:36:59Z</time>
      </trkpt>
      <trkpt lat="45.52528" lon="6.02955">
        <ele>1201.080361879</ele>
        <time>2015-12-08T10:37:04Z</time>
      </trkpt>
      <trkpt lat="45.52537" lon="6.02957">
        <ele>1200.914798972</ele>
        <time>2015-12-08T10:37:15Z</time>
      </trkpt>
      <trkpt lat="45.52545" lon="6.02958">
        <ele>1200.914798972</ele>
        <time>2015-12-08T10:37:20Z</time>
      </trkpt>
      <trkpt lat="45.52551" lon="6.02952">
        <ele>1200.427723998</ele>
        <time>2015-12-08T10:37:30Z</time>
      </trkpt>
      <trkpt lat="45.52552" lon="6.02952">
        <ele>1200.427723998</ele>
        <time>2015-12-08T10:37:35Z</time>
      </trkpt>
      <trkpt lat="45.52552" lon="6.02952">
        <ele>1200.427723998</ele>
        <time>2015-12-08T10:37:40Z</time>
      </trkpt>
      <trkpt lat="45.52562" lon="6.02937">
        <ele>1200.661449633</ele>
        <time>2015-12-08T10:37:50Z</time>
      </trkpt>
      <trkpt lat="45.52566" lon="6.02933">
        <ele>1200.661449633</ele>
        <time>2015-12-08T10:37:55Z</time>
      </trkpt>
      <trkpt lat="45.5257" lon="6.02918">
        <ele>1201.282593647</ele>
        <time>2015-12-08T10:38:07Z</time>
      </trkpt>
      <trkpt lat="45.52579" lon="6.02924">
        <ele>1201.692833303</ele>
        <time>2015-12-08T10:38:10Z</time>
      </trkpt>
      <trkpt lat="45.52583" lon="6.02916">
        <ele>1201.692833303</ele>
        <time>2015-12-08T10:38:20Z</time>
      </trkpt>
      <trkpt lat="45.52587" lon="6.02914">
        <ele>1202.202922121</ele>
        <time>2015-12-08T10:38:25Z</time>
      </trkpt>
      <trkpt lat="45.52588" lon="6.02917">
        <ele>1202.202922121</ele>
        <time>2015-12-08T10:38:35Z</time>
      </trkpt>
      <trkpt lat="45.52588" lon="6.02917">
        <ele>1202.202922121</ele>
        <time>2015-12-08T10:38:40Z</time>
      </trkpt>
      <trkpt lat="45.52594" lon="6.02913">
        <ele>1202.202922121</ele>
        <time>2015-12-08T10:38:55Z</time>
      </trkpt>
      <trkpt lat="45.52598" lon="6.02913">
        <ele>1202.668026812</ele>
        <time>2015-12-08T10:39:00Z</time>
      </trkpt>
      <trkpt lat="45.52608" lon="6.02913">
        <ele>1203.098036211</ele>
        <time>2015-12-08T10:39:10Z</time>
      </trkpt>
      <trkpt lat="45.52615" lon="6.02918">
        <ele>1203.098036211</ele>
        <time>2015-12-08T10:39:15Z</time>
      </trkpt>
      <trkpt lat="45.52624" lon="6.02924">
        <ele>1203.069714047</ele>
        <time>2015-12-08T10:39:25Z</time>
      </trkpt>
      <trkpt lat="45.52626" lon="6.02926">
        <ele>1203.069714047</ele>
        <time>2015-12-08T10:39:30Z</time>
      </trkpt>
      <trkpt lat="45.5263" lon="6.02928">
        <ele>1203.069714047</ele>
        <time>2015-12-08T10:39:40Z</time>
      </trkpt>
      <trkpt lat="45.52635" lon="6.02926">
        <ele>1203.200806821</ele>
        <time>2015-12-08T10:39:45Z</time>
      </trkpt>
      <trkpt lat="45.52644" lon="6.02925">
        <ele>1203.486610381</ele>
        <time>2015-12-08T10:39:55Z</time>
      </trkpt>
      <trkpt lat="45.52647" lon="6.02926">
        <ele>1203.486610381</ele>
        <time>2015-12-08T10:40:00Z</time>
      </trkpt>
      <trkpt lat="45.5265" lon="6.02925">
        <ele>1203.486610381</ele>
        <time>2015-12-08T10:40:05Z</time>
      </trkpt>
      <trkpt lat="45.52659" lon="6.0292">
        <ele>1203.633923113</ele>
        <time>2015-12-08T10:40:15Z</time>
      </trkpt>
      <trkpt lat="45.52664" lon="6.0292">
        <ele>1203.633923113</ele>
        <time>2015-12-08T10:40:20Z</time>
      </trkpt>
      <trkpt lat="45.52668" lon="6.02914">
        <ele>1204.524168025</ele>
        <time>2015-12-08T10:40:30Z</time>
      </trkpt>
      <trkpt lat="45.52674" lon="6.02915">
        <ele>1204.524168025</ele>
        <time>2015-12-08T10:40:35Z</time>
      </trkpt>
      <trkpt lat="45.52681" lon="6.0291">
        <ele>1204.954183627</ele>
        <time>2015-12-08T10:40:45Z</time>
      </trkpt>
      <trkpt lat="45.52681" lon="6.0291">
        <ele>1204.954183627</ele>
        <time>2015-12-08T10:40:50Z</time>
      </trkpt>
      <trkpt lat="45.52683" lon="6.02908">
        <ele>1204.954183627</ele>
        <time>2015-12-08T10:41:00Z</time>
      </trkpt>
      <trkpt lat="45.52683" lon="6.02908">
        <ele>1204.954183627</ele>
        <time>2015-12-08T10:41:05Z</time>
      </trkpt>
      <trkpt lat="45.52683" lon="6.02908">
        <ele>1204.954183627</ele>
        <time>2015-12-08T10:41:15Z</time>
      </trkpt>
      <trkpt lat="45.52683" lon="6.02908">
        <ele>1204.954183627</ele>
        <time>2015-12-08T10:41:20Z</time>
      </trkpt>
      <trkpt lat="45.52686" lon="6.02905">
        <ele>1204.954183627</ele>
        <time>2015-12-08T10:41:32Z</time>
      </trkpt>
      <trkpt lat="45.52687" lon="6.02905">
        <ele>1204.954183627</ele>
        <time>2015-12-08T10:41:35Z</time>
      </trkpt>
      <trkpt lat="45.52692" lon="6.02904">
        <ele>1205.971954504</ele>
        <time>2015-12-08T10:41:45Z</time>
      </trkpt>
      <trkpt lat="45.52692" lon="6.02904">
        <ele>1205.971954504</ele>
        <time>2015-12-08T10:41:50Z</time>
      </trkpt>
      <trkpt lat="45.5271" lon="6.02897">
        <ele>1206.240857033</ele>
        <time>2015-12-08T10:42:07Z</time>
      </trkpt>
      <trkpt lat="45.52712" lon="6.02895">
        <ele>1206.240857033</ele>
        <time>2015-12-08T10:42:10Z</time>
      </trkpt>
      <trkpt lat="45.52716" lon="6.02893">
        <ele>1206.240857033</ele>
        <time>2015-12-08T10:42:15Z</time>
      </trkpt>
      <trkpt lat="45.52721" lon="6.02889">
        <ele>1206.83013938</ele>
        <time>2015-12-08T10:42:25Z</time>
      </trkpt>
      <trkpt lat="45.52722" lon="6.02886">
        <ele>1206.83013938</ele>
        <time>2015-12-08T10:42:30Z</time>
      </trkpt>
      <trkpt lat="45.52727" lon="6.02877">
        <ele>1207.288298531</ele>
        <time>2015-12-08T10:42:40Z</time>
      </trkpt>
      <trkpt lat="45.52731" lon="6.02879">
        <ele>1207.288298531</ele>
        <time>2015-12-08T10:42:45Z</time>
      </trkpt>
      <trkpt lat="45.52743" lon="6.0288">
        <ele>1207.917729325</ele>
        <time>2015-12-08T10:42:55Z</time>
      </trkpt>
      <trkpt lat="45.52744" lon="6.02879">
        <ele>1207.917729325</ele>
        <time>2015-12-08T10:43:00Z</time>
      </trkpt>
      <trkpt lat="45.52749" lon="6.02877">
        <ele>1207.917729325</ele>
        <time>2015-12-08T10:43:10Z</time>
      </trkpt>
      <trkpt lat="45.52751" lon="6.02876">
        <ele>1207.917729325</ele>
        <time>2015-12-08T10:43:15Z</time>
      </trkpt>
      <trkpt lat="45.52765" lon="6.02876">
        <ele>1208.853830297</ele>
        <time>2015-12-08T10:43:24Z</time>
      </trkpt>
      <trkpt lat="45.52772" lon="6.02875">
        <ele>1208.853830297</ele>
        <time>2015-12-08T10:43:30Z</time>
      </trkpt>
      <trkpt lat="45.52783" lon="6.02877">
        <ele>1209.212226687</ele>
        <time>2015-12-08T10:43:40Z</time>
      </trkpt>
      <trkpt lat="45.52788" lon="6.02874">
        <ele>1209.212226687</ele>
        <time>2015-12-08T10:43:45Z</time>
      </trkpt>
      <trkpt lat="45.52803" lon="6.02873">
        <ele>1209.760167454</ele>
        <time>2015-12-08T10:44:01Z</time>
      </trkpt>
      <trkpt lat="45.5282" lon="6.0287">
        <ele>1210.775493449</ele>
        <time>2015-12-08T10:44:15Z</time>
      </trkpt>
      <trkpt lat="45.52824" lon="6.02868">
        <ele>1210.775493449</ele>
        <time>2015-12-08T10:44:20Z</time>
      </trkpt>
      <trkpt lat="45.52828" lon="6.02868">
        <ele>1210.775493449</ele>
        <time>2015-12-08T10:44:30Z</time>
      </trkpt>
      <trkpt lat="45.5283" lon="6.02865">
        <ele>1211.793591984</ele>
        <time>2015-12-08T10:44:36Z</time>
      </trkpt>
      <trkpt lat="45.52838" lon="6.02847">
        <ele>1211.951466672</ele>
        <time>2015-12-08T10:44:45Z</time>
      </trkpt>
      <trkpt lat="45.52838" lon="6.02838">
        <ele>1211.951466672</ele>
        <time>2015-12-08T10:44:50Z</time>
      </trkpt>
      <trkpt lat="45.52839" lon="6.02836">
        <ele>1211.951466672</ele>
        <time>2015-12-08T10:45:00Z</time>
      </trkpt>
      <trkpt lat="45.5284" lon="6.02834">
        <ele>1213.333986571</ele>
        <time>2015-12-08T10:45:05Z</time>
      </trkpt>
      <trkpt lat="45.52844" lon="6.02827">
        <ele>1213.333986571</ele>
        <time>2015-12-08T10:45:15Z</time>
      </trkpt>
      <trkpt lat="45.52845" lon="6.02828">
        <ele>1213.333986571</ele>
        <time>2015-12-08T10:45:20Z</time>
      </trkpt>
      <trkpt lat="45.52844" lon="6.02817">
        <ele>1214.554715473</ele>
        <time>2015-12-08T10:45:30Z</time>
      </trkpt>
      <trkpt lat="45.52844" lon="6.02814">
        <ele>1214.554715473</ele>
        <time>2015-12-08T10:45:35Z</time>
      </trkpt>
      <trkpt lat="45.52848" lon="6.02807">
        <ele>1214.554715473</ele>
        <time>2015-12-08T10:45:45Z</time>
      </trkpt>
      <trkpt lat="45.52849" lon="6.02803">
        <ele>1215.626365522</ele>
        <time>2015-12-08T10:45:50Z</time>
      </trkpt>
      <trkpt lat="45.52857" lon="6.02798">
        <ele>1215.626365522</ele>
        <time>2015-12-08T10:46:00Z</time>
      </trkpt>
      <trkpt lat="45.5286" lon="6.02795">
        <ele>1215.840430691</ele>
        <time>2015-12-08T10:46:05Z</time>
      </trkpt>
      <trkpt lat="45.52863" lon="6.02793">
        <ele>1215.840430691</ele>
        <time>2015-12-08T10:46:15Z</time>
      </trkpt>
      <trkpt lat="45.52865" lon="6.02792">
        <ele>1215.840430691</ele>
        <time>2015-12-08T10:46:20Z</time>
      </trkpt>
      <trkpt lat="45.52867" lon="6.02791">
        <ele>1215.840430691</ele>
        <time>2015-12-08T10:46:24Z</time>
      </trkpt>
      <trkpt lat="45.52874" lon="6.02793">
        <ele>1215.695605092</ele>
        <time>2015-12-08T10:46:29Z</time>
      </trkpt>
      <trkpt lat="45.52877" lon="6.02788">
        <ele>1215.695605092</ele>
        <time>2015-12-08T10:46:35Z</time>
      </trkpt>
      <trkpt lat="45.52888" lon="6.02787">
        <ele>1215.222482955</ele>
        <time>2015-12-08T10:46:45Z</time>
      </trkpt>
      <trkpt lat="45.52894" lon="6.02788">
        <ele>1215.222482955</ele>
        <time>2015-12-08T10:46:49Z</time>
      </trkpt>
      <trkpt lat="45.52899" lon="6.02783">
        <ele>1215.314859809</ele>
        <time>2015-12-08T10:47:00Z</time>
      </trkpt>
      <trkpt lat="45.52899" lon="6.02782">
        <ele>1215.314859809</ele>
        <time>2015-12-08T10:47:05Z</time>
      </trkpt>
      <trkpt lat="45.52899" lon="6.02783">
        <ele>1215.314859809</ele>
        <time>2015-12-08T10:47:15Z</time>
      </trkpt>
      <trkpt lat="45.52905" lon="6.02785">
        <ele>1215.314859809</ele>
        <time>2015-12-08T10:47:20Z</time>
      </trkpt>
      <trkpt lat="45.52915" lon="6.02782">
        <ele>1215.790369147</ele>
        <time>2015-12-08T10:47:30Z</time>
      </trkpt>
      <trkpt lat="45.52918" lon="6.02781">
        <ele>1215.790369147</ele>
        <time>2015-12-08T10:47:35Z</time>
      </trkpt>
      <trkpt lat="45.52923" lon="6.0278">
        <ele>1215.790369147</ele>
        <time>2015-12-08T10:47:45Z</time>
      </trkpt>
      <trkpt lat="45.52926" lon="6.02782">
        <ele>1216.478827226</ele>
        <time>2015-12-08T10:47:51Z</time>
      </trkpt>
      <trkpt lat="45.52927" lon="6.02782">
        <ele>1216.478827226</ele>
        <time>2015-12-08T10:48:05Z</time>
      </trkpt>
      <trkpt lat="45.52929" lon="6.02781">
        <ele>1216.478827226</ele>
        <time>2015-12-08T10:48:10Z</time>
      </trkpt>
      <trkpt lat="45.52935" lon="6.02783">
        <ele>1216.478827226</ele>
        <time>2015-12-08T10:48:20Z</time>
      </trkpt>
      <trkpt lat="45.52936" lon="6.02783">
        <ele>1216.933595739</ele>
        <time>2015-12-08T10:48:25Z</time>
      </trkpt>
      <trkpt lat="45.52941" lon="6.0278">
        <ele>1216.933595739</ele>
        <time>2015-12-08T10:48:35Z</time>
      </trkpt>
      <trkpt lat="45.52941" lon="6.0278">
        <ele>1216.933595739</ele>
        <time>2015-12-08T10:48:40Z</time>
      </trkpt>
      <trkpt lat="45.52944" lon="6.02778">
        <ele>1216.933595739</ele>
        <time>2015-12-08T10:48:50Z</time>
      </trkpt>
      <trkpt lat="45.52945" lon="6.02779">
        <ele>1218.326594149</ele>
        <time>2015-12-08T10:48:55Z</time>
      </trkpt>
      <trkpt lat="45.52947" lon="6.02775">
        <ele>1218.326594149</ele>
        <time>2015-12-08T10:49:05Z</time>
      </trkpt>
      <trkpt lat="45.52949" lon="6.02774">
        <ele>1218.326594149</ele>
        <time>2015-12-08T10:49:10Z</time>
      </trkpt>
      <trkpt lat="45.52955" lon="6.02771">
        <ele>1219.723342343</ele>
        <time>2015-12-08T10:49:20Z</time>
      </trkpt>
      <trkpt lat="45.52961" lon="6.02771">
        <ele>1219.723342343</ele>
        <time>2015-12-08T10:49:25Z</time>
      </trkpt>
      <trkpt lat="45.52969" lon="6.02767">
        <ele>1220.978438157</ele>
        <time>2015-12-08T10:49:34Z</time>
      </trkpt>
      <trkpt lat="45.52971" lon="6.02766">
        <ele>1220.978438157</ele>
        <time>2015-12-08T10:49:39Z</time>
      </trkpt>
      <trkpt lat="45.52972" lon="6.02764">
        <ele>1220.978438157</ele>
        <time>2015-12-08T10:49:50Z</time>
      </trkpt>
      <trkpt lat="45.52974" lon="6.02764">
        <ele>1220.978438157</ele>
        <time>2015-12-08T10:49:54Z</time>
      </trkpt>
      <trkpt lat="45.52982" lon="6.02767">
        <ele>1223.11034511</ele>
        <time>2015-12-08T10:50:05Z</time>
      </trkpt>
      <trkpt lat="45.52986" lon="6.02765">
        <ele>1223.11034511</ele>
        <time>2015-12-08T10:50:10Z</time>
      </trkpt>
      <trkpt lat="45.52996" lon="6.02766">
        <ele>1225.042605564</ele>
        <time>2015-12-08T10:50:20Z</time>
      </trkpt>
      <trkpt lat="45.52997" lon="6.02765">
        <ele>1225.042605564</ele>
        <time>2015-12-08T10:50:24Z</time>
      </trkpt>
      <trkpt lat="45.53003" lon="6.02762">
        <ele>1225.042605564</ele>
        <time>2015-12-08T10:50:35Z</time>
      </trkpt>
      <trkpt lat="45.53004" lon="6.02763">
        <ele>1226.93121111</ele>
        <time>2015-12-08T10:50:40Z</time>
      </trkpt>
      <trkpt lat="45.53011" lon="6.02756">
        <ele>1226.93121111</ele>
        <time>2015-12-08T10:50:55Z</time>
      </trkpt>
      <trkpt lat="45.53012" lon="6.02756">
        <ele>1229.929534316</ele>
        <time>2015-12-08T10:51:00Z</time>
      </trkpt>
      <trkpt lat="45.53016" lon="6.02753">
        <ele>1229.929534316</ele>
        <time>2015-12-08T10:51:10Z</time>
      </trkpt>
      <trkpt lat="45.53018" lon="6.02755">
        <ele>1229.929534316</ele>
        <time>2015-12-08T10:51:15Z</time>
      </trkpt>
      <trkpt lat="45.53018" lon="6.02757">
        <ele>1229.929534316</ele>
        <time>2015-12-08T10:51:25Z</time>
      </trkpt>
      <trkpt lat="45.53018" lon="6.02757">
        <ele>1229.929534316</ele>
        <time>2015-12-08T10:51:30Z</time>
      </trkpt>
      <trkpt lat="45.53032" lon="6.02755">
        <ele>1232.509062959</ele>
        <time>2015-12-08T10:51:40Z</time>
      </trkpt>
      <trkpt lat="45.53035" lon="6.02757">
        <ele>1232.509062959</ele>
        <time>2015-12-08T10:51:45Z</time>
      </trkpt>
      <trkpt lat="45.53037" lon="6.02759">
        <ele>1232.509062959</ele>
        <time>2015-12-08T10:51:49Z</time>
      </trkpt>
      <trkpt lat="45.53037" lon="6.02759">
        <ele>1232.509062959</ele>
        <time>2015-12-08T10:51:54Z</time>
      </trkpt>
      <trkpt lat="45.53037" lon="6.02758">
        <ele>1232.509062959</ele>
        <time>2015-12-08T10:51:59Z</time>
      </trkpt>
      <trkpt lat="45.53037" lon="6.02758">
        <ele>1232.509062959</ele>
        <time>2015-12-08T10:52:04Z</time>
      </trkpt>
      <trkpt lat="45.53038" lon="6.0276">
        <ele>1232.509062959</ele>
        <time>2015-12-08T10:52:09Z</time>
      </trkpt>
      <trkpt lat="45.53039" lon="6.02763">
        <ele>1235.12816012</ele>
        <time>2015-12-08T10:52:15Z</time>
      </trkpt>
      <trkpt lat="45.53049" lon="6.02767">
        <ele>1238.067284376</ele>
        <time>2015-12-08T10:52:25Z</time>
      </trkpt>
      <trkpt lat="45.5306" lon="6.02764">
        <ele>1240.720732443</ele>
        <time>2015-12-08T10:52:30Z</time>
      </trkpt>
      <trkpt lat="45.53062" lon="6.02764">
        <ele>1240.720732443</ele>
        <time>2015-12-08T10:52:40Z</time>
      </trkpt>
      <trkpt lat="45.53064" lon="6.02763">
        <ele>1240.720732443</ele>
        <time>2015-12-08T10:52:45Z</time>
      </trkpt>
      <trkpt lat="45.53071" lon="6.02758">
        <ele>1243.681007139</ele>
        <time>2015-12-08T10:52:55Z</time>
      </trkpt>
      <trkpt lat="45.53071" lon="6.02757">
        <ele>1243.681007139</ele>
        <time>2015-12-08T10:53:00Z</time>
      </trkpt>
      <trkpt lat="45.53073" lon="6.02757">
        <ele>1243.681007139</ele>
        <time>2015-12-08T10:53:10Z</time>
      </trkpt>
      <trkpt lat="45.53075" lon="6.02759">
        <ele>1243.681007139</ele>
        <time>2015-12-08T10:53:14Z</time>
      </trkpt>
      <trkpt lat="45.53078" lon="6.02758">
        <ele>1243.681007139</ele>
        <time>2015-12-08T10:53:30Z</time>
      </trkpt>
      <trkpt lat="45.53079" lon="6.02757">
        <ele>1246.343371338</ele>
        <time>2015-12-08T10:53:34Z</time>
      </trkpt>
      <trkpt lat="45.53078" lon="6.02757">
        <ele>1246.343371338</ele>
        <time>2015-12-08T10:53:45Z</time>
      </trkpt>
      <trkpt lat="45.53079" lon="6.02756">
        <ele>1246.343371338</ele>
        <time>2015-12-08T10:54:00Z</time>
      </trkpt>
      <trkpt lat="45.53079" lon="6.02757">
        <ele>1246.343371338</ele>
        <time>2015-12-08T10:54:05Z</time>
      </trkpt>
      <trkpt lat="45.53079" lon="6.02755">
        <ele>1246.343371338</ele>
        <time>2015-12-08T10:54:16Z</time>
      </trkpt>
      <trkpt lat="45.53081" lon="6.02756">
        <ele>1246.343371338</ele>
        <time>2015-12-08T10:54:20Z</time>
      </trkpt>
      <trkpt lat="45.53081" lon="6.02757">
        <ele>1246.343371338</ele>
        <time>2015-12-08T10:54:31Z</time>
      </trkpt>
      <trkpt lat="45.5308" lon="6.02757">
        <ele>1246.343371338</ele>
        <time>2015-12-08T10:54:34Z</time>
      </trkpt>
      <trkpt lat="45.53081" lon="6.02758">
        <ele>1246.343371338</ele>
        <time>2015-12-08T10:54:44Z</time>
      </trkpt>
      <trkpt lat="45.53082" lon="6.02758">
        <ele>1246.343371338</ele>
        <time>2015-12-08T10:54:49Z</time>
      </trkpt>
      <trkpt lat="45.53081" lon="6.02759">
        <ele>1249.445396752</ele>
        <time>2015-12-08T10:54:59Z</time>
      </trkpt>
      <trkpt lat="45.53082" lon="6.02758">
        <ele>1249.445396752</ele>
        <time>2015-12-08T10:55:04Z</time>
      </trkpt>
      <trkpt lat="45.53082" lon="6.02757">
        <ele>1249.445396752</ele>
        <time>2015-12-08T10:55:14Z</time>
      </trkpt>
      <trkpt lat="45.53082" lon="6.02756">
        <ele>1249.445396752</ele>
        <time>2015-12-08T10:55:19Z</time>
      </trkpt>
      <trkpt lat="45.53082" lon="6.02756">
        <ele>1249.445396752</ele>
        <time>2015-12-08T10:55:24Z</time>
      </trkpt>
      <trkpt lat="45.53082" lon="6.02756">
        <ele>1249.445396752</ele>
        <time>2015-12-08T10:55:29Z</time>
      </trkpt>
      <trkpt lat="45.53082" lon="6.02756">
        <ele>1249.445396752</ele>
        <time>2015-12-08T10:55:34Z</time>
      </trkpt>
      <trkpt lat="45.53082" lon="6.02756">
        <ele>1249.445396752</ele>
        <time>2015-12-08T10:55:39Z</time>
      </trkpt>
      <trkpt lat="45.53082" lon="6.02756">
        <ele>1249.445396752</ele>
        <time>2015-12-08T10:55:44Z</time>
      </trkpt>
      <trkpt lat="45.53082" lon="6.02758">
        <ele>1249.445396752</ele>
        <time>2015-12-08T10:55:49Z</time>
      </trkpt>
      <trkpt lat="45.53084" lon="6.0276">
        <ele>1249.445396752</ele>
        <time>2015-12-08T10:55:54Z</time>
      </trkpt>
      <trkpt lat="45.53084" lon="6.02759">
        <ele>1249.445396752</ele>
        <time>2015-12-08T10:55:59Z</time>
      </trkpt>
      <trkpt lat="45.53085" lon="6.02759">
        <ele>1249.445396752</ele>
        <time>2015-12-08T10:56:09Z</time>
      </trkpt>
      <trkpt lat="45.53085" lon="6.02759">
        <ele>1249.445396752</ele>
        <time>2015-12-08T10:56:14Z</time>
      </trkpt>
      <trkpt lat="45.53085" lon="6.02759">
        <ele>1249.445396752</ele>
        <time>2015-12-08T10:56:19Z</time>
      </trkpt>
      <trkpt lat="45.53085" lon="6.02759">
        <ele>1249.445396752</ele>
        <time>2015-12-08T10:56:24Z</time>
      </trkpt>
      <trkpt lat="45.53085" lon="6.02759">
        <ele>1249.445396752</ele>
        <time>2015-12-08T10:56:29Z</time>
      </trkpt>
      <trkpt lat="45.53085" lon="6.02759">
        <ele>1249.445396752</ele>
        <time>2015-12-08T10:56:34Z</time>
      </trkpt>
      <trkpt lat="45.53085" lon="6.02759">
        <ele>1249.445396752</ele>
        <time>2015-12-08T10:56:39Z</time>
      </trkpt>
      <trkpt lat="45.53084" lon="6.02759">
        <ele>1249.445396752</ele>
        <time>2015-12-08T10:56:44Z</time>
      </trkpt>
      <trkpt lat="45.53084" lon="6.02758">
        <ele>1252.804635494</ele>
        <time>2015-12-08T10:56:49Z</time>
      </trkpt>
      <trkpt lat="45.53084" lon="6.02758">
        <ele>1252.804635494</ele>
        <time>2015-12-08T10:56:54Z</time>
      </trkpt>
      <trkpt lat="45.53084" lon="6.02758">
        <ele>1252.804635494</ele>
        <time>2015-12-08T10:56:59Z</time>
      </trkpt>
      <trkpt lat="45.53084" lon="6.02758">
        <ele>1252.804635494</ele>
        <time>2015-12-08T10:57:04Z</time>
      </trkpt>
      <trkpt lat="45.53083" lon="6.02758">
        <ele>1252.804635494</ele>
        <time>2015-12-08T10:57:09Z</time>
      </trkpt>
      <trkpt lat="45.53083" lon="6.02758">
        <ele>1252.804635494</ele>
        <time>2015-12-08T10:57:14Z</time>
      </trkpt>
      <trkpt lat="45.53082" lon="6.02758">
        <ele>1252.804635494</ele>
        <time>2015-12-08T10:57:20Z</time>
      </trkpt>
      <trkpt lat="45.53083" lon="6.02759">
        <ele>1252.804635494</ele>
        <time>2015-12-08T10:57:30Z</time>
      </trkpt>
      <trkpt lat="45.53083" lon="6.02758">
        <ele>1252.804635494</ele>
        <time>2015-12-08T10:57:35Z</time>
      </trkpt>
      <trkpt lat="45.53083" lon="6.02758">
        <ele>1252.804635494</ele>
        <time>2015-12-08T10:57:45Z</time>
      </trkpt>
      <trkpt lat="45.53083" lon="6.02758">
        <ele>1252.804635494</ele>
        <time>2015-12-08T10:57:50Z</time>
      </trkpt>
      <trkpt lat="45.53083" lon="6.02758">
        <ele>1252.804635494</ele>
        <time>2015-12-08T10:58:05Z</time>
      </trkpt>
      <trkpt lat="45.53083" lon="6.02758">
        <ele>1252.804635494</ele>
        <time>2015-12-08T10:58:10Z</time>
      </trkpt>
      <trkpt lat="45.53083" lon="6.02758">
        <ele>1252.804635494</ele>
        <time>2015-12-08T10:58:20Z</time>
      </trkpt>
      <trkpt lat="45.53083" lon="6.02758">
        <ele>1252.804635494</ele>
        <time>2015-12-08T10:58:25Z</time>
      </trkpt>
      <trkpt lat="45.53083" lon="6.02758">
        <ele>1252.804635494</ele>
        <time>2015-12-08T10:58:35Z</time>
      </trkpt>
      <trkpt lat="45.53083" lon="6.02758">
        <ele>1252.804635494</ele>
        <time>2015-12-08T10:58:40Z</time>
      </trkpt>
      <trkpt lat="45.53083" lon="6.02758">
        <ele>1252.804635494</ele>
        <time>2015-12-08T10:58:50Z</time>
      </trkpt>
      <trkpt lat="45.53083" lon="6.02758">
        <ele>1252.804635494</ele>
        <time>2015-12-08T10:58:55Z</time>
      </trkpt>
      <trkpt lat="45.53083" lon="6.02758">
        <ele>1252.804635494</ele>
        <time>2015-12-08T10:59:05Z</time>
      </trkpt>
      <trkpt lat="45.53083" lon="6.02758">
        <ele>1252.804635494</ele>
        <time>2015-12-08T10:59:10Z</time>
      </trkpt>
      <trkpt lat="45.53083" lon="6.02758">
        <ele>1252.804635494</ele>
        <time>2015-12-08T10:59:20Z</time>
      </trkpt>
      <trkpt lat="45.53083" lon="6.02758">
        <ele>1252.804635494</ele>
        <time>2015-12-08T10:59:24Z</time>
      </trkpt>
      <trkpt lat="45.53083" lon="6.02758">
        <ele>1252.804635494</ele>
        <time>2015-12-08T10:59:29Z</time>
      </trkpt>
      <trkpt lat="45.53083" lon="6.02758">
        <ele>1252.804635494</ele>
        <time>2015-12-08T10:59:34Z</time>
      </trkpt>
      <trkpt lat="45.53083" lon="6.02758">
        <ele>1252.804635494</ele>
        <time>2015-12-08T10:59:39Z</time>
      </trkpt>
      <trkpt lat="45.53083" lon="6.02758">
        <ele>1252.804635494</ele>
        <time>2015-12-08T10:59:44Z</time>
      </trkpt>
      <trkpt lat="45.53083" lon="6.02758">
        <ele>1252.804635494</ele>
        <time>2015-12-08T10:59:49Z</time>
      </trkpt>
      <trkpt lat="45.53083" lon="6.02758">
        <ele>1252.804635494</ele>
        <time>2015-12-08T10:59:54Z</time>
      </trkpt>
      <trkpt lat="45.53083" lon="6.02758">
        <ele>1252.804635494</ele>
        <time>2015-12-08T10:59:59Z</time>
      </trkpt>
      <trkpt lat="45.53083" lon="6.02758">
        <ele>1252.804635494</ele>
        <time>2015-12-08T11:00:04Z</time>
      </trkpt>
      <trkpt lat="45.53083" lon="6.02758">
        <ele>1252.804635494</ele>
        <time>2015-12-08T11:00:09Z</time>
      </trkpt>
      <trkpt lat="45.53083" lon="6.02758">
        <ele>1252.804635494</ele>
        <time>2015-12-08T11:00:14Z</time>
      </trkpt>
      <trkpt lat="45.53083" lon="6.02758">
        <ele>1252.804635494</ele>
        <time>2015-12-08T11:00:19Z</time>
      </trkpt>
      <trkpt lat="45.53083" lon="6.02758">
        <ele>1252.804635494</ele>
        <time>2015-12-08T11:00:24Z</time>
      </trkpt>
      <trkpt lat="45.53083" lon="6.02758">
        <ele>1252.804635494</ele>
        <time>2015-12-08T11:00:29Z</time>
      </trkpt>
      <trkpt lat="45.53083" lon="6.02758">
        <ele>1252.804635494</ele>
        <time>2015-12-08T11:00:34Z</time>
      </trkpt>
      <trkpt lat="45.53083" lon="6.02758">
        <ele>1252.804635494</ele>
        <time>2015-12-08T11:00:40Z</time>
      </trkpt>
      <trkpt lat="45.53083" lon="6.02758">
        <ele>1252.804635494</ele>
        <time>2015-12-08T11:00:45Z</time>
      </trkpt>
      <trkpt lat="45.53083" lon="6.02758">
        <ele>1252.804635494</ele>
        <time>2015-12-08T11:00:55Z</time>
      </trkpt>
      <trkpt lat="45.53083" lon="6.02758">
        <ele>1252.804635494</ele>
        <time>2015-12-08T11:01:00Z</time>
      </trkpt>
      <trkpt lat="45.53083" lon="6.02758">
        <ele>1252.804635494</ele>
        <time>2015-12-08T11:01:10Z</time>
      </trkpt>
      <trkpt lat="45.53083" lon="6.02758">
        <ele>1252.804635494</ele>
        <time>2015-12-08T11:01:15Z</time>
      </trkpt>
      <trkpt lat="45.53083" lon="6.02758">
        <ele>1252.804635494</ele>
        <time>2015-12-08T11:01:25Z</time>
      </trkpt>
      <trkpt lat="45.53083" lon="6.02758">
        <ele>1252.804635494</ele>
        <time>2015-12-08T11:01:30Z</time>
      </trkpt>
      <trkpt lat="45.53083" lon="6.02758">
        <ele>1252.804635494</ele>
        <time>2015-12-08T11:01:39Z</time>
      </trkpt>
      <trkpt lat="45.53083" lon="6.02758">
        <ele>1252.804635494</ele>
        <time>2015-12-08T11:01:44Z</time>
      </trkpt>
      <trkpt lat="45.53083" lon="6.02758">
        <ele>1252.804635494</ele>
        <time>2015-12-08T11:01:54Z</time>
      </trkpt>
      <trkpt lat="45.53083" lon="6.02758">
        <ele>1252.804635494</ele>
        <time>2015-12-08T11:02:00Z</time>
      </trkpt>
      <trkpt lat="45.53083" lon="6.02758">
        <ele>1252.804635494</ele>
        <time>2015-12-08T11:02:10Z</time>
      </trkpt>
      <trkpt lat="45.53083" lon="6.02758">
        <ele>1252.804635494</ele>
        <time>2015-12-08T11:02:15Z</time>
      </trkpt>
      <trkpt lat="45.53083" lon="6.02758">
        <ele>1252.804635494</ele>
        <time>2015-12-08T11:02:30Z</time>
      </trkpt>
      <trkpt lat="45.53083" lon="6.02758">
        <ele>1252.804635494</ele>
        <time>2015-12-08T11:03:07Z</time>
      </trkpt>
      <trkpt lat="45.53083" lon="6.02758">
        <ele>1252.804635494</ele>
        <time>2015-12-08T11:03:19Z</time>
      </trkpt>
      <trkpt lat="45.53083" lon="6.02758">
        <ele>1252.804635494</ele>
        <time>2015-12-08T11:03:25Z</time>
      </trkpt>
      <trkpt lat="45.53083" lon="6.02758">
        <ele>1252.804635494</ele>
        <time>2015-12-08T11:03:29Z</time>
      </trkpt>
      <trkpt lat="45.53083" lon="6.02758">
        <ele>1252.804635494</ele>
        <time>2015-12-08T11:03:40Z</time>
      </trkpt>
      <trkpt lat="45.53083" lon="6.02758">
        <ele>1252.804635494</ele>
        <time>2015-12-08T11:03:51Z</time>
      </trkpt>
      <trkpt lat="45.53083" lon="6.02758">
        <ele>1252.804635494</ele>
        <time>2015-12-08T11:03:51Z</time>
      </trkpt>
      <trkpt lat="45.53083" lon="6.02758">
        <ele>1252.804635494</ele>
        <time>2015-12-08T11:03:59Z</time>
      </trkpt>
      <trkpt lat="45.53083" lon="6.02758">
        <ele>1252.804635494</ele>
        <time>2015-12-08T11:04:07Z</time>
      </trkpt>
      <trkpt lat="45.53083" lon="6.02758">
        <ele>1252.804635494</ele>
        <time>2015-12-08T11:04:09Z</time>
      </trkpt>
      <trkpt lat="45.53083" lon="6.02758">
        <ele>1252.804635494</ele>
        <time>2015-12-08T11:04:17Z</time>
      </trkpt>
      <trkpt lat="45.53083" lon="6.02758">
        <ele>1252.804635494</ele>
        <time>2015-12-08T11:04:19Z</time>
      </trkpt>
      <trkpt lat="45.53083" lon="6.02758">
        <ele>1252.804635494</ele>
        <time>2015-12-08T11:04:31Z</time>
      </trkpt>
      <trkpt lat="45.53083" lon="6.02758">
        <ele>1252.804635494</ele>
        <time>2015-12-08T11:04:34Z</time>
      </trkpt>
      <trkpt lat="45.53083" lon="6.02758">
        <ele>1252.804635494</ele>
        <time>2015-12-08T11:04:41Z</time>
      </trkpt>
      <trkpt lat="45.53083" lon="6.02758">
        <ele>1252.804635494</ele>
        <time>2015-12-08T11:04:56Z</time>
      </trkpt>
      <trkpt lat="45.53083" lon="6.02758">
        <ele>1252.804635494</ele>
        <time>2015-12-08T11:05:10Z</time>
      </trkpt>
      <trkpt lat="45.53083" lon="6.02758">
        <ele>1252.804635494</ele>
        <time>2015-12-08T11:05:25Z</time>
      </trkpt>
      <trkpt lat="45.53083" lon="6.02758">
        <ele>1252.804635494</ele>
        <time>2015-12-08T11:05:41Z</time>
      </trkpt>
      <trkpt lat="45.53083" lon="6.02758">
        <ele>1252.804635494</ele>
        <time>2015-12-08T11:05:52Z</time>
      </trkpt>
      <trkpt lat="45.53083" lon="6.02758">
        <ele>1252.804635494</ele>
        <time>2015-12-08T11:05:52Z</time>
      </trkpt>
      <trkpt lat="45.53083" lon="6.02758">
        <ele>1252.804635494</ele>
        <time>2015-12-08T11:06:00Z</time>
      </trkpt>
      <trkpt lat="45.53083" lon="6.02758">
        <ele>1252.804635494</ele>
        <time>2015-12-08T11:06:01Z</time>
      </trkpt>
      <trkpt lat="45.53083" lon="6.02758">
        <ele>1252.804635494</ele>
        <time>2015-12-08T11:06:11Z</time>
      </trkpt>
      <trkpt lat="45.53083" lon="6.02758">
        <ele>1252.804635494</ele>
        <time>2015-12-08T11:06:20Z</time>
      </trkpt>
      <trkpt lat="45.53083" lon="6.02758">
        <ele>1252.804635494</ele>
        <time>2015-12-08T11:06:20Z</time>
      </trkpt>
      <trkpt lat="45.53083" lon="6.02758">
        <ele>1252.804635494</ele>
        <time>2015-12-08T11:06:34Z</time>
      </trkpt>
      <trkpt lat="45.53083" lon="6.02759">
        <ele>1252.804635494</ele>
        <time>2015-12-08T11:06:41Z</time>
      </trkpt>
      <trkpt lat="45.53083" lon="6.02759">
        <ele>1252.804635494</ele>
        <time>2015-12-08T11:06:44Z</time>
      </trkpt>
      <trkpt lat="45.53084" lon="6.02758">
        <ele>1252.804635494</ele>
        <time>2015-12-08T11:06:52Z</time>
      </trkpt>
      <trkpt lat="45.53084" lon="6.02758">
        <ele>1252.804635494</ele>
        <time>2015-12-08T11:06:54Z</time>
      </trkpt>
      <trkpt lat="45.53084" lon="6.02758">
        <ele>1252.804635494</ele>
        <time>2015-12-08T11:07:02Z</time>
      </trkpt>
      <trkpt lat="45.53084" lon="6.02757">
        <ele>1252.804635494</ele>
        <time>2015-12-08T11:07:04Z</time>
      </trkpt>
      <trkpt lat="45.53084" lon="6.02757">
        <ele>1255.674950722</ele>
        <time>2015-12-08T11:07:31Z</time>
      </trkpt>
      <trkpt lat="45.53084" lon="6.02757">
        <ele>1255.674950722</ele>
        <time>2015-12-08T11:07:50Z</time>
      </trkpt>
      <trkpt lat="45.53083" lon="6.02756">
        <ele>1255.674950722</ele>
        <time>2015-12-08T11:07:58Z</time>
      </trkpt>
      <trkpt lat="45.53083" lon="6.02756">
        <ele>1255.674950722</ele>
        <time>2015-12-08T11:07:59Z</time>
      </trkpt>
      <trkpt lat="45.53082" lon="6.02756">
        <ele>1255.674950722</ele>
        <time>2015-12-08T11:08:04Z</time>
      </trkpt>
      <trkpt lat="45.53082" lon="6.02757">
        <ele>1255.674950722</ele>
        <time>2015-12-08T11:08:09Z</time>
      </trkpt>
      <trkpt lat="45.53082" lon="6.02757">
        <ele>1255.674950722</ele>
        <time>2015-12-08T11:08:14Z</time>
      </trkpt>
      <trkpt lat="45.53082" lon="6.02757">
        <ele>1255.674950722</ele>
        <time>2015-12-08T11:08:19Z</time>
      </trkpt>
      <trkpt lat="45.53082" lon="6.02757">
        <ele>1255.674950722</ele>
        <time>2015-12-08T11:08:24Z</time>
      </trkpt>
      <trkpt lat="45.53082" lon="6.02757">
        <ele>1255.674950722</ele>
        <time>2015-12-08T11:08:29Z</time>
      </trkpt>
      <trkpt lat="45.53082" lon="6.02757">
        <ele>1255.674950722</ele>
        <time>2015-12-08T11:08:34Z</time>
      </trkpt>
      <trkpt lat="45.53082" lon="6.02757">
        <ele>1255.674950722</ele>
        <time>2015-12-08T11:08:39Z</time>
      </trkpt>
      <trkpt lat="45.53082" lon="6.02757">
        <ele>1255.674950722</ele>
        <time>2015-12-08T11:08:44Z</time>
      </trkpt>
      <trkpt lat="45.53082" lon="6.02757">
        <ele>1255.674950722</ele>
        <time>2015-12-08T11:08:49Z</time>
      </trkpt>
      <trkpt lat="45.53082" lon="6.02757">
        <ele>1255.674950722</ele>
        <time>2015-12-08T11:08:54Z</time>
      </trkpt>
      <trkpt lat="45.53082" lon="6.02757">
        <ele>1255.674950722</ele>
        <time>2015-12-08T11:08:59Z</time>
      </trkpt>
      <trkpt lat="45.53082" lon="6.02757">
        <ele>1255.674950722</ele>
        <time>2015-12-08T11:09:04Z</time>
      </trkpt>
      <trkpt lat="45.53082" lon="6.02757">
        <ele>1255.674950722</ele>
        <time>2015-12-08T11:09:09Z</time>
      </trkpt>
      <trkpt lat="45.53082" lon="6.02757">
        <ele>1255.674950722</ele>
        <time>2015-12-08T11:09:14Z</time>
      </trkpt>
      <trkpt lat="45.53082" lon="6.02757">
        <ele>1255.674950722</ele>
        <time>2015-12-08T11:09:19Z</time>
      </trkpt>
      <trkpt lat="45.53082" lon="6.02757">
        <ele>1255.674950722</ele>
        <time>2015-12-08T11:09:24Z</time>
      </trkpt>
      <trkpt lat="45.53082" lon="6.02757">
        <ele>1255.674950722</ele>
        <time>2015-12-08T11:09:29Z</time>
      </trkpt>
      <trkpt lat="45.53082" lon="6.02756">
        <ele>1255.674950722</ele>
        <time>2015-12-08T11:09:34Z</time>
      </trkpt>
      <trkpt lat="45.53082" lon="6.02757">
        <ele>1255.674950722</ele>
        <time>2015-12-08T11:09:39Z</time>
      </trkpt>
      <trkpt lat="45.53082" lon="6.02757">
        <ele>1255.674950722</ele>
        <time>2015-12-08T11:09:44Z</time>
      </trkpt>
      <trkpt lat="45.53083" lon="6.02758">
        <ele>1255.674950722</ele>
        <time>2015-12-08T11:09:49Z</time>
      </trkpt>
      <trkpt lat="45.53083" lon="6.02757">
        <ele>1255.674950722</ele>
        <time>2015-12-08T11:09:54Z</time>
      </trkpt>
      <trkpt lat="45.53082" lon="6.02758">
        <ele>1255.674950722</ele>
        <time>2015-12-08T11:09:59Z</time>
      </trkpt>
      <trkpt lat="45.53082" lon="6.02758">
        <ele>1255.674950722</ele>
        <time>2015-12-08T11:10:04Z</time>
      </trkpt>
      <trkpt lat="45.53082" lon="6.02758">
        <ele>1255.674950722</ele>
        <time>2015-12-08T11:10:09Z</time>
      </trkpt>
      <trkpt lat="45.53082" lon="6.02758">
        <ele>1255.674950722</ele>
        <time>2015-12-08T11:10:14Z</time>
      </trkpt>
      <trkpt lat="45.53082" lon="6.02758">
        <ele>1255.674950722</ele>
        <time>2015-12-08T11:10:19Z</time>
      </trkpt>
      <trkpt lat="45.53082" lon="6.02758">
        <ele>1255.674950722</ele>
        <time>2015-12-08T11:10:25Z</time>
      </trkpt>
      <trkpt lat="45.53082" lon="6.02758">
        <ele>1255.674950722</ele>
        <time>2015-12-08T11:10:29Z</time>
      </trkpt>
      <trkpt lat="45.53082" lon="6.02758">
        <ele>1255.674950722</ele>
        <time>2015-12-08T11:10:34Z</time>
      </trkpt>
      <trkpt lat="45.53082" lon="6.02758">
        <ele>1255.674950722</ele>
        <time>2015-12-08T11:10:39Z</time>
      </trkpt>
      <trkpt lat="45.53082" lon="6.02758">
        <ele>1255.674950722</ele>
        <time>2015-12-08T11:10:45Z</time>
      </trkpt>
      <trkpt lat="45.53082" lon="6.02758">
        <ele>1255.674950722</ele>
        <time>2015-12-08T11:10:49Z</time>
      </trkpt>
      <trkpt lat="45.53082" lon="6.02758">
        <ele>1255.674950722</ele>
        <time>2015-12-08T11:10:54Z</time>
      </trkpt>
      <trkpt lat="45.53082" lon="6.02758">
        <ele>1255.674950722</ele>
        <time>2015-12-08T11:11:00Z</time>
      </trkpt>
      <trkpt lat="45.53082" lon="6.02758">
        <ele>1255.674950722</ele>
        <time>2015-12-08T11:11:05Z</time>
      </trkpt>
      <trkpt lat="45.53082" lon="6.02758">
        <ele>1255.674950722</ele>
        <time>2015-12-08T11:11:09Z</time>
      </trkpt>
      <trkpt lat="45.53082" lon="6.02758">
        <ele>1255.674950722</ele>
        <time>2015-12-08T11:11:14Z</time>
      </trkpt>
      <trkpt lat="45.53082" lon="6.02758">
        <ele>1255.674950722</ele>
        <time>2015-12-08T11:11:19Z</time>
      </trkpt>
      <trkpt lat="45.53082" lon="6.02758">
        <ele>1255.674950722</ele>
        <time>2015-12-08T11:11:25Z</time>
      </trkpt>
      <trkpt lat="45.53082" lon="6.02758">
        <ele>1255.674950722</ele>
        <time>2015-12-08T11:11:29Z</time>
      </trkpt>
      <trkpt lat="45.53082" lon="6.02758">
        <ele>1255.674950722</ele>
        <time>2015-12-08T11:11:34Z</time>
      </trkpt>
      <trkpt lat="45.53082" lon="6.02758">
        <ele>1255.674950722</ele>
        <time>2015-12-08T11:11:39Z</time>
      </trkpt>
      <trkpt lat="45.53083" lon="6.02757">
        <ele>1255.674950722</ele>
        <time>2015-12-08T11:11:44Z</time>
      </trkpt>
      <trkpt lat="45.53083" lon="6.02756">
        <ele>1255.674950722</ele>
        <time>2015-12-08T11:11:49Z</time>
      </trkpt>
      <trkpt lat="45.53083" lon="6.02755">
        <ele>1255.674950722</ele>
        <time>2015-12-08T11:11:55Z</time>
      </trkpt>
      <trkpt lat="45.53083" lon="6.02755">
        <ele>1255.674950722</ele>
        <time>2015-12-08T11:11:59Z</time>
      </trkpt>
      <trkpt lat="45.53083" lon="6.02756">
        <ele>1258.519363553</ele>
        <time>2015-12-08T11:12:05Z</time>
      </trkpt>
      <trkpt lat="45.53082" lon="6.02755">
        <ele>1258.519363553</ele>
        <time>2015-12-08T11:12:10Z</time>
      </trkpt>
      <trkpt lat="45.53082" lon="6.02756">
        <ele>1258.519363553</ele>
        <time>2015-12-08T11:12:15Z</time>
      </trkpt>
      <trkpt lat="45.53083" lon="6.02756">
        <ele>1258.519363553</ele>
        <time>2015-12-08T11:12:20Z</time>
      </trkpt>
      <trkpt lat="45.53083" lon="6.02755">
        <ele>1258.519363553</ele>
        <time>2015-12-08T11:12:25Z</time>
      </trkpt>
      <trkpt lat="45.53085" lon="6.02754">
        <ele>1258.519363553</ele>
        <time>2015-12-08T11:12:30Z</time>
      </trkpt>
      <trkpt lat="45.53089" lon="6.02752">
        <ele>1258.519363553</ele>
        <time>2015-12-08T11:12:34Z</time>
      </trkpt>
      <trkpt lat="45.53097" lon="6.02753">
        <ele>1260.614160606</ele>
        <time>2015-12-08T11:12:40Z</time>
      </trkpt>
      <trkpt lat="45.531" lon="6.02754">
        <ele>1260.614160606</ele>
        <time>2015-12-08T11:12:45Z</time>
      </trkpt>
      <trkpt lat="45.53105" lon="6.02753">
        <ele>1260.614160606</ele>
        <time>2015-12-08T11:12:50Z</time>
      </trkpt>
      <trkpt lat="45.53109" lon="6.02751">
        <ele>1262.299774314</ele>
        <time>2015-12-08T11:12:55Z</time>
      </trkpt>
      <trkpt lat="45.53112" lon="6.02751">
        <ele>1262.299774314</ele>
        <time>2015-12-08T11:13:00Z</time>
      </trkpt>
      <trkpt lat="45.53117" lon="6.02751">
        <ele>1262.299774314</ele>
        <time>2015-12-08T11:13:05Z</time>
      </trkpt>
      <trkpt lat="45.53121" lon="6.02745">
        <ele>1263.892880273</ele>
        <time>2015-12-08T11:13:10Z</time>
      </trkpt>
      <trkpt lat="45.53125" lon="6.02741">
        <ele>1263.892880273</ele>
        <time>2015-12-08T11:13:15Z</time>
      </trkpt>
      <trkpt lat="45.53128" lon="6.02746">
        <ele>1265.110807806</ele>
        <time>2015-12-08T11:13:20Z</time>
      </trkpt>
      <trkpt lat="45.53131" lon="6.02744">
        <ele>1265.110807806</ele>
        <time>2015-12-08T11:13:25Z</time>
      </trkpt>
      <trkpt lat="45.53134" lon="6.02742">
        <ele>1265.110807806</ele>
        <time>2015-12-08T11:13:30Z</time>
      </trkpt>
      <trkpt lat="45.53138" lon="6.02738">
        <ele>1266.413356931</ele>
        <time>2015-12-08T11:13:35Z</time>
      </trkpt>
      <trkpt lat="45.5314" lon="6.02736">
        <ele>1266.413356931</ele>
        <time>2015-12-08T11:13:40Z</time>
      </trkpt>
      <trkpt lat="45.53143" lon="6.02731">
        <ele>1266.413356931</ele>
        <time>2015-12-08T11:13:45Z</time>
      </trkpt>
      <trkpt lat="45.53146" lon="6.0273">
        <ele>1267.649960902</ele>
        <time>2015-12-08T11:13:50Z</time>
      </trkpt>
      <trkpt lat="45.53152" lon="6.02733">
        <ele>1267.649960902</ele>
        <time>2015-12-08T11:13:54Z</time>
      </trkpt>
      <trkpt lat="45.53158" lon="6.02733">
        <ele>1268.969606652</ele>
        <time>2015-12-08T11:13:59Z</time>
      </trkpt>
      <trkpt lat="45.5316" lon="6.02732">
        <ele>1268.969606652</ele>
        <time>2015-12-08T11:14:04Z</time>
      </trkpt>
      <trkpt lat="45.53166" lon="6.02733">
        <ele>1268.969606652</ele>
        <time>2015-12-08T11:14:10Z</time>
      </trkpt>
      <trkpt lat="45.53171" lon="6.02734">
        <ele>1269.789626501</ele>
        <time>2015-12-08T11:14:15Z</time>
      </trkpt>
      <trkpt lat="45.53173" lon="6.02734">
        <ele>1269.789626501</ele>
        <time>2015-12-08T11:14:20Z</time>
      </trkpt>
      <trkpt lat="45.53178" lon="6.02731">
        <ele>1269.789626501</ele>
        <time>2015-12-08T11:14:25Z</time>
      </trkpt>
      <trkpt lat="45.53182" lon="6.0273">
        <ele>1270.292183379</ele>
        <time>2015-12-08T11:14:30Z</time>
      </trkpt>
      <trkpt lat="45.53187" lon="6.02726">
        <ele>1270.292183379</ele>
        <time>2015-12-08T11:14:35Z</time>
      </trkpt>
      <trkpt lat="45.53191" lon="6.02729">
        <ele>1270.502899402</ele>
        <time>2015-12-08T11:14:40Z</time>
      </trkpt>
      <trkpt lat="45.53192" lon="6.0273">
        <ele>1270.502899402</ele>
        <time>2015-12-08T11:14:45Z</time>
      </trkpt>
      <trkpt lat="45.53194" lon="6.02729">
        <ele>1270.502899402</ele>
        <time>2015-12-08T11:14:50Z</time>
      </trkpt>
      <trkpt lat="45.53201" lon="6.02725">
        <ele>1271.166940375</ele>
        <time>2015-12-08T11:14:55Z</time>
      </trkpt>
      <trkpt lat="45.53206" lon="6.02723">
        <ele>1271.166940375</ele>
        <time>2015-12-08T11:15:00Z</time>
      </trkpt>
      <trkpt lat="45.5321" lon="6.02722">
        <ele>1272.252946489</ele>
        <time>2015-12-08T11:15:05Z</time>
      </trkpt>
      <trkpt lat="45.53211" lon="6.0272">
        <ele>1272.252946489</ele>
        <time>2015-12-08T11:15:10Z</time>
      </trkpt>
      <trkpt lat="45.53213" lon="6.02717">
        <ele>1272.252946489</ele>
        <time>2015-12-08T11:15:15Z</time>
      </trkpt>
      <trkpt lat="45.53214" lon="6.02715">
        <ele>1272.252946489</ele>
        <time>2015-12-08T11:15:21Z</time>
      </trkpt>
      <trkpt lat="45.53217" lon="6.02715">
        <ele>1272.86604257</ele>
        <time>2015-12-08T11:15:25Z</time>
      </trkpt>
      <trkpt lat="45.53219" lon="6.02714">
        <ele>1272.86604257</ele>
        <time>2015-12-08T11:15:30Z</time>
      </trkpt>
      <trkpt lat="45.5322" lon="6.02714">
        <ele>1272.86604257</ele>
        <time>2015-12-08T11:15:35Z</time>
      </trkpt>
      <trkpt lat="45.53229" lon="6.02716">
        <ele>1272.898995325</ele>
        <time>2015-12-08T11:15:40Z</time>
      </trkpt>
      <trkpt lat="45.53231" lon="6.02715">
        <ele>1272.898995325</ele>
        <time>2015-12-08T11:15:45Z</time>
      </trkpt>
      <trkpt lat="45.53231" lon="6.02711">
        <ele>1272.898995325</ele>
        <time>2015-12-08T11:15:50Z</time>
      </trkpt>
      <trkpt lat="45.53231" lon="6.0271">
        <ele>1272.898995325</ele>
        <time>2015-12-08T11:15:55Z</time>
      </trkpt>
      <trkpt lat="45.53232" lon="6.02706">
        <ele>1272.898995325</ele>
        <time>2015-12-08T11:16:00Z</time>
      </trkpt>
      <trkpt lat="45.53233" lon="6.02706">
        <ele>1273.406979831</ele>
        <time>2015-12-08T11:16:05Z</time>
      </trkpt>
      <trkpt lat="45.53236" lon="6.02705">
        <ele>1273.406979831</ele>
        <time>2015-12-08T11:16:09Z</time>
      </trkpt>
      <trkpt lat="45.5324" lon="6.02704">
        <ele>1273.406979831</ele>
        <time>2015-12-08T11:16:15Z</time>
      </trkpt>
      <trkpt lat="45.53242" lon="6.02703">
        <ele>1273.925220163</ele>
        <time>2015-12-08T11:16:19Z</time>
      </trkpt>
      <trkpt lat="45.53248" lon="6.02701">
        <ele>1273.925220163</ele>
        <time>2015-12-08T11:16:25Z</time>
      </trkpt>
      <trkpt lat="45.53252" lon="6.02698">
        <ele>1275.031830152</ele>
        <time>2015-12-08T11:16:29Z</time>
      </trkpt>
      <trkpt lat="45.53258" lon="6.02703">
        <ele>1275.031830152</ele>
        <time>2015-12-08T11:16:35Z</time>
      </trkpt>
      <trkpt lat="45.53258" lon="6.02702">
        <ele>1275.031830152</ele>
        <time>2015-12-08T11:16:40Z</time>
      </trkpt>
      <trkpt lat="45.53262" lon="6.02701">
        <ele>1276.107907922</ele>
        <time>2015-12-08T11:16:45Z</time>
      </trkpt>
      <trkpt lat="45.53267" lon="6.02695">
        <ele>1276.107907922</ele>
        <time>2015-12-08T11:16:50Z</time>
      </trkpt>
      <trkpt lat="45.5327" lon="6.02694">
        <ele>1276.724200074</ele>
        <time>2015-12-08T11:16:55Z</time>
      </trkpt>
      <trkpt lat="45.53276" lon="6.02693">
        <ele>1276.724200074</ele>
        <time>2015-12-08T11:17:00Z</time>
      </trkpt>
      <trkpt lat="45.5328" lon="6.02691">
        <ele>1276.34014664</ele>
        <time>2015-12-08T11:17:05Z</time>
      </trkpt>
      <trkpt lat="45.53285" lon="6.02687">
        <ele>1276.34014664</ele>
        <time>2015-12-08T11:17:10Z</time>
      </trkpt>
      <trkpt lat="45.53287" lon="6.02687">
        <ele>1276.34014664</ele>
        <time>2015-12-08T11:17:15Z</time>
      </trkpt>
      <trkpt lat="45.53288" lon="6.02687">
        <ele>1276.34014664</ele>
        <time>2015-12-08T11:17:20Z</time>
      </trkpt>
      <trkpt lat="45.53296" lon="6.02683">
        <ele>1276.619347332</ele>
        <time>2015-12-08T11:17:25Z</time>
      </trkpt>
      <trkpt lat="45.53298" lon="6.02681">
        <ele>1276.619347332</ele>
        <time>2015-12-08T11:17:30Z</time>
      </trkpt>
      <trkpt lat="45.53304" lon="6.02675">
        <ele>1276.363190776</ele>
        <time>2015-12-08T11:17:35Z</time>
      </trkpt>
      <trkpt lat="45.5331" lon="6.02676">
        <ele>1276.363190776</ele>
        <time>2015-12-08T11:17:40Z</time>
      </trkpt>
      <trkpt lat="45.53319" lon="6.02677">
        <ele>1276.19191042</ele>
        <time>2015-12-08T11:17:45Z</time>
      </trkpt>
      <trkpt lat="45.53325" lon="6.02675">
        <ele>1276.19191042</ele>
        <time>2015-12-08T11:17:50Z</time>
      </trkpt>
      <trkpt lat="45.53332" lon="6.02673">
        <ele>1275.81522269</ele>
        <time>2015-12-08T11:17:55Z</time>
      </trkpt>
      <trkpt lat="45.53338" lon="6.02674">
        <ele>1275.81522269</ele>
        <time>2015-12-08T11:18:00Z</time>
      </trkpt>
      <trkpt lat="45.53339" lon="6.02672">
        <ele>1275.81522269</ele>
        <time>2015-12-08T11:18:05Z</time>
      </trkpt>
      <trkpt lat="45.53345" lon="6.0267">
        <ele>1275.397018784</ele>
        <time>2015-12-08T11:18:10Z</time>
      </trkpt>
      <trkpt lat="45.53347" lon="6.02671">
        <ele>1275.397018784</ele>
        <time>2015-12-08T11:18:15Z</time>
      </trkpt>
      <trkpt lat="45.53349" lon="6.02668">
        <ele>1275.397018784</ele>
        <time>2015-12-08T11:18:20Z</time>
      </trkpt>
      <trkpt lat="45.53353" lon="6.0267">
        <ele>1274.656864688</ele>
        <time>2015-12-08T11:18:26Z</time>
      </trkpt>
      <trkpt lat="45.53356" lon="6.0267">
        <ele>1274.656864688</ele>
        <time>2015-12-08T11:18:30Z</time>
      </trkpt>
      <trkpt lat="45.53364" lon="6.02668">
        <ele>1273.912196235</ele>
        <time>2015-12-08T11:18:35Z</time>
      </trkpt>
      <trkpt lat="45.53368" lon="6.02671">
        <ele>1273.912196235</ele>
        <time>2015-12-08T11:18:40Z</time>
      </trkpt>
      <trkpt lat="45.53375" lon="6.0267">
        <ele>1272.592387046</ele>
        <time>2015-12-08T11:18:45Z</time>
      </trkpt>
      <trkpt lat="45.53381" lon="6.02672">
        <ele>1272.592387046</ele>
        <time>2015-12-08T11:18:50Z</time>
      </trkpt>
      <trkpt lat="45.5339" lon="6.02668">
        <ele>1271.755465385</ele>
        <time>2015-12-08T11:18:55Z</time>
      </trkpt>
      <trkpt lat="45.53398" lon="6.02664">
        <ele>1271.755465385</ele>
        <time>2015-12-08T11:19:00Z</time>
      </trkpt>
      <trkpt lat="45.53401" lon="6.02661">
        <ele>1271.65971851</ele>
        <time>2015-12-08T11:19:04Z</time>
      </trkpt>
      <trkpt lat="45.53408" lon="6.02662">
        <ele>1271.65971851</ele>
        <time>2015-12-08T11:19:10Z</time>
      </trkpt>
      <trkpt lat="45.53411" lon="6.02661">
        <ele>1271.245264344</ele>
        <time>2015-12-08T11:19:15Z</time>
      </trkpt>
      <trkpt lat="45.53416" lon="6.02657">
        <ele>1271.245264344</ele>
        <time>2015-12-08T11:19:20Z</time>
      </trkpt>
      <trkpt lat="45.53418" lon="6.02655">
        <ele>1271.245264344</ele>
        <time>2015-12-08T11:19:25Z</time>
      </trkpt>
      <trkpt lat="45.5342" lon="6.02648">
        <ele>1271.548409383</ele>
        <time>2015-12-08T11:19:30Z</time>
      </trkpt>
      <trkpt lat="45.53425" lon="6.02643">
        <ele>1271.548409383</ele>
        <time>2015-12-08T11:19:34Z</time>
      </trkpt>
      <trkpt lat="45.53426" lon="6.02639">
        <ele>1271.548409383</ele>
        <time>2015-12-08T11:19:40Z</time>
      </trkpt>
      <trkpt lat="45.5343" lon="6.02638">
        <ele>1272.374310994</ele>
        <time>2015-12-08T11:19:45Z</time>
      </trkpt>
      <trkpt lat="45.53434" lon="6.02638">
        <ele>1272.374310994</ele>
        <time>2015-12-08T11:19:50Z</time>
      </trkpt>
      <trkpt lat="45.53441" lon="6.02632">
        <ele>1273.396744811</ele>
        <time>2015-12-08T11:19:55Z</time>
      </trkpt>
      <trkpt lat="45.53443" lon="6.02631">
        <ele>1273.396744811</ele>
        <time>2015-12-08T11:20:00Z</time>
      </trkpt>
      <trkpt lat="45.53447" lon="6.0263">
        <ele>1273.396744811</ele>
        <time>2015-12-08T11:20:05Z</time>
      </trkpt>
      <trkpt lat="45.53457" lon="6.02628">
        <ele>1274.024564862</ele>
        <time>2015-12-08T11:20:10Z</time>
      </trkpt>
      <trkpt lat="45.53463" lon="6.02629">
        <ele>1274.024564862</ele>
        <time>2015-12-08T11:20:15Z</time>
      </trkpt>
      <trkpt lat="45.53471" lon="6.02625">
        <ele>1274.28749603</ele>
        <time>2015-12-08T11:20:20Z</time>
      </trkpt>
      <trkpt lat="45.53478" lon="6.02626">
        <ele>1274.28749603</ele>
        <time>2015-12-08T11:20:25Z</time>
      </trkpt>
      <trkpt lat="45.53484" lon="6.02623">
        <ele>1274.069890978</ele>
        <time>2015-12-08T11:20:30Z</time>
      </trkpt>
      <trkpt lat="45.53485" lon="6.02619">
        <ele>1274.069890978</ele>
        <time>2015-12-08T11:20:35Z</time>
      </trkpt>
      <trkpt lat="45.53487" lon="6.02618">
        <ele>1274.069890978</ele>
        <time>2015-12-08T11:20:40Z</time>
      </trkpt>
      <trkpt lat="45.5349" lon="6.02616">
        <ele>1274.069890978</ele>
        <time>2015-12-08T11:20:45Z</time>
      </trkpt>
      <trkpt lat="45.53495" lon="6.02615">
        <ele>1274.130515146</ele>
        <time>2015-12-08T11:20:50Z</time>
      </trkpt>
      <trkpt lat="45.53499" lon="6.02616">
        <ele>1274.130515146</ele>
        <time>2015-12-08T11:20:55Z</time>
      </trkpt>
      <trkpt lat="45.53506" lon="6.02611">
        <ele>1274.162740734</ele>
        <time>2015-12-08T11:21:00Z</time>
      </trkpt>
      <trkpt lat="45.5351" lon="6.02608">
        <ele>1274.162740734</ele>
        <time>2015-12-08T11:21:05Z</time>
      </trkpt>
      <trkpt lat="45.53513" lon="6.02611">
        <ele>1274.162740734</ele>
        <time>2015-12-08T11:21:10Z</time>
      </trkpt>
      <trkpt lat="45.53526" lon="6.02608">
        <ele>1274.458894145</ele>
        <time>2015-12-08T11:21:15Z</time>
      </trkpt>
      <trkpt lat="45.53532" lon="6.02603">
        <ele>1274.458894145</ele>
        <time>2015-12-08T11:21:20Z</time>
      </trkpt>
      <trkpt lat="45.53538" lon="6.026">
        <ele>1274.856660759</ele>
        <time>2015-12-08T11:21:24Z</time>
      </trkpt>
      <trkpt lat="45.53543" lon="6.02598">
        <ele>1274.856660759</ele>
        <time>2015-12-08T11:21:30Z</time>
      </trkpt>
      <trkpt lat="45.53544" lon="6.02595">
        <ele>1274.856660759</ele>
        <time>2015-12-08T11:21:34Z</time>
      </trkpt>
      <trkpt lat="45.53545" lon="6.02595">
        <ele>1274.856660759</ele>
        <time>2015-12-08T11:21:40Z</time>
      </trkpt>
      <trkpt lat="45.53546" lon="6.02595">
        <ele>1274.917051497</ele>
        <time>2015-12-08T11:21:45Z</time>
      </trkpt>
      <trkpt lat="45.53546" lon="6.02595">
        <ele>1274.917051497</ele>
        <time>2015-12-08T11:21:50Z</time>
      </trkpt>
      <trkpt lat="45.53546" lon="6.02591">
        <ele>1274.917051497</ele>
        <time>2015-12-08T11:21:55Z</time>
      </trkpt>
      <trkpt lat="45.53551" lon="6.02594">
        <ele>1274.917051497</ele>
        <time>2015-12-08T11:22:00Z</time>
      </trkpt>
      <trkpt lat="45.53555" lon="6.02594">
        <ele>1275.098850919</ele>
        <time>2015-12-08T11:22:05Z</time>
      </trkpt>
      <trkpt lat="45.5356" lon="6.02592">
        <ele>1275.098850919</ele>
        <time>2015-12-08T11:22:10Z</time>
      </trkpt>
      <trkpt lat="45.53567" lon="6.02587">
        <ele>1275.682605815</ele>
        <time>2015-12-08T11:22:15Z</time>
      </trkpt>
      <trkpt lat="45.53572" lon="6.02583">
        <ele>1275.682605815</ele>
        <time>2015-12-08T11:22:20Z</time>
      </trkpt>
      <trkpt lat="45.53582" lon="6.02583">
        <ele>1275.774156341</ele>
        <time>2015-12-08T11:22:25Z</time>
      </trkpt>
      <trkpt lat="45.53588" lon="6.02582">
        <ele>1275.774156341</ele>
        <time>2015-12-08T11:22:30Z</time>
      </trkpt>
      <trkpt lat="45.53592" lon="6.02584">
        <ele>1276.275664737</ele>
        <time>2015-12-08T11:22:35Z</time>
      </trkpt>
      <trkpt lat="45.53594" lon="6.02584">
        <ele>1276.275664737</ele>
        <time>2015-12-08T11:22:40Z</time>
      </trkpt>
      <trkpt lat="45.53599" lon="6.02589">
        <ele>1276.275664737</ele>
        <time>2015-12-08T11:22:45Z</time>
      </trkpt>
      <trkpt lat="45.53601" lon="6.02587">
        <ele>1276.868908763</ele>
        <time>2015-12-08T11:22:50Z</time>
      </trkpt>
      <trkpt lat="45.53604" lon="6.02587">
        <ele>1276.868908763</ele>
        <time>2015-12-08T11:22:55Z</time>
      </trkpt>
      <trkpt lat="45.53606" lon="6.02587">
        <ele>1276.868908763</ele>
        <time>2015-12-08T11:23:00Z</time>
      </trkpt>
      <trkpt lat="45.53607" lon="6.02587">
        <ele>1276.868908763</ele>
        <time>2015-12-08T11:23:05Z</time>
      </trkpt>
      <trkpt lat="45.53611" lon="6.02588">
        <ele>1277.691051136</ele>
        <time>2015-12-08T11:23:10Z</time>
      </trkpt>
      <trkpt lat="45.53615" lon="6.02589">
        <ele>1277.691051136</ele>
        <time>2015-12-08T11:23:15Z</time>
      </trkpt>
      <trkpt lat="45.53616" lon="6.02586">
        <ele>1277.691051136</ele>
        <time>2015-12-08T11:23:20Z</time>
      </trkpt>
      <trkpt lat="45.53619" lon="6.02585">
        <ele>1279.300809443</ele>
        <time>2015-12-08T11:23:25Z</time>
      </trkpt>
      <trkpt lat="45.53621" lon="6.02579">
        <ele>1279.300809443</ele>
        <time>2015-12-08T11:23:30Z</time>
      </trkpt>
      <trkpt lat="45.53628" lon="6.0258">
        <ele>1279.619593772</ele>
        <time>2015-12-08T11:23:35Z</time>
      </trkpt>
      <trkpt lat="45.53632" lon="6.02576">
        <ele>1279.619593772</ele>
        <time>2015-12-08T11:23:40Z</time>
      </trkpt>
      <trkpt lat="45.53634" lon="6.02576">
        <ele>1279.619593772</ele>
        <time>2015-12-08T11:23:45Z</time>
      </trkpt>
      <trkpt lat="45.53638" lon="6.02574">
        <ele>1280.039637629</ele>
        <time>2015-12-08T11:23:50Z</time>
      </trkpt>
      <trkpt lat="45.53646" lon="6.02574">
        <ele>1280.039637629</ele>
        <time>2015-12-08T11:23:55Z</time>
      </trkpt>
      <trkpt lat="45.53655" lon="6.02576">
        <ele>1280.409465025</ele>
        <time>2015-12-08T11:24:00Z</time>
      </trkpt>
      <trkpt lat="45.53658" lon="6.02573">
        <ele>1280.409465025</ele>
        <time>2015-12-08T11:24:05Z</time>
      </trkpt>
      <trkpt lat="45.53662" lon="6.02575">
        <ele>1280.409465025</ele>
        <time>2015-12-08T11:24:10Z</time>
      </trkpt>
      <trkpt lat="45.53663" lon="6.02574">
        <ele>1280.300608077</ele>
        <time>2015-12-08T11:24:15Z</time>
      </trkpt>
      <trkpt lat="45.53666" lon="6.02571">
        <ele>1280.300608077</ele>
        <time>2015-12-08T11:24:20Z</time>
      </trkpt>
      <trkpt lat="45.53672" lon="6.02571">
        <ele>1280.182046861</ele>
        <time>2015-12-08T11:24:25Z</time>
      </trkpt>
      <trkpt lat="45.53677" lon="6.02575">
        <ele>1280.182046861</ele>
        <time>2015-12-08T11:24:30Z</time>
      </trkpt>
      <trkpt lat="45.5368" lon="6.02579">
        <ele>1279.623632993</ele>
        <time>2015-12-08T11:24:35Z</time>
      </trkpt>
      <trkpt lat="45.53679" lon="6.02584">
        <ele>1279.623632993</ele>
        <time>2015-12-08T11:24:40Z</time>
      </trkpt>
      <trkpt lat="45.5368" lon="6.02583">
        <ele>1279.623632993</ele>
        <time>2015-12-08T11:24:45Z</time>
      </trkpt>
      <trkpt lat="45.53681" lon="6.02582">
        <ele>1279.623632993</ele>
        <time>2015-12-08T11:24:50Z</time>
      </trkpt>
      <trkpt lat="45.53682" lon="6.02582">
        <ele>1279.623632993</ele>
        <time>2015-12-08T11:24:55Z</time>
      </trkpt>
      <trkpt lat="45.53682" lon="6.02582">
        <ele>1279.623632993</ele>
        <time>2015-12-08T11:25:00Z</time>
      </trkpt>
      <trkpt lat="45.53682" lon="6.02582">
        <ele>1279.623632993</ele>
        <time>2015-12-08T11:25:05Z</time>
      </trkpt>
      <trkpt lat="45.53682" lon="6.02581">
        <ele>1279.623632993</ele>
        <time>2015-12-08T11:25:10Z</time>
      </trkpt>
      <trkpt lat="45.53683" lon="6.02582">
        <ele>1279.623632993</ele>
        <time>2015-12-08T11:25:15Z</time>
      </trkpt>
      <trkpt lat="45.53683" lon="6.02581">
        <ele>1279.623632993</ele>
        <time>2015-12-08T11:25:20Z</time>
      </trkpt>
      <trkpt lat="45.53683" lon="6.02581">
        <ele>1279.623632993</ele>
        <time>2015-12-08T11:25:25Z</time>
      </trkpt>
      <trkpt lat="45.53683" lon="6.02581">
        <ele>1279.623632993</ele>
        <time>2015-12-08T11:25:29Z</time>
      </trkpt>
      <trkpt lat="45.53684" lon="6.02581">
        <ele>1279.623632993</ele>
        <time>2015-12-08T11:25:35Z</time>
      </trkpt>
      <trkpt lat="45.53686" lon="6.02583">
        <ele>1279.092677566</ele>
        <time>2015-12-08T11:25:39Z</time>
      </trkpt>
      <trkpt lat="45.53688" lon="6.02583">
        <ele>1279.092677566</ele>
        <time>2015-12-08T11:25:44Z</time>
      </trkpt>
      <trkpt lat="45.53691" lon="6.02588">
        <ele>1279.092677566</ele>
        <time>2015-12-08T11:25:49Z</time>
      </trkpt>
      <trkpt lat="45.53691" lon="6.02586">
        <ele>1279.092677566</ele>
        <time>2015-12-08T11:25:54Z</time>
      </trkpt>
      <trkpt lat="45.53696" lon="6.02581">
        <ele>1279.454377948</ele>
        <time>2015-12-08T11:25:59Z</time>
      </trkpt>
      <trkpt lat="45.53698" lon="6.0258">
        <ele>1279.454377948</ele>
        <time>2015-12-08T11:26:04Z</time>
      </trkpt>
      <trkpt lat="45.53698" lon="6.0258">
        <ele>1279.454377948</ele>
        <time>2015-12-08T11:26:09Z</time>
      </trkpt>
      <trkpt lat="45.53698" lon="6.0258">
        <ele>1279.454377948</ele>
        <time>2015-12-08T11:26:15Z</time>
      </trkpt>
      <trkpt lat="45.53699" lon="6.0258">
        <ele>1279.454377948</ele>
        <time>2015-12-08T11:26:19Z</time>
      </trkpt>
      <trkpt lat="45.53699" lon="6.0258">
        <ele>1279.454377948</ele>
        <time>2015-12-08T11:26:24Z</time>
      </trkpt>
      <trkpt lat="45.53699" lon="6.0258">
        <ele>1279.454377948</ele>
        <time>2015-12-08T11:26:29Z</time>
      </trkpt>
      <trkpt lat="45.53699" lon="6.0258">
        <ele>1279.454377948</ele>
        <time>2015-12-08T11:26:34Z</time>
      </trkpt>
      <trkpt lat="45.53699" lon="6.0258">
        <ele>1279.454377948</ele>
        <time>2015-12-08T11:26:39Z</time>
      </trkpt>
      <trkpt lat="45.53699" lon="6.0258">
        <ele>1279.454377948</ele>
        <time>2015-12-08T11:26:45Z</time>
      </trkpt>
      <trkpt lat="45.53699" lon="6.0258">
        <ele>1279.454377948</ele>
        <time>2015-12-08T11:26:49Z</time>
      </trkpt>
      <trkpt lat="45.53699" lon="6.0258">
        <ele>1279.454377948</ele>
        <time>2015-12-08T11:26:54Z</time>
      </trkpt>
      <trkpt lat="45.53699" lon="6.0258">
        <ele>1279.454377948</ele>
        <time>2015-12-08T11:26:59Z</time>
      </trkpt>
      <trkpt lat="45.53699" lon="6.0258">
        <ele>1279.454377948</ele>
        <time>2015-12-08T11:27:05Z</time>
      </trkpt>
      <trkpt lat="45.53699" lon="6.0258">
        <ele>1279.454377948</ele>
        <time>2015-12-08T11:27:09Z</time>
      </trkpt>
      <trkpt lat="45.53699" lon="6.0258">
        <ele>1279.454377948</ele>
        <time>2015-12-08T11:27:14Z</time>
      </trkpt>
      <trkpt lat="45.53699" lon="6.0258">
        <ele>1279.454377948</ele>
        <time>2015-12-08T11:27:19Z</time>
      </trkpt>
      <trkpt lat="45.53699" lon="6.0258">
        <ele>1279.454377948</ele>
        <time>2015-12-08T11:27:24Z</time>
      </trkpt>
      <trkpt lat="45.53699" lon="6.0258">
        <ele>1279.454377948</ele>
        <time>2015-12-08T11:27:29Z</time>
      </trkpt>
      <trkpt lat="45.53699" lon="6.0258">
        <ele>1279.454377948</ele>
        <time>2015-12-08T11:27:35Z</time>
      </trkpt>
      <trkpt lat="45.53699" lon="6.0258">
        <ele>1279.454377948</ele>
        <time>2015-12-08T11:27:39Z</time>
      </trkpt>
      <trkpt lat="45.53699" lon="6.0258">
        <ele>1279.454377948</ele>
        <time>2015-12-08T11:27:44Z</time>
      </trkpt>
      <trkpt lat="45.53699" lon="6.0258">
        <ele>1279.454377948</ele>
        <time>2015-12-08T11:27:49Z</time>
      </trkpt>
      <trkpt lat="45.53699" lon="6.0258">
        <ele>1279.454377948</ele>
        <time>2015-12-08T11:27:54Z</time>
      </trkpt>
      <trkpt lat="45.53699" lon="6.0258">
        <ele>1279.454377948</ele>
        <time>2015-12-08T11:27:59Z</time>
      </trkpt>
      <trkpt lat="45.53699" lon="6.0258">
        <ele>1279.454377948</ele>
        <time>2015-12-08T11:28:04Z</time>
      </trkpt>
      <trkpt lat="45.53699" lon="6.0258">
        <ele>1279.454377948</ele>
        <time>2015-12-08T11:28:10Z</time>
      </trkpt>
      <trkpt lat="45.53699" lon="6.0258">
        <ele>1279.454377948</ele>
        <time>2015-12-08T11:28:14Z</time>
      </trkpt>
      <trkpt lat="45.53699" lon="6.0258">
        <ele>1279.454377948</ele>
        <time>2015-12-08T11:28:20Z</time>
      </trkpt>
      <trkpt lat="45.53699" lon="6.02579">
        <ele>1279.454377948</ele>
        <time>2015-12-08T11:28:24Z</time>
      </trkpt>
      <trkpt lat="45.53697" lon="6.02584">
        <ele>1279.454377948</ele>
        <time>2015-12-08T11:28:30Z</time>
      </trkpt>
      <trkpt lat="45.53698" lon="6.02585">
        <ele>1279.454377948</ele>
        <time>2015-12-08T11:28:35Z</time>
      </trkpt>
      <trkpt lat="45.53697" lon="6.02587">
        <ele>1280.210827587</ele>
        <time>2015-12-08T11:28:40Z</time>
      </trkpt>
      <trkpt lat="45.53697" lon="6.02588">
        <ele>1280.210827587</ele>
        <time>2015-12-08T11:28:45Z</time>
      </trkpt>
      <trkpt lat="45.53698" lon="6.02589">
        <ele>1280.210827587</ele>
        <time>2015-12-08T11:28:50Z</time>
      </trkpt>
      <trkpt lat="45.53698" lon="6.02589">
        <ele>1280.210827587</ele>
        <time>2015-12-08T11:28:55Z</time>
      </trkpt>
      <trkpt lat="45.53698" lon="6.0259">
        <ele>1280.210827587</ele>
        <time>2015-12-08T11:29:00Z</time>
      </trkpt>
      <trkpt lat="45.53698" lon="6.0259">
        <ele>1280.210827587</ele>
        <time>2015-12-08T11:29:05Z</time>
      </trkpt>
      <trkpt lat="45.53698" lon="6.0259">
        <ele>1280.210827587</ele>
        <time>2015-12-08T11:29:11Z</time>
      </trkpt>
      <trkpt lat="45.53698" lon="6.0259">
        <ele>1280.210827587</ele>
        <time>2015-12-08T11:29:14Z</time>
      </trkpt>
      <trkpt lat="45.53699" lon="6.02592">
        <ele>1280.210827587</ele>
        <time>2015-12-08T11:29:19Z</time>
      </trkpt>
      <trkpt lat="45.537" lon="6.02594">
        <ele>1280.210827587</ele>
        <time>2015-12-08T11:29:24Z</time>
      </trkpt>
      <trkpt lat="45.537" lon="6.02594">
        <ele>1280.210827587</ele>
        <time>2015-12-08T11:29:29Z</time>
      </trkpt>
      <trkpt lat="45.53701" lon="6.02593">
        <ele>1280.210827587</ele>
        <time>2015-12-08T11:29:34Z</time>
      </trkpt>
      <trkpt lat="45.53701" lon="6.02593">
        <ele>1280.210827587</ele>
        <time>2015-12-08T11:29:39Z</time>
      </trkpt>
      <trkpt lat="45.53701" lon="6.02594">
        <ele>1280.210827587</ele>
        <time>2015-12-08T11:29:44Z</time>
      </trkpt>
      <trkpt lat="45.537" lon="6.02594">
        <ele>1280.210827587</ele>
        <time>2015-12-08T11:29:49Z</time>
      </trkpt>
      <trkpt lat="45.537" lon="6.02594">
        <ele>1280.210827587</ele>
        <time>2015-12-08T11:29:54Z</time>
      </trkpt>
      <trkpt lat="45.537" lon="6.02594">
        <ele>1280.210827587</ele>
        <time>2015-12-08T11:29:59Z</time>
      </trkpt>
      <trkpt lat="45.537" lon="6.02594">
        <ele>1280.210827587</ele>
        <time>2015-12-08T11:30:04Z</time>
      </trkpt>
      <trkpt lat="45.537" lon="6.02594">
        <ele>1280.210827587</ele>
        <time>2015-12-08T11:30:10Z</time>
      </trkpt>
      <trkpt lat="45.537" lon="6.02594">
        <ele>1280.210827587</ele>
        <time>2015-12-08T11:30:14Z</time>
      </trkpt>
      <trkpt lat="45.537" lon="6.02594">
        <ele>1280.210827587</ele>
        <time>2015-12-08T11:30:20Z</time>
      </trkpt>
      <trkpt lat="45.537" lon="6.02594">
        <ele>1280.210827587</ele>
        <time>2015-12-08T11:30:24Z</time>
      </trkpt>
      <trkpt lat="45.537" lon="6.02594">
        <ele>1280.210827587</ele>
        <time>2015-12-08T11:30:30Z</time>
      </trkpt>
      <trkpt lat="45.537" lon="6.02594">
        <ele>1280.210827587</ele>
        <time>2015-12-08T11:30:34Z</time>
      </trkpt>
      <trkpt lat="45.537" lon="6.02594">
        <ele>1280.210827587</ele>
        <time>2015-12-08T11:30:39Z</time>
      </trkpt>
      <trkpt lat="45.537" lon="6.02594">
        <ele>1280.210827587</ele>
        <time>2015-12-08T11:30:44Z</time>
      </trkpt>
      <trkpt lat="45.537" lon="6.02594">
        <ele>1280.210827587</ele>
        <time>2015-12-08T11:30:49Z</time>
      </trkpt>
      <trkpt lat="45.537" lon="6.02594">
        <ele>1280.210827587</ele>
        <time>2015-12-08T11:30:54Z</time>
      </trkpt>
      <trkpt lat="45.537" lon="6.02594">
        <ele>1280.210827587</ele>
        <time>2015-12-08T11:30:59Z</time>
      </trkpt>
      <trkpt lat="45.537" lon="6.02594">
        <ele>1280.210827587</ele>
        <time>2015-12-08T11:31:04Z</time>
      </trkpt>
      <trkpt lat="45.537" lon="6.02594">
        <ele>1280.210827587</ele>
        <time>2015-12-08T11:31:10Z</time>
      </trkpt>
      <trkpt lat="45.537" lon="6.02594">
        <ele>1280.210827587</ele>
        <time>2015-12-08T11:31:14Z</time>
      </trkpt>
      <trkpt lat="45.537" lon="6.02594">
        <ele>1280.210827587</ele>
        <time>2015-12-08T11:31:19Z</time>
      </trkpt>
      <trkpt lat="45.537" lon="6.02594">
        <ele>1280.210827587</ele>
        <time>2015-12-08T11:31:24Z</time>
      </trkpt>
      <trkpt lat="45.537" lon="6.02594">
        <ele>1280.210827587</ele>
        <time>2015-12-08T11:31:29Z</time>
      </trkpt>
      <trkpt lat="45.537" lon="6.02594">
        <ele>1280.210827587</ele>
        <time>2015-12-08T11:31:34Z</time>
      </trkpt>
      <trkpt lat="45.537" lon="6.02594">
        <ele>1280.210827587</ele>
        <time>2015-12-08T11:31:39Z</time>
      </trkpt>
      <trkpt lat="45.537" lon="6.02594">
        <ele>1280.210827587</ele>
        <time>2015-12-08T11:31:44Z</time>
      </trkpt>
      <trkpt lat="45.537" lon="6.02594">
        <ele>1280.210827587</ele>
        <time>2015-12-08T11:31:49Z</time>
      </trkpt>
      <trkpt lat="45.537" lon="6.02594">
        <ele>1280.210827587</ele>
        <time>2015-12-08T11:31:54Z</time>
      </trkpt>
      <trkpt lat="45.537" lon="6.02594">
        <ele>1280.210827587</ele>
        <time>2015-12-08T11:32:00Z</time>
      </trkpt>
      <trkpt lat="45.537" lon="6.02594">
        <ele>1280.210827587</ele>
        <time>2015-12-08T11:32:04Z</time>
      </trkpt>
      <trkpt lat="45.537" lon="6.02594">
        <ele>1280.210827587</ele>
        <time>2015-12-08T11:32:09Z</time>
      </trkpt>
      <trkpt lat="45.537" lon="6.02594">
        <ele>1280.210827587</ele>
        <time>2015-12-08T11:32:15Z</time>
      </trkpt>
      <trkpt lat="45.537" lon="6.02594">
        <ele>1280.210827587</ele>
        <time>2015-12-08T11:32:19Z</time>
      </trkpt>
      <trkpt lat="45.537" lon="6.02594">
        <ele>1280.210827587</ele>
        <time>2015-12-08T11:32:24Z</time>
      </trkpt>
      <trkpt lat="45.537" lon="6.02594">
        <ele>1280.210827587</ele>
        <time>2015-12-08T11:32:29Z</time>
      </trkpt>
      <trkpt lat="45.537" lon="6.02594">
        <ele>1280.210827587</ele>
        <time>2015-12-08T11:32:34Z</time>
      </trkpt>
      <trkpt lat="45.537" lon="6.02594">
        <ele>1280.210827587</ele>
        <time>2015-12-08T11:32:39Z</time>
      </trkpt>
      <trkpt lat="45.537" lon="6.02594">
        <ele>1280.210827587</ele>
        <time>2015-12-08T11:32:44Z</time>
      </trkpt>
      <trkpt lat="45.537" lon="6.02594">
        <ele>1280.210827587</ele>
        <time>2015-12-08T11:32:49Z</time>
      </trkpt>
      <trkpt lat="45.537" lon="6.02594">
        <ele>1280.210827587</ele>
        <time>2015-12-08T11:32:54Z</time>
      </trkpt>
      <trkpt lat="45.537" lon="6.02594">
        <ele>1280.210827587</ele>
        <time>2015-12-08T11:32:59Z</time>
      </trkpt>
      <trkpt lat="45.537" lon="6.02594">
        <ele>1280.210827587</ele>
        <time>2015-12-08T11:33:04Z</time>
      </trkpt>
      <trkpt lat="45.537" lon="6.02594">
        <ele>1280.210827587</ele>
        <time>2015-12-08T11:33:09Z</time>
      </trkpt>
      <trkpt lat="45.537" lon="6.02594">
        <ele>1280.210827587</ele>
        <time>2015-12-08T11:33:14Z</time>
      </trkpt>
      <trkpt lat="45.537" lon="6.02594">
        <ele>1280.210827587</ele>
        <time>2015-12-08T11:33:20Z</time>
      </trkpt>
      <trkpt lat="45.537" lon="6.02594">
        <ele>1280.210827587</ele>
        <time>2015-12-08T11:33:24Z</time>
      </trkpt>
      <trkpt lat="45.537" lon="6.02594">
        <ele>1280.210827587</ele>
        <time>2015-12-08T11:33:29Z</time>
      </trkpt>
      <trkpt lat="45.537" lon="6.02594">
        <ele>1280.210827587</ele>
        <time>2015-12-08T11:33:34Z</time>
      </trkpt>
      <trkpt lat="45.537" lon="6.02594">
        <ele>1280.210827587</ele>
        <time>2015-12-08T11:33:39Z</time>
      </trkpt>
      <trkpt lat="45.537" lon="6.02594">
        <ele>1280.210827587</ele>
        <time>2015-12-08T11:33:44Z</time>
      </trkpt>
      <trkpt lat="45.537" lon="6.02594">
        <ele>1280.210827587</ele>
        <time>2015-12-08T11:33:49Z</time>
      </trkpt>
      <trkpt lat="45.537" lon="6.02594">
        <ele>1280.210827587</ele>
        <time>2015-12-08T11:33:54Z</time>
      </trkpt>
      <trkpt lat="45.537" lon="6.02594">
        <ele>1280.210827587</ele>
        <time>2015-12-08T11:33:59Z</time>
      </trkpt>
      <trkpt lat="45.537" lon="6.02594">
        <ele>1280.210827587</ele>
        <time>2015-12-08T11:34:04Z</time>
      </trkpt>
      <trkpt lat="45.537" lon="6.02594">
        <ele>1280.210827587</ele>
        <time>2015-12-08T11:34:09Z</time>
      </trkpt>
      <trkpt lat="45.537" lon="6.02594">
        <ele>1280.210827587</ele>
        <time>2015-12-08T11:34:14Z</time>
      </trkpt>
      <trkpt lat="45.537" lon="6.02594">
        <ele>1280.210827587</ele>
        <time>2015-12-08T11:34:19Z</time>
      </trkpt>
      <trkpt lat="45.537" lon="6.02594">
        <ele>1280.210827587</ele>
        <time>2015-12-08T11:34:42Z</time>
      </trkpt>
      <trkpt lat="45.537" lon="6.02594">
        <ele>1280.210827587</ele>
        <time>2015-12-08T11:34:42Z</time>
      </trkpt>
      <trkpt lat="45.537" lon="6.02594">
        <ele>1280.210827587</ele>
        <time>2015-12-08T11:34:49Z</time>
      </trkpt>
      <trkpt lat="45.537" lon="6.02594">
        <ele>1280.210827587</ele>
        <time>2015-12-08T11:34:49Z</time>
      </trkpt>
      <trkpt lat="45.537" lon="6.02594">
        <ele>1280.210827587</ele>
        <time>2015-12-08T11:35:10Z</time>
      </trkpt>
      <trkpt lat="45.53701" lon="6.02594">
        <ele>1280.899547385</ele>
        <time>2015-12-08T11:35:20Z</time>
      </trkpt>
      <trkpt lat="45.53706" lon="6.02593">
        <ele>1280.899547385</ele>
        <time>2015-12-08T11:35:24Z</time>
      </trkpt>
      <trkpt lat="45.5371" lon="6.02593">
        <ele>1280.899547385</ele>
        <time>2015-12-08T11:35:29Z</time>
      </trkpt>
      <trkpt lat="45.53713" lon="6.0259">
        <ele>1281.812740699</ele>
        <time>2015-12-08T11:35:35Z</time>
      </trkpt>
      <trkpt lat="45.53717" lon="6.02584">
        <ele>1281.812740699</ele>
        <time>2015-12-08T11:35:40Z</time>
      </trkpt>
      <trkpt lat="45.5372" lon="6.02581">
        <ele>1281.812740699</ele>
        <time>2015-12-08T11:35:45Z</time>
      </trkpt>
      <trkpt lat="45.53722" lon="6.02579">
        <ele>1282.932263485</ele>
        <time>2015-12-08T11:35:50Z</time>
      </trkpt>
      <trkpt lat="45.53728" lon="6.02573">
        <ele>1282.932263485</ele>
        <time>2015-12-08T11:35:55Z</time>
      </trkpt>
      <trkpt lat="45.5373" lon="6.02571">
        <ele>1283.95248025</ele>
        <time>2015-12-08T11:35:59Z</time>
      </trkpt>
      <trkpt lat="45.53732" lon="6.02572">
        <ele>1283.95248025</ele>
        <time>2015-12-08T11:36:04Z</time>
      </trkpt>
      <trkpt lat="45.53737" lon="6.02574">
        <ele>1283.95248025</ele>
        <time>2015-12-08T11:36:09Z</time>
      </trkpt>
      <trkpt lat="45.53738" lon="6.02571">
        <ele>1284.446357949</ele>
        <time>2015-12-08T11:36:15Z</time>
      </trkpt>
      <trkpt lat="45.53741" lon="6.02571">
        <ele>1284.446357949</ele>
        <time>2015-12-08T11:36:20Z</time>
      </trkpt>
      <trkpt lat="45.53746" lon="6.02569">
        <ele>1284.446357949</ele>
        <time>2015-12-08T11:36:25Z</time>
      </trkpt>
      <trkpt lat="45.53748" lon="6.02568">
        <ele>1285.172588375</ele>
        <time>2015-12-08T11:36:30Z</time>
      </trkpt>
      <trkpt lat="45.53749" lon="6.02569">
        <ele>1285.172588375</ele>
        <time>2015-12-08T11:36:35Z</time>
      </trkpt>
      <trkpt lat="45.53749" lon="6.02569">
        <ele>1285.172588375</ele>
        <time>2015-12-08T11:36:40Z</time>
      </trkpt>
      <trkpt lat="45.53751" lon="6.02569">
        <ele>1285.172588375</ele>
        <time>2015-12-08T11:36:45Z</time>
      </trkpt>
      <trkpt lat="45.53753" lon="6.0257">
        <ele>1285.172588375</ele>
        <time>2015-12-08T11:36:50Z</time>
      </trkpt>
      <trkpt lat="45.53755" lon="6.02571">
        <ele>1285.172588375</ele>
        <time>2015-12-08T11:36:54Z</time>
      </trkpt>
      <trkpt lat="45.53759" lon="6.02571">
        <ele>1285.536471723</ele>
        <time>2015-12-08T11:37:00Z</time>
      </trkpt>
      <trkpt lat="45.53762" lon="6.02566">
        <ele>1285.536471723</ele>
        <time>2015-12-08T11:37:05Z</time>
      </trkpt>
      <trkpt lat="45.53765" lon="6.0257">
        <ele>1285.536471723</ele>
        <time>2015-12-08T11:37:09Z</time>
      </trkpt>
      <trkpt lat="45.53769" lon="6.02571">
        <ele>1286.2850088</ele>
        <time>2015-12-08T11:37:15Z</time>
      </trkpt>
      <trkpt lat="45.53771" lon="6.02572">
        <ele>1286.2850088</ele>
        <time>2015-12-08T11:37:20Z</time>
      </trkpt>
      <trkpt lat="45.53771" lon="6.02572">
        <ele>1286.2850088</ele>
        <time>2015-12-08T11:37:25Z</time>
      </trkpt>
      <trkpt lat="45.53771" lon="6.02571">
        <ele>1286.2850088</ele>
        <time>2015-12-08T11:37:30Z</time>
      </trkpt>
      <trkpt lat="45.53771" lon="6.02572">
        <ele>1286.2850088</ele>
        <time>2015-12-08T11:37:35Z</time>
      </trkpt>
      <trkpt lat="45.53773" lon="6.02577">
        <ele>1286.2850088</ele>
        <time>2015-12-08T11:37:40Z</time>
      </trkpt>
      <trkpt lat="45.53775" lon="6.02577">
        <ele>1286.956357777</ele>
        <time>2015-12-08T11:37:45Z</time>
      </trkpt>
      <trkpt lat="45.53776" lon="6.02578">
        <ele>1286.956357777</ele>
        <time>2015-12-08T11:37:50Z</time>
      </trkpt>
      <trkpt lat="45.53778" lon="6.02577">
        <ele>1286.956357777</ele>
        <time>2015-12-08T11:37:55Z</time>
      </trkpt>
      <trkpt lat="45.53778" lon="6.02577">
        <ele>1286.956357777</ele>
        <time>2015-12-08T11:38:00Z</time>
      </trkpt>
      <trkpt lat="45.53778" lon="6.02577">
        <ele>1286.956357777</ele>
        <time>2015-12-08T11:38:05Z</time>
      </trkpt>
      <trkpt lat="45.53779" lon="6.02582">
        <ele>1286.956357777</ele>
        <time>2015-12-08T11:38:10Z</time>
      </trkpt>
      <trkpt lat="45.53781" lon="6.02582">
        <ele>1286.956357777</ele>
        <time>2015-12-08T11:38:15Z</time>
      </trkpt>
      <trkpt lat="45.53782" lon="6.02585">
        <ele>1287.266933282</ele>
        <time>2015-12-08T11:38:20Z</time>
      </trkpt>
      <trkpt lat="45.53784" lon="6.02587">
        <ele>1287.266933282</ele>
        <time>2015-12-08T11:38:25Z</time>
      </trkpt>
      <trkpt lat="45.53786" lon="6.02591">
        <ele>1287.266933282</ele>
        <time>2015-12-08T11:38:30Z</time>
      </trkpt>
      <trkpt lat="45.53787" lon="6.02591">
        <ele>1287.266933282</ele>
        <time>2015-12-08T11:38:35Z</time>
      </trkpt>
      <trkpt lat="45.53787" lon="6.02592">
        <ele>1287.266933282</ele>
        <time>2015-12-08T11:38:40Z</time>
      </trkpt>
      <trkpt lat="45.53788" lon="6.02593">
        <ele>1287.266933282</ele>
        <time>2015-12-08T11:38:45Z</time>
      </trkpt>
      <trkpt lat="45.53788" lon="6.02595">
        <ele>1288.39611084</ele>
        <time>2015-12-08T11:38:50Z</time>
      </trkpt>
      <trkpt lat="45.53789" lon="6.02597">
        <ele>1288.39611084</ele>
        <time>2015-12-08T11:38:55Z</time>
      </trkpt>
      <trkpt lat="45.53793" lon="6.02602">
        <ele>1288.39611084</ele>
        <time>2015-12-08T11:39:00Z</time>
      </trkpt>
      <trkpt lat="45.53793" lon="6.02605">
        <ele>1289.849119688</ele>
        <time>2015-12-08T11:39:05Z</time>
      </trkpt>
      <trkpt lat="45.53793" lon="6.02613">
        <ele>1289.849119688</ele>
        <time>2015-12-08T11:39:09Z</time>
      </trkpt>
      <trkpt lat="45.53792" lon="6.02615">
        <ele>1289.849119688</ele>
        <time>2015-12-08T11:39:16Z</time>
      </trkpt>
      <trkpt lat="45.5379" lon="6.02615">
        <ele>1291.454862997</ele>
        <time>2015-12-08T11:39:19Z</time>
      </trkpt>
      <trkpt lat="45.53788" lon="6.02617">
        <ele>1291.454862997</ele>
        <time>2015-12-08T11:39:25Z</time>
      </trkpt>
      <trkpt lat="45.53786" lon="6.02619">
        <ele>1291.454862997</ele>
        <time>2015-12-08T11:39:30Z</time>
      </trkpt>
      <trkpt lat="45.53786" lon="6.0262">
        <ele>1291.454862997</ele>
        <time>2015-12-08T11:39:35Z</time>
      </trkpt>
      <trkpt lat="45.53785" lon="6.02622">
        <ele>1291.454862997</ele>
        <time>2015-12-08T11:39:39Z</time>
      </trkpt>
      <trkpt lat="45.53785" lon="6.02623">
        <ele>1291.454862997</ele>
        <time>2015-12-08T11:39:44Z</time>
      </trkpt>
      <trkpt lat="45.53784" lon="6.02626">
        <ele>1293.342628286</ele>
        <time>2015-12-08T11:39:50Z</time>
      </trkpt>
      <trkpt lat="45.53783" lon="6.02629">
        <ele>1293.342628286</ele>
        <time>2015-12-08T11:39:59Z</time>
      </trkpt>
      <trkpt lat="45.53784" lon="6.02629">
        <ele>1293.342628286</ele>
        <time>2015-12-08T11:40:04Z</time>
      </trkpt>
      <trkpt lat="45.53784" lon="6.02628">
        <ele>1293.342628286</ele>
        <time>2015-12-08T11:40:14Z</time>
      </trkpt>
      <trkpt lat="45.53785" lon="6.0263">
        <ele>1293.342628286</ele>
        <time>2015-12-08T11:40:19Z</time>
      </trkpt>
      <trkpt lat="45.53788" lon="6.02631">
        <ele>1293.342628286</ele>
        <time>2015-12-08T11:40:29Z</time>
      </trkpt>
      <trkpt lat="45.53788" lon="6.02632">
        <ele>1293.342628286</ele>
        <time>2015-12-08T11:40:34Z</time>
      </trkpt>
      <trkpt lat="45.53788" lon="6.02631">
        <ele>1293.342628286</ele>
        <time>2015-12-08T11:40:44Z</time>
      </trkpt>
      <trkpt lat="45.53788" lon="6.02631">
        <ele>1293.342628286</ele>
        <time>2015-12-08T11:40:49Z</time>
      </trkpt>
      <trkpt lat="45.53788" lon="6.02632">
        <ele>1293.342628286</ele>
        <time>2015-12-08T11:40:54Z</time>
      </trkpt>
      <trkpt lat="45.53788" lon="6.02632">
        <ele>1293.342628286</ele>
        <time>2015-12-08T11:41:01Z</time>
      </trkpt>
      <trkpt lat="45.53788" lon="6.02632">
        <ele>1293.342628286</ele>
        <time>2015-12-08T11:41:10Z</time>
      </trkpt>
      <trkpt lat="45.53789" lon="6.02634">
        <ele>1295.487334784</ele>
        <time>2015-12-08T11:41:15Z</time>
      </trkpt>
      <trkpt lat="45.53788" lon="6.02633">
        <ele>1295.487334784</ele>
        <time>2015-12-08T11:41:19Z</time>
      </trkpt>
      <trkpt lat="45.53788" lon="6.02635">
        <ele>1295.487334784</ele>
        <time>2015-12-08T11:41:24Z</time>
      </trkpt>
      <trkpt lat="45.53788" lon="6.02633">
        <ele>1295.487334784</ele>
        <time>2015-12-08T11:41:35Z</time>
      </trkpt>
      <trkpt lat="45.53788" lon="6.02633">
        <ele>1295.487334784</ele>
        <time>2015-12-08T11:41:40Z</time>
      </trkpt>
      <trkpt lat="45.53788" lon="6.02633">
        <ele>1295.487334784</ele>
        <time>2015-12-08T11:41:49Z</time>
      </trkpt>
      <trkpt lat="45.53788" lon="6.02633">
        <ele>1295.487334784</ele>
        <time>2015-12-08T11:41:54Z</time>
      </trkpt>
      <trkpt lat="45.53791" lon="6.02633">
        <ele>1295.487334784</ele>
        <time>2015-12-08T11:42:04Z</time>
      </trkpt>
      <trkpt lat="45.53794" lon="6.02633">
        <ele>1295.487334784</ele>
        <time>2015-12-08T11:42:10Z</time>
      </trkpt>
      <trkpt lat="45.53797" lon="6.02629">
        <ele>1296.423951442</ele>
        <time>2015-12-08T11:42:20Z</time>
      </trkpt>
      <trkpt lat="45.53799" lon="6.02627">
        <ele>1296.423951442</ele>
        <time>2015-12-08T11:42:25Z</time>
      </trkpt>
      <trkpt lat="45.53808" lon="6.02618">
        <ele>1297.392504663</ele>
        <time>2015-12-08T11:42:35Z</time>
      </trkpt>
      <trkpt lat="45.5381" lon="6.02617">
        <ele>1297.392504663</ele>
        <time>2015-12-08T11:42:40Z</time>
      </trkpt>
      <trkpt lat="45.53817" lon="6.02612">
        <ele>1298.244891107</ele>
        <time>2015-12-08T11:42:51Z</time>
      </trkpt>
      <trkpt lat="45.53821" lon="6.02612">
        <ele>1298.244891107</ele>
        <time>2015-12-08T11:42:55Z</time>
      </trkpt>
      <trkpt lat="45.53833" lon="6.02606">
        <ele>1298.700155205</ele>
        <time>2015-12-08T11:43:05Z</time>
      </trkpt>
      <trkpt lat="45.53838" lon="6.02605">
        <ele>1298.700155205</ele>
        <time>2015-12-08T11:43:10Z</time>
      </trkpt>
      <trkpt lat="45.53845" lon="6.02601">
        <ele>1299.075591132</ele>
        <time>2015-12-08T11:43:20Z</time>
      </trkpt>
      <trkpt lat="45.53849" lon="6.02605">
        <ele>1299.075591132</ele>
        <time>2015-12-08T11:43:25Z</time>
      </trkpt>
      <trkpt lat="45.53859" lon="6.02603">
        <ele>1299.233124658</ele>
        <time>2015-12-08T11:43:35Z</time>
      </trkpt>
      <trkpt lat="45.53863" lon="6.02601">
        <ele>1299.233124658</ele>
        <time>2015-12-08T11:43:40Z</time>
      </trkpt>
      <trkpt lat="45.53876" lon="6.02597">
        <ele>1299.189591742</ele>
        <time>2015-12-08T11:43:50Z</time>
      </trkpt>
      <trkpt lat="45.5388" lon="6.02597">
        <ele>1299.189591742</ele>
        <time>2015-12-08T11:43:54Z</time>
      </trkpt>
      <trkpt lat="45.53898" lon="6.02593">
        <ele>1298.817083072</ele>
        <time>2015-12-08T11:44:10Z</time>
      </trkpt>
      <trkpt lat="45.53903" lon="6.02593">
        <ele>1298.817083072</ele>
        <time>2015-12-08T11:44:16Z</time>
      </trkpt>
      <trkpt lat="45.53912" lon="6.02592">
        <ele>1298.286261699</ele>
        <time>2015-12-08T11:44:25Z</time>
      </trkpt>
      <trkpt lat="45.53917" lon="6.02591">
        <ele>1298.286261699</ele>
        <time>2015-12-08T11:44:30Z</time>
      </trkpt>
      <trkpt lat="45.53931" lon="6.02592">
        <ele>1297.611608879</ele>
        <time>2015-12-08T11:44:39Z</time>
      </trkpt>
      <trkpt lat="45.53936" lon="6.02594">
        <ele>1297.611608879</ele>
        <time>2015-12-08T11:44:45Z</time>
      </trkpt>
      <trkpt lat="45.53954" lon="6.02592">
        <ele>1296.374623384</ele>
        <time>2015-12-08T11:45:01Z</time>
      </trkpt>
      <trkpt lat="45.53959" lon="6.0259">
        <ele>1296.374623384</ele>
        <time>2015-12-08T11:45:05Z</time>
      </trkpt>
      <trkpt lat="45.53968" lon="6.02597">
        <ele>1294.621456479</ele>
        <time>2015-12-08T11:45:16Z</time>
      </trkpt>
      <trkpt lat="45.53973" lon="6.02599">
        <ele>1294.621456479</ele>
        <time>2015-12-08T11:45:20Z</time>
      </trkpt>
      <trkpt lat="45.53976" lon="6.026">
        <ele>1294.621456479</ele>
        <time>2015-12-08T11:45:25Z</time>
      </trkpt>
      <trkpt lat="45.53986" lon="6.02603">
        <ele>1291.387521054</ele>
        <time>2015-12-08T11:45:35Z</time>
      </trkpt>
      <trkpt lat="45.53991" lon="6.02604">
        <ele>1291.387521054</ele>
        <time>2015-12-08T11:45:40Z</time>
      </trkpt>
      <trkpt lat="45.53996" lon="6.02607">
        <ele>1287.36842578</ele>
        <time>2015-12-08T11:45:49Z</time>
      </trkpt>
      <trkpt lat="45.54003" lon="6.02606">
        <ele>1287.36842578</ele>
        <time>2015-12-08T11:45:54Z</time>
      </trkpt>
      <trkpt lat="45.54013" lon="6.02606">
        <ele>1283.499041264</ele>
        <time>2015-12-08T11:46:05Z</time>
      </trkpt>
      <trkpt lat="45.54019" lon="6.02606">
        <ele>1283.499041264</ele>
        <time>2015-12-08T11:46:10Z</time>
      </trkpt>
      <trkpt lat="45.54033" lon="6.02604">
        <ele>1279.924495846</ele>
        <time>2015-12-08T11:46:19Z</time>
      </trkpt>
      <trkpt lat="45.54042" lon="6.02604">
        <ele>1275.913642631</ele>
        <time>2015-12-08T11:46:26Z</time>
      </trkpt>
      <trkpt lat="45.54058" lon="6.02608">
        <ele>1270.934230846</ele>
        <time>2015-12-08T11:46:40Z</time>
      </trkpt>
      <trkpt lat="45.54061" lon="6.02607">
        <ele>1270.934230846</ele>
        <time>2015-12-08T11:46:46Z</time>
      </trkpt>
      <trkpt lat="45.54074" lon="6.0261">
        <ele>1266.51320697</ele>
        <time>2015-12-08T11:46:55Z</time>
      </trkpt>
      <trkpt lat="45.54081" lon="6.02609">
        <ele>1266.51320697</ele>
        <time>2015-12-08T11:47:00Z</time>
      </trkpt>
      <trkpt lat="45.54093" lon="6.02609">
        <ele>1261.757802666</ele>
        <time>2015-12-08T11:47:10Z</time>
      </trkpt>
      <trkpt lat="45.54097" lon="6.02611">
        <ele>1261.757802666</ele>
        <time>2015-12-08T11:47:15Z</time>
      </trkpt>
      <trkpt lat="45.54107" lon="6.0261">
        <ele>1256.994432728</ele>
        <time>2015-12-08T11:47:25Z</time>
      </trkpt>
      <trkpt lat="45.54109" lon="6.0261">
        <ele>1256.994432728</ele>
        <time>2015-12-08T11:47:30Z</time>
      </trkpt>
      <trkpt lat="45.54115" lon="6.02604">
        <ele>1256.994432728</ele>
        <time>2015-12-08T11:47:40Z</time>
      </trkpt>
      <trkpt lat="45.54119" lon="6.02603">
        <ele>1252.09297221</ele>
        <time>2015-12-08T11:47:45Z</time>
      </trkpt>
      <trkpt lat="45.54129" lon="6.02602">
        <ele>1247.50941591</ele>
        <time>2015-12-08T11:47:55Z</time>
      </trkpt>
      <trkpt lat="45.54132" lon="6.02612">
        <ele>1247.50941591</ele>
        <time>2015-12-08T11:48:00Z</time>
      </trkpt>
      <trkpt lat="45.54141" lon="6.02613">
        <ele>1242.656301091</ele>
        <time>2015-12-08T11:48:17Z</time>
      </trkpt>
      <trkpt lat="45.54143" lon="6.02613">
        <ele>1242.656301091</ele>
        <time>2015-12-08T11:48:20Z</time>
      </trkpt>
      <trkpt lat="45.54146" lon="6.02615">
        <ele>1242.656301091</ele>
        <time>2015-12-08T11:48:30Z</time>
      </trkpt>
      <trkpt lat="45.54146" lon="6.02615">
        <ele>1242.656301091</ele>
        <time>2015-12-08T11:48:35Z</time>
      </trkpt>
      <trkpt lat="45.54149" lon="6.02614">
        <ele>1242.656301091</ele>
        <time>2015-12-08T11:48:45Z</time>
      </trkpt>
      <trkpt lat="45.5415" lon="6.0262">
        <ele>1237.422101375</ele>
        <time>2015-12-08T11:48:50Z</time>
      </trkpt>
      <trkpt lat="45.54151" lon="6.02618">
        <ele>1237.422101375</ele>
        <time>2015-12-08T11:49:00Z</time>
      </trkpt>
      <trkpt lat="45.54152" lon="6.02617">
        <ele>1237.422101375</ele>
        <time>2015-12-08T11:49:04Z</time>
      </trkpt>
      <trkpt lat="45.54152" lon="6.02616">
        <ele>1237.422101375</ele>
        <time>2015-12-08T11:49:14Z</time>
      </trkpt>
      <trkpt lat="45.54154" lon="6.02614">
        <ele>1237.422101375</ele>
        <time>2015-12-08T11:49:19Z</time>
      </trkpt>
      <trkpt lat="45.54157" lon="6.02614">
        <ele>1231.992450196</ele>
        <time>2015-12-08T11:49:35Z</time>
      </trkpt>
      <trkpt lat="45.54157" lon="6.02614">
        <ele>1231.992450196</ele>
        <time>2015-12-08T11:49:40Z</time>
      </trkpt>
      <trkpt lat="45.54161" lon="6.02614">
        <ele>1231.992450196</ele>
        <time>2015-12-08T11:49:50Z</time>
      </trkpt>
      <trkpt lat="45.54164" lon="6.02617">
        <ele>1231.992450196</ele>
        <time>2015-12-08T11:49:55Z</time>
      </trkpt>
      <trkpt lat="45.54168" lon="6.02615">
        <ele>1226.251330479</ele>
        <time>2015-12-08T11:50:05Z</time>
      </trkpt>
      <trkpt lat="45.54169" lon="6.02616">
        <ele>1226.251330479</ele>
        <time>2015-12-08T11:50:10Z</time>
      </trkpt>
      <trkpt lat="45.5417" lon="6.02616">
        <ele>1226.251330479</ele>
        <time>2015-12-08T11:50:20Z</time>
      </trkpt>
      <trkpt lat="45.5417" lon="6.02616">
        <ele>1226.251330479</ele>
        <time>2015-12-08T11:50:24Z</time>
      </trkpt>
      <trkpt lat="45.54175" lon="6.0262">
        <ele>1226.251330479</ele>
        <time>2015-12-08T11:50:41Z</time>
      </trkpt>
      <trkpt lat="45.54176" lon="6.0262">
        <ele>1219.947653929</ele>
        <time>2015-12-08T11:50:45Z</time>
      </trkpt>
      <trkpt lat="45.54177" lon="6.0262">
        <ele>1219.947653929</ele>
        <time>2015-12-08T11:50:55Z</time>
      </trkpt>
      <trkpt lat="45.54183" lon="6.02618">
        <ele>1219.947653929</ele>
        <time>2015-12-08T11:51:00Z</time>
      </trkpt>
      <trkpt lat="45.54189" lon="6.02619">
        <ele>1214.002872394</ele>
        <time>2015-12-08T11:51:10Z</time>
      </trkpt>
      <trkpt lat="45.5419" lon="6.02618">
        <ele>1214.002872394</ele>
        <time>2015-12-08T11:51:15Z</time>
      </trkpt>
      <trkpt lat="45.5419" lon="6.02619">
        <ele>1214.002872394</ele>
        <time>2015-12-08T11:51:25Z</time>
      </trkpt>
      <trkpt lat="45.5419" lon="6.02619">
        <ele>1214.002872394</ele>
        <time>2015-12-08T11:51:29Z</time>
      </trkpt>
      <trkpt lat="45.54189" lon="6.02619">
        <ele>1214.002872394</ele>
        <time>2015-12-08T11:51:40Z</time>
      </trkpt>
      <trkpt lat="45.54189" lon="6.0262">
        <ele>1214.002872394</ele>
        <time>2015-12-08T11:51:45Z</time>
      </trkpt>
      <trkpt lat="45.54192" lon="6.02625">
        <ele>1214.002872394</ele>
        <time>2015-12-08T11:51:55Z</time>
      </trkpt>
      <trkpt lat="45.54192" lon="6.02624">
        <ele>1214.002872394</ele>
        <time>2015-12-08T11:52:00Z</time>
      </trkpt>
      <trkpt lat="45.54193" lon="6.02625">
        <ele>1208.116465257</ele>
        <time>2015-12-08T11:52:10Z</time>
      </trkpt>
      <trkpt lat="45.54193" lon="6.02625">
        <ele>1208.116465257</ele>
        <time>2015-12-08T11:52:15Z</time>
      </trkpt>
      <trkpt lat="45.54197" lon="6.02626">
        <ele>1208.116465257</ele>
        <time>2015-12-08T11:52:29Z</time>
      </trkpt>
      <trkpt lat="45.54208" lon="6.02632">
        <ele>1202.585869167</ele>
        <time>2015-12-08T11:52:40Z</time>
      </trkpt>
      <trkpt lat="45.54211" lon="6.02634">
        <ele>1202.585869167</ele>
        <time>2015-12-08T11:52:45Z</time>
      </trkpt>
      <trkpt lat="45.5422" lon="6.02635">
        <ele>1196.388261761</ele>
        <time>2015-12-08T11:53:00Z</time>
      </trkpt>
      <trkpt lat="45.54222" lon="6.02636">
        <ele>1196.388261761</ele>
        <time>2015-12-08T11:53:05Z</time>
      </trkpt>
      <trkpt lat="45.54229" lon="6.02639">
        <ele>1190.018519698</ele>
        <time>2015-12-08T11:53:15Z</time>
      </trkpt>
      <trkpt lat="45.54231" lon="6.02639">
        <ele>1190.018519698</ele>
        <time>2015-12-08T11:53:20Z</time>
      </trkpt>
      <trkpt lat="45.54243" lon="6.02643">
        <ele>1183.358776512</ele>
        <time>2015-12-08T11:53:30Z</time>
      </trkpt>
      <trkpt lat="45.54245" lon="6.02641">
        <ele>1183.358776512</ele>
        <time>2015-12-08T11:53:36Z</time>
      </trkpt>
      <trkpt lat="45.54258" lon="6.02634">
        <ele>1177.59720381</ele>
        <time>2015-12-08T11:53:45Z</time>
      </trkpt>
      <trkpt lat="45.54264" lon="6.02633">
        <ele>1177.59720381</ele>
        <time>2015-12-08T11:53:50Z</time>
      </trkpt>
      <trkpt lat="45.54276" lon="6.02638">
        <ele>1171.670063816</ele>
        <time>2015-12-08T11:54:00Z</time>
      </trkpt>
      <trkpt lat="45.5428" lon="6.02639">
        <ele>1171.670063816</ele>
        <time>2015-12-08T11:54:05Z</time>
      </trkpt>
      <trkpt lat="45.54286" lon="6.02638">
        <ele>1165.600559894</ele>
        <time>2015-12-08T11:54:15Z</time>
      </trkpt>
      <trkpt lat="45.54287" lon="6.02639">
        <ele>1165.600559894</ele>
        <time>2015-12-08T11:54:20Z</time>
      </trkpt>
      <trkpt lat="45.54287" lon="6.02639">
        <ele>1165.600559894</ele>
        <time>2015-12-08T11:54:31Z</time>
      </trkpt>
      <trkpt lat="45.5429" lon="6.02639">
        <ele>1165.600559894</ele>
        <time>2015-12-08T11:54:34Z</time>
      </trkpt>
      <trkpt lat="45.54307" lon="6.02639">
        <ele>1158.833700623</ele>
        <time>2015-12-08T11:54:45Z</time>
      </trkpt>
      <trkpt lat="45.54311" lon="6.02637">
        <ele>1158.833700623</ele>
        <time>2015-12-08T11:54:50Z</time>
      </trkpt>
      <trkpt lat="45.54316" lon="6.02638">
        <ele>1152.153775088</ele>
        <time>2015-12-08T11:55:00Z</time>
      </trkpt>
      <trkpt lat="45.54317" lon="6.02639">
        <ele>1152.153775088</ele>
        <time>2015-12-08T11:55:05Z</time>
      </trkpt>
      <trkpt lat="45.54328" lon="6.02643">
        <ele>1145.422101303</ele>
        <time>2015-12-08T11:55:15Z</time>
      </trkpt>
      <trkpt lat="45.54331" lon="6.02644">
        <ele>1145.422101303</ele>
        <time>2015-12-08T11:55:20Z</time>
      </trkpt>
      <trkpt lat="45.54337" lon="6.02642">
        <ele>1145.422101303</ele>
        <time>2015-12-08T11:55:25Z</time>
      </trkpt>
      <trkpt lat="45.54348" lon="6.02638">
        <ele>1138.653993084</ele>
        <time>2015-12-08T11:55:36Z</time>
      </trkpt>
      <trkpt lat="45.54349" lon="6.02643">
        <ele>1138.653993084</ele>
        <time>2015-12-08T11:55:40Z</time>
      </trkpt>
      <trkpt lat="45.54359" lon="6.0264">
        <ele>1132.15151554</ele>
        <time>2015-12-08T11:55:50Z</time>
      </trkpt>
      <trkpt lat="45.54365" lon="6.02641">
        <ele>1132.15151554</ele>
        <time>2015-12-08T11:55:55Z</time>
      </trkpt>
      <trkpt lat="45.54371" lon="6.02647">
        <ele>1125.616907463</ele>
        <time>2015-12-08T11:56:05Z</time>
      </trkpt>
      <trkpt lat="45.54375" lon="6.02648">
        <ele>1125.616907463</ele>
        <time>2015-12-08T11:56:10Z</time>
      </trkpt>
      <trkpt lat="45.54383" lon="6.02648">
        <ele>1119.350372279</ele>
        <time>2015-12-08T11:56:20Z</time>
      </trkpt>
      <trkpt lat="45.5439" lon="6.02649">
        <ele>1119.350372279</ele>
        <time>2015-12-08T11:56:25Z</time>
      </trkpt>
      <trkpt lat="45.54398" lon="6.02642">
        <ele>1113.484759903</ele>
        <time>2015-12-08T11:56:35Z</time>
      </trkpt>
      <trkpt lat="45.54402" lon="6.02639">
        <ele>1113.484759903</ele>
        <time>2015-12-08T11:56:40Z</time>
      </trkpt>
      <trkpt lat="45.54414" lon="6.02634">
        <ele>1107.997496635</ele>
        <time>2015-12-08T11:56:50Z</time>
      </trkpt>
      <trkpt lat="45.54417" lon="6.02632">
        <ele>1107.997496635</ele>
        <time>2015-12-08T11:56:55Z</time>
      </trkpt>
      <trkpt lat="45.54423" lon="6.02639">
        <ele>1102.289743259</ele>
        <time>2015-12-08T11:57:00Z</time>
      </trkpt>
      <trkpt lat="45.54427" lon="6.02646">
        <ele>1102.289743259</ele>
        <time>2015-12-08T11:57:05Z</time>
      </trkpt>
      <trkpt lat="45.54432" lon="6.02644">
        <ele>1096.959754771</ele>
        <time>2015-12-08T11:57:10Z</time>
      </trkpt>
      <trkpt lat="45.54436" lon="6.02644">
        <ele>1096.959754771</ele>
        <time>2015-12-08T11:57:15Z</time>
      </trkpt>
      <trkpt lat="45.54444" lon="6.02639">
        <ele>1092.848614592</ele>
        <time>2015-12-08T11:57:25Z</time>
      </trkpt>
      <trkpt lat="45.54451" lon="6.02639">
        <ele>1092.848614592</ele>
        <time>2015-12-08T11:57:30Z</time>
      </trkpt>
      <trkpt lat="45.54461" lon="6.0265">
        <ele>1089.002500838</ele>
        <time>2015-12-08T11:57:40Z</time>
      </trkpt>
      <trkpt lat="45.54464" lon="6.02652">
        <ele>1089.002500838</ele>
        <time>2015-12-08T11:57:45Z</time>
      </trkpt>
      <trkpt lat="45.54466" lon="6.02655">
        <ele>1089.002500838</ele>
        <time>2015-12-08T11:57:57Z</time>
      </trkpt>
      <trkpt lat="45.54466" lon="6.02655">
        <ele>1089.002500838</ele>
        <time>2015-12-08T11:58:00Z</time>
      </trkpt>
      <trkpt lat="45.54466" lon="6.02661">
        <ele>1085.113016374</ele>
        <time>2015-12-08T11:58:10Z</time>
      </trkpt>
      <trkpt lat="45.54465" lon="6.02672">
        <ele>1085.113016374</ele>
        <time>2015-12-08T11:58:15Z</time>
      </trkpt>
      <trkpt lat="45.54462" lon="6.02678">
        <ele>1081.182444689</ele>
        <time>2015-12-08T11:58:24Z</time>
      </trkpt>
      <trkpt lat="45.54458" lon="6.0268">
        <ele>1081.182444689</ele>
        <time>2015-12-08T11:58:29Z</time>
      </trkpt>
      <trkpt lat="45.54444" lon="6.02689">
        <ele>1078.221505239</ele>
        <time>2015-12-08T11:58:39Z</time>
      </trkpt>
      <trkpt lat="45.5444" lon="6.02692">
        <ele>1078.221505239</ele>
        <time>2015-12-08T11:58:44Z</time>
      </trkpt>
      <trkpt lat="45.54438" lon="6.02693">
        <ele>1078.221505239</ele>
        <time>2015-12-08T11:58:50Z</time>
      </trkpt>
      <trkpt lat="45.54437" lon="6.02691">
        <ele>1078.221505239</ele>
        <time>2015-12-08T11:58:56Z</time>
      </trkpt>
      <trkpt lat="45.54439" lon="6.02687">
        <ele>1075.866689888</ele>
        <time>2015-12-08T11:59:00Z</time>
      </trkpt>
      <trkpt lat="45.54443" lon="6.02684">
        <ele>1075.866689888</ele>
        <time>2015-12-08T11:59:05Z</time>
      </trkpt>
      <trkpt lat="45.5445" lon="6.02679">
        <ele>1073.923375779</ele>
        <time>2015-12-08T11:59:15Z</time>
      </trkpt>
      <trkpt lat="45.54466" lon="6.02691">
        <ele>1072.642222039</ele>
        <time>2015-12-08T11:59:30Z</time>
      </trkpt>
      <trkpt lat="45.54467" lon="6.02692">
        <ele>1072.642222039</ele>
        <time>2015-12-08T11:59:35Z</time>
      </trkpt>
      <trkpt lat="45.54467" lon="6.02691">
        <ele>1072.642222039</ele>
        <time>2015-12-08T11:59:45Z</time>
      </trkpt>
      <trkpt lat="45.54469" lon="6.02691">
        <ele>1072.642222039</ele>
        <time>2015-12-08T11:59:50Z</time>
      </trkpt>
      <trkpt lat="45.54478" lon="6.02689">
        <ele>1070.812347171</ele>
        <time>2015-12-08T12:00:00Z</time>
      </trkpt>
      <trkpt lat="45.54481" lon="6.02691">
        <ele>1070.812347171</ele>
        <time>2015-12-08T12:00:04Z</time>
      </trkpt>
      <trkpt lat="45.5449" lon="6.02686">
        <ele>1070.339574248</ele>
        <time>2015-12-08T12:00:15Z</time>
      </trkpt>
      <trkpt lat="45.54497" lon="6.02687">
        <ele>1070.339574248</ele>
        <time>2015-12-08T12:00:20Z</time>
      </trkpt>
      <trkpt lat="45.54503" lon="6.02691">
        <ele>1069.815391248</ele>
        <time>2015-12-08T12:00:24Z</time>
      </trkpt>
      <trkpt lat="45.54505" lon="6.02689">
        <ele>1069.815391248</ele>
        <time>2015-12-08T12:00:29Z</time>
      </trkpt>
      <trkpt lat="45.54511" lon="6.02687">
        <ele>1069.815391248</ele>
        <time>2015-12-08T12:00:35Z</time>
      </trkpt>
      <trkpt lat="45.54514" lon="6.02686">
        <ele>1069.231855552</ele>
        <time>2015-12-08T12:00:45Z</time>
      </trkpt>
      <trkpt lat="45.54515" lon="6.02687">
        <ele>1069.231855552</ele>
        <time>2015-12-08T12:00:50Z</time>
      </trkpt>
      <trkpt lat="45.54516" lon="6.02687">
        <ele>1069.231855552</ele>
        <time>2015-12-08T12:00:59Z</time>
      </trkpt>
      <trkpt lat="45.54517" lon="6.02687">
        <ele>1069.231855552</ele>
        <time>2015-12-08T12:01:05Z</time>
      </trkpt>
      <trkpt lat="45.54523" lon="6.0269">
        <ele>1067.717099046</ele>
        <time>2015-12-08T12:01:16Z</time>
      </trkpt>
      <trkpt lat="45.54535" lon="6.02694">
        <ele>1066.483494286</ele>
        <time>2015-12-08T12:01:20Z</time>
      </trkpt>
      <trkpt lat="45.54539" lon="6.02696">
        <ele>1066.483494286</ele>
        <time>2015-12-08T12:01:35Z</time>
      </trkpt>
      <trkpt lat="45.54539" lon="6.027">
        <ele>1066.483494286</ele>
        <time>2015-12-08T12:01:40Z</time>
      </trkpt>
      <trkpt lat="45.54546" lon="6.02704">
        <ele>1063.483170429</ele>
        <time>2015-12-08T12:01:49Z</time>
      </trkpt>
      <trkpt lat="45.54548" lon="6.02704">
        <ele>1063.483170429</ele>
        <time>2015-12-08T12:01:55Z</time>
      </trkpt>
      <trkpt lat="45.54556" lon="6.02705">
        <ele>1060.714721461</ele>
        <time>2015-12-08T12:02:05Z</time>
      </trkpt>
      <trkpt lat="45.54557" lon="6.02702">
        <ele>1060.714721461</ele>
        <time>2015-12-08T12:02:10Z</time>
      </trkpt>
      <trkpt lat="45.54563" lon="6.02706">
        <ele>1060.714721461</ele>
        <time>2015-12-08T12:02:20Z</time>
      </trkpt>
      <trkpt lat="45.54565" lon="6.02708">
        <ele>1057.147137207</ele>
        <time>2015-12-08T12:02:25Z</time>
      </trkpt>
      <trkpt lat="45.54566" lon="6.02711">
        <ele>1057.147137207</ele>
        <time>2015-12-08T12:02:36Z</time>
      </trkpt>
      <trkpt lat="45.54567" lon="6.02714">
        <ele>1057.147137207</ele>
        <time>2015-12-08T12:02:40Z</time>
      </trkpt>
      <trkpt lat="45.54576" lon="6.02718">
        <ele>1052.980368583</ele>
        <time>2015-12-08T12:02:50Z</time>
      </trkpt>
      <trkpt lat="45.54583" lon="6.02717">
        <ele>1052.980368583</ele>
        <time>2015-12-08T12:02:54Z</time>
      </trkpt>
      <trkpt lat="45.54593" lon="6.02716">
        <ele>1049.842567241</ele>
        <time>2015-12-08T12:03:05Z</time>
      </trkpt>
      <trkpt lat="45.54601" lon="6.02718">
        <ele>1049.842567241</ele>
        <time>2015-12-08T12:03:10Z</time>
      </trkpt>
      <trkpt lat="45.54608" lon="6.02713">
        <ele>1045.636712853</ele>
        <time>2015-12-08T12:03:20Z</time>
      </trkpt>
      <trkpt lat="45.54614" lon="6.02703">
        <ele>1045.636712853</ele>
        <time>2015-12-08T12:03:25Z</time>
      </trkpt>
      <trkpt lat="45.54625" lon="6.02697">
        <ele>1041.593368346</ele>
        <time>2015-12-08T12:03:35Z</time>
      </trkpt>
      <trkpt lat="45.54632" lon="6.02692">
        <ele>1041.593368346</ele>
        <time>2015-12-08T12:03:40Z</time>
      </trkpt>
      <trkpt lat="45.54642" lon="6.02691">
        <ele>1037.843559961</ele>
        <time>2015-12-08T12:03:50Z</time>
      </trkpt>
      <trkpt lat="45.54646" lon="6.02689">
        <ele>1037.843559961</ele>
        <time>2015-12-08T12:03:55Z</time>
      </trkpt>
      <trkpt lat="45.54665" lon="6.02691">
        <ele>1034.075623766</ele>
        <time>2015-12-08T12:04:10Z</time>
      </trkpt>
      <trkpt lat="45.54671" lon="6.0269">
        <ele>1034.075623766</ele>
        <time>2015-12-08T12:04:15Z</time>
      </trkpt>
      <trkpt lat="45.5468" lon="6.02691">
        <ele>1028.992150188</ele>
        <time>2015-12-08T12:04:25Z</time>
      </trkpt>
      <trkpt lat="45.54686" lon="6.02692">
        <ele>1028.992150188</ele>
        <time>2015-12-08T12:04:30Z</time>
      </trkpt>
      <trkpt lat="45.54692" lon="6.02691">
        <ele>1024.565255139</ele>
        <time>2015-12-08T12:04:40Z</time>
      </trkpt>
      <trkpt lat="45.54695" lon="6.02692">
        <ele>1024.565255139</ele>
        <time>2015-12-08T12:04:45Z</time>
      </trkpt>
      <trkpt lat="45.54708" lon="6.02696">
        <ele>1020.31464023</ele>
        <time>2015-12-08T12:04:55Z</time>
      </trkpt>
      <trkpt lat="45.54715" lon="6.02696">
        <ele>1020.31464023</ele>
        <time>2015-12-08T12:05:00Z</time>
      </trkpt>
      <trkpt lat="45.54723" lon="6.02697">
        <ele>1015.938976146</ele>
        <time>2015-12-08T12:05:11Z</time>
      </trkpt>
      <trkpt lat="45.54728" lon="6.02699">
        <ele>1015.938976146</ele>
        <time>2015-12-08T12:05:15Z</time>
      </trkpt>
      <trkpt lat="45.54739" lon="6.02702">
        <ele>1011.303593821</ele>
        <time>2015-12-08T12:05:25Z</time>
      </trkpt>
      <trkpt lat="45.54743" lon="6.02701">
        <ele>1011.303593821</ele>
        <time>2015-12-08T12:05:30Z</time>
      </trkpt>
      <trkpt lat="45.5475" lon="6.02702">
        <ele>1006.716835696</ele>
        <time>2015-12-08T12:05:40Z</time>
      </trkpt>
      <trkpt lat="45.54753" lon="6.02703">
        <ele>1006.716835696</ele>
        <time>2015-12-08T12:05:45Z</time>
      </trkpt>
      <trkpt lat="45.54757" lon="6.02709">
        <ele>1002.176085319</ele>
        <time>2015-12-08T12:05:55Z</time>
      </trkpt>
      <trkpt lat="45.54768" lon="6.02713">
        <ele>997.967056381</ele>
        <time>2015-12-08T12:06:00Z</time>
      </trkpt>
      <trkpt lat="45.54788" lon="6.02716">
        <ele>993.921249846</ele>
        <time>2015-12-08T12:06:10Z</time>
      </trkpt>
      <trkpt lat="45.54794" lon="6.02721">
        <ele>993.921249846</ele>
        <time>2015-12-08T12:06:15Z</time>
      </trkpt>
      <trkpt lat="45.54796" lon="6.02718">
        <ele>990.458568387</ele>
        <time>2015-12-08T12:06:19Z</time>
      </trkpt>
      <trkpt lat="45.54811" lon="6.02725">
        <ele>986.95769119</ele>
        <time>2015-12-08T12:06:30Z</time>
      </trkpt>
      <trkpt lat="45.54815" lon="6.02725">
        <ele>986.95769119</ele>
        <time>2015-12-08T12:06:35Z</time>
      </trkpt>
      <trkpt lat="45.54823" lon="6.02729">
        <ele>982.410748571</ele>
        <time>2015-12-08T12:06:46Z</time>
      </trkpt>
      <trkpt lat="45.54823" lon="6.02731">
        <ele>982.410748571</ele>
        <time>2015-12-08T12:06:50Z</time>
      </trkpt>
      <trkpt lat="45.54823" lon="6.02731">
        <ele>982.410748571</ele>
        <time>2015-12-08T12:06:54Z</time>
      </trkpt>
      <trkpt lat="45.54823" lon="6.02731">
        <ele>982.410748571</ele>
        <time>2015-12-08T12:06:59Z</time>
      </trkpt>
      <trkpt lat="45.54823" lon="6.02731">
        <ele>982.410748571</ele>
        <time>2015-12-08T12:07:04Z</time>
      </trkpt>
      <trkpt lat="45.54823" lon="6.02731">
        <ele>982.410748571</ele>
        <time>2015-12-08T12:07:09Z</time>
      </trkpt>
      <trkpt lat="45.54823" lon="6.02731">
        <ele>982.410748571</ele>
        <time>2015-12-08T12:07:14Z</time>
      </trkpt>
      <trkpt lat="45.54823" lon="6.02731">
        <ele>982.410748571</ele>
        <time>2015-12-08T12:07:19Z</time>
      </trkpt>
      <trkpt lat="45.54823" lon="6.02731">
        <ele>982.410748571</ele>
        <time>2015-12-08T12:07:24Z</time>
      </trkpt>
      <trkpt lat="45.54823" lon="6.02731">
        <ele>982.410748571</ele>
        <time>2015-12-08T12:07:29Z</time>
      </trkpt>
      <trkpt lat="45.54823" lon="6.02731">
        <ele>982.410748571</ele>
        <time>2015-12-08T12:07:34Z</time>
      </trkpt>
      <trkpt lat="45.54823" lon="6.02731">
        <ele>982.410748571</ele>
        <time>2015-12-08T12:07:39Z</time>
      </trkpt>
      <trkpt lat="45.54823" lon="6.02731">
        <ele>982.410748571</ele>
        <time>2015-12-08T12:07:44Z</time>
      </trkpt>
      <trkpt lat="45.54823" lon="6.02731">
        <ele>982.410748571</ele>
        <time>2015-12-08T12:07:49Z</time>
      </trkpt>
      <trkpt lat="45.54823" lon="6.02732">
        <ele>982.410748571</ele>
        <time>2015-12-08T12:07:54Z</time>
      </trkpt>
      <trkpt lat="45.54825" lon="6.02733">
        <ele>982.410748571</ele>
        <time>2015-12-08T12:08:09Z</time>
      </trkpt>
      <trkpt lat="45.54825" lon="6.02733">
        <ele>982.410748571</ele>
        <time>2015-12-08T12:08:14Z</time>
      </trkpt>
      <trkpt lat="45.54825" lon="6.02733">
        <ele>982.410748571</ele>
        <time>2015-12-08T12:08:25Z</time>
      </trkpt>
      <trkpt lat="45.54826" lon="6.02733">
        <ele>982.410748571</ele>
        <time>2015-12-08T12:08:40Z</time>
      </trkpt>
      <trkpt lat="45.54827" lon="6.02733">
        <ele>982.410748571</ele>
        <time>2015-12-08T12:08:45Z</time>
      </trkpt>
      <trkpt lat="45.54827" lon="6.02733">
        <ele>982.410748571</ele>
        <time>2015-12-08T12:08:54Z</time>
      </trkpt>
      <trkpt lat="45.54827" lon="6.02733">
        <ele>982.410748571</ele>
        <time>2015-12-08T12:08:59Z</time>
      </trkpt>
      <trkpt lat="45.54827" lon="6.02733">
        <ele>982.410748571</ele>
        <time>2015-12-08T12:09:04Z</time>
      </trkpt>
      <trkpt lat="45.54827" lon="6.02733">
        <ele>982.410748571</ele>
        <time>2015-12-08T12:09:09Z</time>
      </trkpt>
      <trkpt lat="45.54827" lon="6.02733">
        <ele>982.410748571</ele>
        <time>2015-12-08T12:09:14Z</time>
      </trkpt>
      <trkpt lat="45.54832" lon="6.0273">
        <ele>978.480879706</ele>
        <time>2015-12-08T12:09:25Z</time>
      </trkpt>
      <trkpt lat="45.54835" lon="6.02727">
        <ele>978.480879706</ele>
        <time>2015-12-08T12:09:30Z</time>
      </trkpt>
      <trkpt lat="45.54848" lon="6.02726">
        <ele>975.122132942</ele>
        <time>2015-12-08T12:09:45Z</time>
      </trkpt>
      <trkpt lat="45.54851" lon="6.02726">
        <ele>975.122132942</ele>
        <time>2015-12-08T12:09:55Z</time>
      </trkpt>
      <trkpt lat="45.54852" lon="6.02728">
        <ele>975.122132942</ele>
        <time>2015-12-08T12:10:00Z</time>
      </trkpt>
      <trkpt lat="45.54853" lon="6.02728">
        <ele>975.122132942</ele>
        <time>2015-12-08T12:10:05Z</time>
      </trkpt>
      <trkpt lat="45.54855" lon="6.02731">
        <ele>975.122132942</ele>
        <time>2015-12-08T12:10:15Z</time>
      </trkpt>
      <trkpt lat="45.54855" lon="6.02731">
        <ele>975.122132942</ele>
        <time>2015-12-08T12:10:20Z</time>
      </trkpt>
      <trkpt lat="45.54855" lon="6.02731">
        <ele>975.122132942</ele>
        <time>2015-12-08T12:10:30Z</time>
      </trkpt>
      <trkpt lat="45.54855" lon="6.02731">
        <ele>975.122132942</ele>
        <time>2015-12-08T12:10:35Z</time>
      </trkpt>
      <trkpt lat="45.54856" lon="6.02732">
        <ele>971.713921812</ele>
        <time>2015-12-08T12:10:45Z</time>
      </trkpt>
      <trkpt lat="45.54856" lon="6.02732">
        <ele>971.713921812</ele>
        <time>2015-12-08T12:10:50Z</time>
      </trkpt>
      <trkpt lat="45.54867" lon="6.02741">
        <ele>968.113757072</ele>
        <time>2015-12-08T12:11:00Z</time>
      </trkpt>
      <trkpt lat="45.54871" lon="6.02741">
        <ele>968.113757072</ele>
        <time>2015-12-08T12:11:05Z</time>
      </trkpt>
      <trkpt lat="45.54878" lon="6.02745">
        <ele>964.334305099</ele>
        <time>2015-12-08T12:11:15Z</time>
      </trkpt>
      <trkpt lat="45.54881" lon="6.02745">
        <ele>964.334305099</ele>
        <time>2015-12-08T12:11:21Z</time>
      </trkpt>
      <trkpt lat="45.54884" lon="6.02741">
        <ele>964.334305099</ele>
        <time>2015-12-08T12:11:29Z</time>
      </trkpt>
      <trkpt lat="45.54888" lon="6.02744">
        <ele>960.820179053</ele>
        <time>2015-12-08T12:11:34Z</time>
      </trkpt>
      <trkpt lat="45.54894" lon="6.02744">
        <ele>960.820179053</ele>
        <time>2015-12-08T12:11:46Z</time>
      </trkpt>
      <trkpt lat="45.54896" lon="6.02746">
        <ele>960.820179053</ele>
        <time>2015-12-08T12:11:50Z</time>
      </trkpt>
      <trkpt lat="45.54902" lon="6.0275">
        <ele>957.550295741</ele>
        <time>2015-12-08T12:12:00Z</time>
      </trkpt>
      <trkpt lat="45.54902" lon="6.02751">
        <ele>957.550295741</ele>
        <time>2015-12-08T12:12:05Z</time>
      </trkpt>
      <trkpt lat="45.54903" lon="6.02751">
        <ele>957.550295741</ele>
        <time>2015-12-08T12:12:15Z</time>
      </trkpt>
      <trkpt lat="45.54903" lon="6.02751">
        <ele>957.550295741</ele>
        <time>2015-12-08T12:12:19Z</time>
      </trkpt>
      <trkpt lat="45.54912" lon="6.02751">
        <ele>954.07214586</ele>
        <time>2015-12-08T12:12:30Z</time>
      </trkpt>
      <trkpt lat="45.54911" lon="6.02751">
        <ele>954.07214586</ele>
        <time>2015-12-08T12:12:35Z</time>
      </trkpt>
      <trkpt lat="45.54913" lon="6.02754">
        <ele>954.07214586</ele>
        <time>2015-12-08T12:12:40Z</time>
      </trkpt>
      <trkpt lat="45.54915" lon="6.02754">
        <ele>954.07214586</ele>
        <time>2015-12-08T12:12:50Z</time>
      </trkpt>
      <trkpt lat="45.54916" lon="6.02758">
        <ele>949.534755493</ele>
        <time>2015-12-08T12:12:55Z</time>
      </trkpt>
      <trkpt lat="45.5492" lon="6.0276">
        <ele>949.534755493</ele>
        <time>2015-12-08T12:13:05Z</time>
      </trkpt>
      <trkpt lat="45.5492" lon="6.02761">
        <ele>949.534755493</ele>
        <time>2015-12-08T12:13:10Z</time>
      </trkpt>
      <trkpt lat="45.54924" lon="6.02765">
        <ele>945.602567333</ele>
        <time>2015-12-08T12:13:20Z</time>
      </trkpt>
      <trkpt lat="45.54926" lon="6.02766">
        <ele>945.602567333</ele>
        <time>2015-12-08T12:13:25Z</time>
      </trkpt>
      <trkpt lat="45.5493" lon="6.02773">
        <ele>945.602567333</ele>
        <time>2015-12-08T12:13:35Z</time>
      </trkpt>
      <trkpt lat="45.5493" lon="6.02774">
        <ele>945.602567333</ele>
        <time>2015-12-08T12:13:40Z</time>
      </trkpt>
      <trkpt lat="45.54935" lon="6.02771">
        <ele>941.654431194</ele>
        <time>2015-12-08T12:13:50Z</time>
      </trkpt>
      <trkpt lat="45.54938" lon="6.0277">
        <ele>941.654431194</ele>
        <time>2015-12-08T12:13:55Z</time>
      </trkpt>
      <trkpt lat="45.54939" lon="6.0277">
        <ele>941.654431194</ele>
        <time>2015-12-08T12:14:05Z</time>
      </trkpt>
      <trkpt lat="45.54943" lon="6.0277">
        <ele>941.654431194</ele>
        <time>2015-12-08T12:14:10Z</time>
      </trkpt>
      <trkpt lat="45.54952" lon="6.02774">
        <ele>937.979576753</ele>
        <time>2015-12-08T12:14:20Z</time>
      </trkpt>
      <trkpt lat="45.54956" lon="6.02778">
        <ele>937.979576753</ele>
        <time>2015-12-08T12:14:25Z</time>
      </trkpt>
      <trkpt lat="45.54972" lon="6.02783">
        <ele>933.980589255</ele>
        <time>2015-12-08T12:14:41Z</time>
      </trkpt>
      <trkpt lat="45.54976" lon="6.02785">
        <ele>933.980589255</ele>
        <time>2015-12-08T12:14:45Z</time>
      </trkpt>
      <trkpt lat="45.54983" lon="6.02788">
        <ele>930.113661295</ele>
        <time>2015-12-08T12:14:54Z</time>
      </trkpt>
      <trkpt lat="45.54997" lon="6.02801">
        <ele>925.648245519</ele>
        <time>2015-12-08T12:15:10Z</time>
      </trkpt>
      <trkpt lat="45.55002" lon="6.02804">
        <ele>925.648245519</ele>
        <time>2015-12-08T12:15:15Z</time>
      </trkpt>
      <trkpt lat="45.55007" lon="6.02813">
        <ele>921.062056329</ele>
        <time>2015-12-08T12:15:25Z</time>
      </trkpt>
      <trkpt lat="45.55009" lon="6.02815">
        <ele>921.062056329</ele>
        <time>2015-12-08T12:15:30Z</time>
      </trkpt>
      <trkpt lat="45.55011" lon="6.02816">
        <ele>921.062056329</ele>
        <time>2015-12-08T12:15:40Z</time>
      </trkpt>
      <trkpt lat="45.55013" lon="6.02824">
        <ele>916.798077824</ele>
        <time>2015-12-08T12:15:45Z</time>
      </trkpt>
      <trkpt lat="45.55019" lon="6.02828">
        <ele>916.798077824</ele>
        <time>2015-12-08T12:15:55Z</time>
      </trkpt>
      <trkpt lat="45.55021" lon="6.02828">
        <ele>916.798077824</ele>
        <time>2015-12-08T12:16:00Z</time>
      </trkpt>
      <trkpt lat="45.55028" lon="6.02833">
        <ele>911.536531668</ele>
        <time>2015-12-08T12:16:11Z</time>
      </trkpt>
      <trkpt lat="45.55033" lon="6.02833">
        <ele>911.536531668</ele>
        <time>2015-12-08T12:16:15Z</time>
      </trkpt>
      <trkpt lat="45.55042" lon="6.0284">
        <ele>906.79551005</ele>
        <time>2015-12-08T12:16:25Z</time>
      </trkpt>
      <trkpt lat="45.55044" lon="6.0284">
        <ele>906.79551005</ele>
        <time>2015-12-08T12:16:30Z</time>
      </trkpt>
      <trkpt lat="45.55049" lon="6.02842">
        <ele>906.79551005</ele>
        <time>2015-12-08T12:16:40Z</time>
      </trkpt>
      <trkpt lat="45.5505" lon="6.02842">
        <ele>906.79551005</ele>
        <time>2015-12-08T12:16:45Z</time>
      </trkpt>
      <trkpt lat="45.55054" lon="6.02845">
        <ele>902.250795435</ele>
        <time>2015-12-08T12:16:55Z</time>
      </trkpt>
      <trkpt lat="45.55058" lon="6.0285">
        <ele>902.250795435</ele>
        <time>2015-12-08T12:17:00Z</time>
      </trkpt>
      <trkpt lat="45.5507" lon="6.02853">
        <ele>897.169097869</ele>
        <time>2015-12-08T12:17:10Z</time>
      </trkpt>
      <trkpt lat="45.5507" lon="6.02852">
        <ele>897.169097869</ele>
        <time>2015-12-08T12:17:15Z</time>
      </trkpt>
      <trkpt lat="45.55088" lon="6.02854">
        <ele>892.457711533</ele>
        <time>2015-12-08T12:17:30Z</time>
      </trkpt>
      <trkpt lat="45.55094" lon="6.02855">
        <ele>892.457711533</ele>
        <time>2015-12-08T12:17:35Z</time>
      </trkpt>
      <trkpt lat="45.55098" lon="6.02859">
        <ele>887.80333508</ele>
        <time>2015-12-08T12:17:45Z</time>
      </trkpt>
      <trkpt lat="45.55101" lon="6.02861">
        <ele>887.80333508</ele>
        <time>2015-12-08T12:17:49Z</time>
      </trkpt>
      <trkpt lat="45.55111" lon="6.02863">
        <ele>883.63605539</ele>
        <time>2015-12-08T12:18:00Z</time>
      </trkpt>
      <trkpt lat="45.55116" lon="6.02864">
        <ele>883.63605539</ele>
        <time>2015-12-08T12:18:05Z</time>
      </trkpt>
      <trkpt lat="45.55124" lon="6.02868">
        <ele>878.047191876</ele>
        <time>2015-12-08T12:18:15Z</time>
      </trkpt>
      <trkpt lat="45.55125" lon="6.02869">
        <ele>878.047191876</ele>
        <time>2015-12-08T12:18:19Z</time>
      </trkpt>
      <trkpt lat="45.55126" lon="6.02869">
        <ele>878.047191876</ele>
        <time>2015-12-08T12:18:30Z</time>
      </trkpt>
      <trkpt lat="45.55131" lon="6.02868">
        <ele>878.047191876</ele>
        <time>2015-12-08T12:18:35Z</time>
      </trkpt>
      <trkpt lat="45.55131" lon="6.02869">
        <ele>878.047191876</ele>
        <time>2015-12-08T12:18:39Z</time>
      </trkpt>
      <trkpt lat="45.55131" lon="6.02869">
        <ele>878.047191876</ele>
        <time>2015-12-08T12:18:44Z</time>
      </trkpt>
      <trkpt lat="45.55133" lon="6.02869">
        <ele>874.316122527</ele>
        <time>2015-12-08T12:18:50Z</time>
      </trkpt>
      <trkpt lat="45.55137" lon="6.02874">
        <ele>874.316122527</ele>
        <time>2015-12-08T12:19:01Z</time>
      </trkpt>
      <trkpt lat="45.55138" lon="6.02875">
        <ele>874.316122527</ele>
        <time>2015-12-08T12:19:05Z</time>
      </trkpt>
      <trkpt lat="45.55139" lon="6.02876">
        <ele>874.316122527</ele>
        <time>2015-12-08T12:19:15Z</time>
      </trkpt>
      <trkpt lat="45.5514" lon="6.02886">
        <ele>869.999854922</ele>
        <time>2015-12-08T12:19:20Z</time>
      </trkpt>
      <trkpt lat="45.55136" lon="6.02903">
        <ele>865.430465075</ele>
        <time>2015-12-08T12:19:34Z</time>
      </trkpt>
      <trkpt lat="45.55136" lon="6.02903">
        <ele>865.430465075</ele>
        <time>2015-12-08T12:19:40Z</time>
      </trkpt>
      <trkpt lat="45.55135" lon="6.02904">
        <ele>865.430465075</ele>
        <time>2015-12-08T12:19:51Z</time>
      </trkpt>
      <trkpt lat="45.55135" lon="6.02904">
        <ele>865.430465075</ele>
        <time>2015-12-08T12:19:56Z</time>
      </trkpt>
      <trkpt lat="45.55137" lon="6.02925">
        <ele>861.348643025</ele>
        <time>2015-12-08T12:20:05Z</time>
      </trkpt>
      <trkpt lat="45.55138" lon="6.02925">
        <ele>861.348643025</ele>
        <time>2015-12-08T12:20:10Z</time>
      </trkpt>
      <trkpt lat="45.55141" lon="6.02937">
        <ele>856.709931162</ele>
        <time>2015-12-08T12:20:20Z</time>
      </trkpt>
      <trkpt lat="45.55142" lon="6.02944">
        <ele>856.709931162</ele>
        <time>2015-12-08T12:20:26Z</time>
      </trkpt>
      <trkpt lat="45.55146" lon="6.0295">
        <ele>851.989234917</ele>
        <time>2015-12-08T12:20:35Z</time>
      </trkpt>
      <trkpt lat="45.55151" lon="6.02952">
        <ele>851.989234917</ele>
        <time>2015-12-08T12:20:40Z</time>
      </trkpt>
      <trkpt lat="45.55156" lon="6.02954">
        <ele>846.906209545</ele>
        <time>2015-12-08T12:20:49Z</time>
      </trkpt>
      <trkpt lat="45.55158" lon="6.02954">
        <ele>846.906209545</ele>
        <time>2015-12-08T12:20:55Z</time>
      </trkpt>
      <trkpt lat="45.55171" lon="6.02952">
        <ele>842.499081515</ele>
        <time>2015-12-08T12:21:05Z</time>
      </trkpt>
      <trkpt lat="45.55175" lon="6.02953">
        <ele>842.499081515</ele>
        <time>2015-12-08T12:21:10Z</time>
      </trkpt>
      <trkpt lat="45.55185" lon="6.02951">
        <ele>838.719094806</ele>
        <time>2015-12-08T12:21:20Z</time>
      </trkpt>
      <trkpt lat="45.55188" lon="6.02951">
        <ele>838.719094806</ele>
        <time>2015-12-08T12:21:25Z</time>
      </trkpt>
      <trkpt lat="45.55195" lon="6.02951">
        <ele>835.951610755</ele>
        <time>2015-12-08T12:21:40Z</time>
      </trkpt>
      <trkpt lat="45.55202" lon="6.02945">
        <ele>835.951610755</ele>
        <time>2015-12-08T12:21:45Z</time>
      </trkpt>
      <trkpt lat="45.55221" lon="6.02936">
        <ele>832.96558605</ele>
        <time>2015-12-08T12:22:00Z</time>
      </trkpt>
      <trkpt lat="45.55227" lon="6.02936">
        <ele>832.96558605</ele>
        <time>2015-12-08T12:22:05Z</time>
      </trkpt>
      <trkpt lat="45.55241" lon="6.02946">
        <ele>830.638555638</ele>
        <time>2015-12-08T12:22:15Z</time>
      </trkpt>
      <trkpt lat="45.55246" lon="6.02947">
        <ele>830.638555638</ele>
        <time>2015-12-08T12:22:20Z</time>
      </trkpt>
      <trkpt lat="45.5526" lon="6.02951">
        <ele>829.061177975</ele>
        <time>2015-12-08T12:22:30Z</time>
      </trkpt>
      <trkpt lat="45.55264" lon="6.02954">
        <ele>829.061177975</ele>
        <time>2015-12-08T12:22:35Z</time>
      </trkpt>
      <trkpt lat="45.55275" lon="6.02955">
        <ele>827.306577875</ele>
        <time>2015-12-08T12:22:44Z</time>
      </trkpt>
      <trkpt lat="45.55282" lon="6.02957">
        <ele>827.306577875</ele>
        <time>2015-12-08T12:22:49Z</time>
      </trkpt>
      <trkpt lat="45.55288" lon="6.02959">
        <ele>825.813490305</ele>
        <time>2015-12-08T12:22:55Z</time>
      </trkpt>
      <trkpt lat="45.55288" lon="6.02958">
        <ele>825.813490305</ele>
        <time>2015-12-08T12:23:00Z</time>
      </trkpt>
      <trkpt lat="45.55296" lon="6.02965">
        <ele>824.267174782</ele>
        <time>2015-12-08T12:23:10Z</time>
      </trkpt>
      <trkpt lat="45.55296" lon="6.02965">
        <ele>824.267174782</ele>
        <time>2015-12-08T12:23:15Z</time>
      </trkpt>
      <trkpt lat="45.55298" lon="6.02963">
        <ele>824.267174782</ele>
        <time>2015-12-08T12:23:25Z</time>
      </trkpt>
      <trkpt lat="45.55299" lon="6.02959">
        <ele>824.267174782</ele>
        <time>2015-12-08T12:23:30Z</time>
      </trkpt>
      <trkpt lat="45.55298" lon="6.02954">
        <ele>824.267174782</ele>
        <time>2015-12-08T12:23:40Z</time>
      </trkpt>
      <trkpt lat="45.55299" lon="6.02952">
        <ele>822.520332843</ele>
        <time>2015-12-08T12:23:45Z</time>
      </trkpt>
      <trkpt lat="45.55308" lon="6.02945">
        <ele>821.44590528</ele>
        <time>2015-12-08T12:23:56Z</time>
      </trkpt>
      <trkpt lat="45.55308" lon="6.02947">
        <ele>821.44590528</ele>
        <time>2015-12-08T12:24:00Z</time>
      </trkpt>
      <trkpt lat="45.55312" lon="6.02942">
        <ele>821.44590528</ele>
        <time>2015-12-08T12:24:10Z</time>
      </trkpt>
      <trkpt lat="45.55316" lon="6.02936">
        <ele>820.842137991</ele>
        <time>2015-12-08T12:24:15Z</time>
      </trkpt>
      <trkpt lat="45.55326" lon="6.02931">
        <ele>820.520890235</ele>
        <time>2015-12-08T12:24:25Z</time>
      </trkpt>
      <trkpt lat="45.55331" lon="6.02932">
        <ele>820.520890235</ele>
        <time>2015-12-08T12:24:30Z</time>
      </trkpt>
      <trkpt lat="45.55338" lon="6.0294">
        <ele>821.171849461</ele>
        <time>2015-12-08T12:24:40Z</time>
      </trkpt>
      <trkpt lat="45.55338" lon="6.02941">
        <ele>821.171849461</ele>
        <time>2015-12-08T12:24:45Z</time>
      </trkpt>
      <trkpt lat="45.55343" lon="6.02941">
        <ele>821.171849461</ele>
        <time>2015-12-08T12:24:55Z</time>
      </trkpt>
      <trkpt lat="45.55348" lon="6.0294">
        <ele>822.134466701</ele>
        <time>2015-12-08T12:25:00Z</time>
      </trkpt>
      <trkpt lat="45.55362" lon="6.02937">
        <ele>823.08424385</ele>
        <time>2015-12-08T12:25:14Z</time>
      </trkpt>
      <trkpt lat="45.55366" lon="6.02931">
        <ele>823.08424385</ele>
        <time>2015-12-08T12:25:20Z</time>
      </trkpt>
      <trkpt lat="45.55366" lon="6.02928">
        <ele>823.08424385</ele>
        <time>2015-12-08T12:25:30Z</time>
      </trkpt>
      <trkpt lat="45.5537" lon="6.02927">
        <ele>824.008982252</ele>
        <time>2015-12-08T12:25:34Z</time>
      </trkpt>
      <trkpt lat="45.55382" lon="6.02925">
        <ele>825.185899806</ele>
        <time>2015-12-08T12:25:45Z</time>
      </trkpt>
      <trkpt lat="45.55391" lon="6.02929">
        <ele>825.718502509</ele>
        <time>2015-12-08T12:25:50Z</time>
      </trkpt>
      <trkpt lat="45.55399" lon="6.02931">
        <ele>825.718502509</ele>
        <time>2015-12-08T12:26:00Z</time>
      </trkpt>
      <trkpt lat="45.55404" lon="6.02934">
        <ele>825.642893301</ele>
        <time>2015-12-08T12:26:05Z</time>
      </trkpt>
      <trkpt lat="45.55423" lon="6.02936">
        <ele>825.715065454</ele>
        <time>2015-12-08T12:26:15Z</time>
      </trkpt>
      <trkpt lat="45.55427" lon="6.02938">
        <ele>825.715065454</ele>
        <time>2015-12-08T12:26:20Z</time>
      </trkpt>
      <trkpt lat="45.55434" lon="6.02939">
        <ele>826.058908995</ele>
        <time>2015-12-08T12:26:30Z</time>
      </trkpt>
      <trkpt lat="45.5544" lon="6.02938">
        <ele>826.058908995</ele>
        <time>2015-12-08T12:26:35Z</time>
      </trkpt>
      <trkpt lat="45.55452" lon="6.02941">
        <ele>825.491747008</ele>
        <time>2015-12-08T12:26:46Z</time>
      </trkpt>
      <trkpt lat="45.55453" lon="6.0294">
        <ele>825.491747008</ele>
        <time>2015-12-08T12:26:49Z</time>
      </trkpt>
      <trkpt lat="45.55471" lon="6.02943">
        <ele>825.08230452</ele>
        <time>2015-12-08T12:27:05Z</time>
      </trkpt>
      <trkpt lat="45.55477" lon="6.02944">
        <ele>825.08230452</ele>
        <time>2015-12-08T12:27:10Z</time>
      </trkpt>
      <trkpt lat="45.55486" lon="6.02946">
        <ele>824.811879722</ele>
        <time>2015-12-08T12:27:20Z</time>
      </trkpt>
      <trkpt lat="45.55493" lon="6.0295">
        <ele>824.811879722</ele>
        <time>2015-12-08T12:27:25Z</time>
      </trkpt>
      <trkpt lat="45.55502" lon="6.02948">
        <ele>823.366053463</ele>
        <time>2015-12-08T12:27:35Z</time>
      </trkpt>
      <trkpt lat="45.55505" lon="6.02949">
        <ele>823.366053463</ele>
        <time>2015-12-08T12:27:40Z</time>
      </trkpt>
      <trkpt lat="45.55515" lon="6.02947">
        <ele>822.55689</ele>
        <time>2015-12-08T12:27:50Z</time>
      </trkpt>
      <trkpt lat="45.55522" lon="6.02948">
        <ele>822.55689</ele>
        <time>2015-12-08T12:27:54Z</time>
      </trkpt>
      <trkpt lat="45.55527" lon="6.02948">
        <ele>821.32373074</ele>
        <time>2015-12-08T12:27:59Z</time>
      </trkpt>
      <trkpt lat="45.55531" lon="6.02949">
        <ele>821.32373074</ele>
        <time>2015-12-08T12:28:04Z</time>
      </trkpt>
      <trkpt lat="45.55545" lon="6.02951">
        <ele>820.126413747</ele>
        <time>2015-12-08T12:28:10Z</time>
      </trkpt>
      <trkpt lat="45.55559" lon="6.02944">
        <ele>819.391168428</ele>
        <time>2015-12-08T12:28:20Z</time>
      </trkpt>
      <trkpt lat="45.55562" lon="6.02943">
        <ele>819.391168428</ele>
        <time>2015-12-08T12:28:25Z</time>
      </trkpt>
      <trkpt lat="45.55568" lon="6.02943">
        <ele>817.926656306</ele>
        <time>2015-12-08T12:28:35Z</time>
      </trkpt>
      <trkpt lat="45.55578" lon="6.02942">
        <ele>815.928350887</ele>
        <time>2015-12-08T12:28:41Z</time>
      </trkpt>
      <trkpt lat="45.55591" lon="6.02937">
        <ele>813.290878715</ele>
        <time>2015-12-08T12:28:50Z</time>
      </trkpt>
      <trkpt lat="45.55597" lon="6.02938">
        <ele>813.290878715</ele>
        <time>2015-12-08T12:28:55Z</time>
      </trkpt>
      <trkpt lat="45.55601" lon="6.02944">
        <ele>811.071511556</ele>
        <time>2015-12-08T12:29:05Z</time>
      </trkpt>
      <trkpt lat="45.55603" lon="6.02948">
        <ele>811.071511556</ele>
        <time>2015-12-08T12:29:10Z</time>
      </trkpt>
      <trkpt lat="45.55605" lon="6.02947">
        <ele>811.071511556</ele>
        <time>2015-12-08T12:29:26Z</time>
      </trkpt>
      <trkpt lat="45.55606" lon="6.02947">
        <ele>811.071511556</ele>
        <time>2015-12-08T12:29:30Z</time>
      </trkpt>
      <trkpt lat="45.55606" lon="6.02947">
        <ele>811.071511556</ele>
        <time>2015-12-08T12:29:40Z</time>
      </trkpt>
      <trkpt lat="45.55606" lon="6.02947">
        <ele>811.071511556</ele>
        <time>2015-12-08T12:29:45Z</time>
      </trkpt>
      <trkpt lat="45.55613" lon="6.02952">
        <ele>808.663663269</ele>
        <time>2015-12-08T12:29:55Z</time>
      </trkpt>
      <trkpt lat="45.55614" lon="6.02951">
        <ele>808.663663269</ele>
        <time>2015-12-08T12:30:01Z</time>
      </trkpt>
      <trkpt lat="45.55615" lon="6.02952">
        <ele>808.663663269</ele>
        <time>2015-12-08T12:30:10Z</time>
      </trkpt>
      <trkpt lat="45.55615" lon="6.02952">
        <ele>808.663663269</ele>
        <time>2015-12-08T12:30:15Z</time>
      </trkpt>
      <trkpt lat="45.55615" lon="6.02952">
        <ele>808.663663269</ele>
        <time>2015-12-08T12:30:19Z</time>
      </trkpt>
      <trkpt lat="45.55615" lon="6.02952">
        <ele>808.663663269</ele>
        <time>2015-12-08T12:30:24Z</time>
      </trkpt>
      <trkpt lat="45.55615" lon="6.02952">
        <ele>808.663663269</ele>
        <time>2015-12-08T12:30:29Z</time>
      </trkpt>
      <trkpt lat="45.55615" lon="6.02952">
        <ele>808.663663269</ele>
        <time>2015-12-08T12:30:34Z</time>
      </trkpt>
      <trkpt lat="45.55616" lon="6.02954">
        <ele>808.663663269</ele>
        <time>2015-12-08T12:30:44Z</time>
      </trkpt>
      <trkpt lat="45.55616" lon="6.02954">
        <ele>808.663663269</ele>
        <time>2015-12-08T12:30:49Z</time>
      </trkpt>
      <trkpt lat="45.55616" lon="6.02954">
        <ele>808.663663269</ele>
        <time>2015-12-08T12:30:59Z</time>
      </trkpt>
      <trkpt lat="45.55616" lon="6.02954">
        <ele>808.663663269</ele>
        <time>2015-12-08T12:31:04Z</time>
      </trkpt>
      <trkpt lat="45.55616" lon="6.02954">
        <ele>808.663663269</ele>
        <time>2015-12-08T12:31:14Z</time>
      </trkpt>
      <trkpt lat="45.55615" lon="6.02953">
        <ele>808.663663269</ele>
        <time>2015-12-08T12:31:19Z</time>
      </trkpt>
      <trkpt lat="45.55614" lon="6.02952">
        <ele>808.663663269</ele>
        <time>2015-12-08T12:31:25Z</time>
      </trkpt>
      <trkpt lat="45.55614" lon="6.02952">
        <ele>808.663663269</ele>
        <time>2015-12-08T12:31:29Z</time>
      </trkpt>
      <trkpt lat="45.55614" lon="6.02951">
        <ele>808.663663269</ele>
        <time>2015-12-08T12:31:34Z</time>
      </trkpt>
      <trkpt lat="45.55614" lon="6.02952">
        <ele>808.663663269</ele>
        <time>2015-12-08T12:31:44Z</time>
      </trkpt>
      <trkpt lat="45.55614" lon="6.02952">
        <ele>808.663663269</ele>
        <time>2015-12-08T12:31:49Z</time>
      </trkpt>
      <trkpt lat="45.55613" lon="6.02953">
        <ele>806.65891191</ele>
        <time>2015-12-08T12:31:54Z</time>
      </trkpt>
      <trkpt lat="45.55613" lon="6.02953">
        <ele>806.65891191</ele>
        <time>2015-12-08T12:32:00Z</time>
      </trkpt>
      <trkpt lat="45.55613" lon="6.02953">
        <ele>806.65891191</ele>
        <time>2015-12-08T12:32:10Z</time>
      </trkpt>
      <trkpt lat="45.55614" lon="6.02953">
        <ele>806.65891191</ele>
        <time>2015-12-08T12:32:14Z</time>
      </trkpt>
      <trkpt lat="45.55616" lon="6.02954">
        <ele>806.65891191</ele>
        <time>2015-12-08T12:32:24Z</time>
      </trkpt>
      <trkpt lat="45.55616" lon="6.02954">
        <ele>806.65891191</ele>
        <time>2015-12-08T12:32:29Z</time>
      </trkpt>
      <trkpt lat="45.55615" lon="6.02953">
        <ele>806.65891191</ele>
        <time>2015-12-08T12:32:39Z</time>
      </trkpt>
      <trkpt lat="45.55616" lon="6.02953">
        <ele>806.65891191</ele>
        <time>2015-12-08T12:32:44Z</time>
      </trkpt>
      <trkpt lat="45.55619" lon="6.02955">
        <ele>806.65891191</ele>
        <time>2015-12-08T12:32:54Z</time>
      </trkpt>
      <trkpt lat="45.55619" lon="6.02955">
        <ele>806.65891191</ele>
        <time>2015-12-08T12:32:59Z</time>
      </trkpt>
      <trkpt lat="45.55619" lon="6.02955">
        <ele>806.65891191</ele>
        <time>2015-12-08T12:33:09Z</time>
      </trkpt>
      <trkpt lat="45.55619" lon="6.02955">
        <ele>806.65891191</ele>
        <time>2015-12-08T12:33:14Z</time>
      </trkpt>
      <trkpt lat="45.55618" lon="6.02955">
        <ele>806.65891191</ele>
        <time>2015-12-08T12:33:24Z</time>
      </trkpt>
      <trkpt lat="45.55618" lon="6.02956">
        <ele>805.027973577</ele>
        <time>2015-12-08T12:33:29Z</time>
      </trkpt>
      <trkpt lat="45.55618" lon="6.02956">
        <ele>805.027973577</ele>
        <time>2015-12-08T12:33:34Z</time>
      </trkpt>
      <trkpt lat="45.55618" lon="6.02956">
        <ele>805.027973577</ele>
        <time>2015-12-08T12:33:44Z</time>
      </trkpt>
      <trkpt lat="45.55618" lon="6.02956">
        <ele>805.027973577</ele>
        <time>2015-12-08T12:33:49Z</time>
      </trkpt>
      <trkpt lat="45.55617" lon="6.02955">
        <ele>805.027973577</ele>
        <time>2015-12-08T12:33:59Z</time>
      </trkpt>
      <trkpt lat="45.55617" lon="6.02954">
        <ele>805.027973577</ele>
        <time>2015-12-08T12:34:04Z</time>
      </trkpt>
      <trkpt lat="45.55622" lon="6.02957">
        <ele>805.027973577</ele>
        <time>2015-12-08T12:34:15Z</time>
      </trkpt>
      <trkpt lat="45.55624" lon="6.02958">
        <ele>803.022266957</ele>
        <time>2015-12-08T12:34:20Z</time>
      </trkpt>
      <trkpt lat="45.55628" lon="6.02962">
        <ele>803.022266957</ele>
        <time>2015-12-08T12:34:29Z</time>
      </trkpt>
      <trkpt lat="45.55633" lon="6.02962">
        <ele>801.534618917</ele>
        <time>2015-12-08T12:34:35Z</time>
      </trkpt>
      <trkpt lat="45.55633" lon="6.02962">
        <ele>801.534618917</ele>
        <time>2015-12-08T12:34:40Z</time>
      </trkpt>
      <trkpt lat="45.55632" lon="6.02963">
        <ele>801.534618917</ele>
        <time>2015-12-08T12:34:45Z</time>
      </trkpt>
      <trkpt lat="45.55632" lon="6.02963">
        <ele>801.534618917</ele>
        <time>2015-12-08T12:34:50Z</time>
      </trkpt>
      <trkpt lat="45.55632" lon="6.02962">
        <ele>801.534618917</ele>
        <time>2015-12-08T12:34:54Z</time>
      </trkpt>
      <trkpt lat="45.55632" lon="6.02962">
        <ele>801.534618917</ele>
        <time>2015-12-08T12:34:59Z</time>
      </trkpt>
      <trkpt lat="45.55632" lon="6.02962">
        <ele>801.534618917</ele>
        <time>2015-12-08T12:35:04Z</time>
      </trkpt>
      <trkpt lat="45.55631" lon="6.02962">
        <ele>801.534618917</ele>
        <time>2015-12-08T12:35:09Z</time>
      </trkpt>
      <trkpt lat="45.55631" lon="6.02962">
        <ele>801.534618917</ele>
        <time>2015-12-08T12:35:14Z</time>
      </trkpt>
      <trkpt lat="45.55631" lon="6.02962">
        <ele>801.534618917</ele>
        <time>2015-12-08T12:35:19Z</time>
      </trkpt>
      <trkpt lat="45.55631" lon="6.02962">
        <ele>801.534618917</ele>
        <time>2015-12-08T12:35:24Z</time>
      </trkpt>
      <trkpt lat="45.5563" lon="6.02961">
        <ele>801.534618917</ele>
        <time>2015-12-08T12:35:29Z</time>
      </trkpt>
      <trkpt lat="45.5563" lon="6.0296">
        <ele>801.534618917</ele>
        <time>2015-12-08T12:35:34Z</time>
      </trkpt>
      <trkpt lat="45.5563" lon="6.0296">
        <ele>801.534618917</ele>
        <time>2015-12-08T12:35:39Z</time>
      </trkpt>
      <trkpt lat="45.5563" lon="6.0296">
        <ele>801.534618917</ele>
        <time>2015-12-08T12:35:44Z</time>
      </trkpt>
      <trkpt lat="45.55629" lon="6.0296">
        <ele>801.534618917</ele>
        <time>2015-12-08T12:35:49Z</time>
      </trkpt>
      <trkpt lat="45.55629" lon="6.02961">
        <ele>801.534618917</ele>
        <time>2015-12-08T12:35:54Z</time>
      </trkpt>
      <trkpt lat="45.55629" lon="6.02961">
        <ele>801.534618917</ele>
        <time>2015-12-08T12:35:59Z</time>
      </trkpt>
      <trkpt lat="45.55629" lon="6.02961">
        <ele>801.534618917</ele>
        <time>2015-12-08T12:36:04Z</time>
      </trkpt>
      <trkpt lat="45.55629" lon="6.02961">
        <ele>801.534618917</ele>
        <time>2015-12-08T12:36:09Z</time>
      </trkpt>
      <trkpt lat="45.55629" lon="6.02961">
        <ele>801.534618917</ele>
        <time>2015-12-08T12:36:14Z</time>
      </trkpt>
      <trkpt lat="45.55629" lon="6.02962">
        <ele>801.534618917</ele>
        <time>2015-12-08T12:36:19Z</time>
      </trkpt>
      <trkpt lat="45.55629" lon="6.02962">
        <ele>801.534618917</ele>
        <time>2015-12-08T12:36:24Z</time>
      </trkpt>
      <trkpt lat="45.5563" lon="6.02961">
        <ele>801.534618917</ele>
        <time>2015-12-08T12:36:29Z</time>
      </trkpt>
      <trkpt lat="45.5563" lon="6.02961">
        <ele>801.534618917</ele>
        <time>2015-12-08T12:36:34Z</time>
      </trkpt>
      <trkpt lat="45.5563" lon="6.02962">
        <ele>799.805726383</ele>
        <time>2015-12-08T12:36:39Z</time>
      </trkpt>
      <trkpt lat="45.5563" lon="6.02962">
        <ele>799.805726383</ele>
        <time>2015-12-08T12:36:44Z</time>
      </trkpt>
      <trkpt lat="45.55629" lon="6.02963">
        <ele>799.805726383</ele>
        <time>2015-12-08T12:36:49Z</time>
      </trkpt>
      <trkpt lat="45.55629" lon="6.02963">
        <ele>799.805726383</ele>
        <time>2015-12-08T12:36:54Z</time>
      </trkpt>
      <trkpt lat="45.55629" lon="6.02963">
        <ele>799.805726383</ele>
        <time>2015-12-08T12:36:59Z</time>
      </trkpt>
      <trkpt lat="45.55629" lon="6.02962">
        <ele>799.805726383</ele>
        <time>2015-12-08T12:37:04Z</time>
      </trkpt>
      <trkpt lat="45.55628" lon="6.02963">
        <ele>799.805726383</ele>
        <time>2015-12-08T12:37:09Z</time>
      </trkpt>
      <trkpt lat="45.55627" lon="6.02962">
        <ele>799.805726383</ele>
        <time>2015-12-08T12:37:14Z</time>
      </trkpt>
      <trkpt lat="45.55628" lon="6.02963">
        <ele>799.805726383</ele>
        <time>2015-12-08T12:37:19Z</time>
      </trkpt>
      <trkpt lat="45.55628" lon="6.02963">
        <ele>799.805726383</ele>
        <time>2015-12-08T12:37:24Z</time>
      </trkpt>
      <trkpt lat="45.55628" lon="6.02963">
        <ele>799.805726383</ele>
        <time>2015-12-08T12:37:29Z</time>
      </trkpt>
      <trkpt lat="45.55632" lon="6.02963">
        <ele>799.805726383</ele>
        <time>2015-12-08T12:37:34Z</time>
      </trkpt>
      <trkpt lat="45.55634" lon="6.02967">
        <ele>798.429864845</ele>
        <time>2015-12-08T12:37:39Z</time>
      </trkpt>
      <trkpt lat="45.55637" lon="6.02969">
        <ele>798.429864845</ele>
        <time>2015-12-08T12:37:44Z</time>
      </trkpt>
      <trkpt lat="45.55641" lon="6.0297">
        <ele>798.429864845</ele>
        <time>2015-12-08T12:37:49Z</time>
      </trkpt>
      <trkpt lat="45.55641" lon="6.02971">
        <ele>798.429864845</ele>
        <time>2015-12-08T12:37:54Z</time>
      </trkpt>
      <trkpt lat="45.55643" lon="6.02974">
        <ele>797.092112179</ele>
        <time>2015-12-08T12:37:59Z</time>
      </trkpt>
      <trkpt lat="45.55644" lon="6.02976">
        <ele>797.092112179</ele>
        <time>2015-12-08T12:38:04Z</time>
      </trkpt>
      <trkpt lat="45.55644" lon="6.02976">
        <ele>797.092112179</ele>
        <time>2015-12-08T12:38:09Z</time>
      </trkpt>
      <trkpt lat="45.55645" lon="6.02976">
        <ele>797.092112179</ele>
        <time>2015-12-08T12:38:14Z</time>
      </trkpt>
      <trkpt lat="45.55645" lon="6.02976">
        <ele>797.092112179</ele>
        <time>2015-12-08T12:38:19Z</time>
      </trkpt>
      <trkpt lat="45.55645" lon="6.02976">
        <ele>797.092112179</ele>
        <time>2015-12-08T12:38:24Z</time>
      </trkpt>
      <trkpt lat="45.55645" lon="6.02976">
        <ele>797.092112179</ele>
        <time>2015-12-08T12:38:29Z</time>
      </trkpt>
      <trkpt lat="45.55645" lon="6.02976">
        <ele>797.092112179</ele>
        <time>2015-12-08T12:38:34Z</time>
      </trkpt>
      <trkpt lat="45.55645" lon="6.02976">
        <ele>797.092112179</ele>
        <time>2015-12-08T12:38:39Z</time>
      </trkpt>
      <trkpt lat="45.55646" lon="6.02978">
        <ele>797.092112179</ele>
        <time>2015-12-08T12:38:44Z</time>
      </trkpt>
      <trkpt lat="45.55647" lon="6.02978">
        <ele>797.092112179</ele>
        <time>2015-12-08T12:38:49Z</time>
      </trkpt>
      <trkpt lat="45.55647" lon="6.02979">
        <ele>797.092112179</ele>
        <time>2015-12-08T12:38:54Z</time>
      </trkpt>
      <trkpt lat="45.55654" lon="6.02979">
        <ele>795.788903433</ele>
        <time>2015-12-08T12:38:59Z</time>
      </trkpt>
      <trkpt lat="45.55658" lon="6.02971">
        <ele>795.788903433</ele>
        <time>2015-12-08T12:39:04Z</time>
      </trkpt>
      <trkpt lat="45.55661" lon="6.02963">
        <ele>793.940494364</ele>
        <time>2015-12-08T12:39:09Z</time>
      </trkpt>
      <trkpt lat="45.55666" lon="6.02955">
        <ele>793.940494364</ele>
        <time>2015-12-08T12:39:14Z</time>
      </trkpt>
      <trkpt lat="45.55668" lon="6.02946">
        <ele>792.596574762</ele>
        <time>2015-12-08T12:39:19Z</time>
      </trkpt>
      <trkpt lat="45.55666" lon="6.02934">
        <ele>792.596574762</ele>
        <time>2015-12-08T12:39:24Z</time>
      </trkpt>
      <trkpt lat="45.55663" lon="6.02927">
        <ele>790.999062778</ele>
        <time>2015-12-08T12:39:29Z</time>
      </trkpt>
      <trkpt lat="45.5566" lon="6.02916">
        <ele>790.999062778</ele>
        <time>2015-12-08T12:39:34Z</time>
      </trkpt>
      <trkpt lat="45.55655" lon="6.02908">
        <ele>789.16691186</ele>
        <time>2015-12-08T12:39:39Z</time>
      </trkpt>
      <trkpt lat="45.5565" lon="6.02902">
        <ele>789.16691186</ele>
        <time>2015-12-08T12:39:44Z</time>
      </trkpt>
      <trkpt lat="45.55647" lon="6.02899">
        <ele>787.406636029</ele>
        <time>2015-12-08T12:39:49Z</time>
      </trkpt>
      <trkpt lat="45.55639" lon="6.02891">
        <ele>785.713874079</ele>
        <time>2015-12-08T12:39:54Z</time>
      </trkpt>
      <trkpt lat="45.55634" lon="6.02885">
        <ele>785.713874079</ele>
        <time>2015-12-08T12:39:59Z</time>
      </trkpt>
      <trkpt lat="45.55629" lon="6.02878">
        <ele>784.516787764</ele>
        <time>2015-12-08T12:40:04Z</time>
      </trkpt>
      <trkpt lat="45.55624" lon="6.02871">
        <ele>784.516787764</ele>
        <time>2015-12-08T12:40:09Z</time>
      </trkpt>
      <trkpt lat="45.55616" lon="6.02857">
        <ele>783.490193115</ele>
        <time>2015-12-08T12:40:19Z</time>
      </trkpt>
      <trkpt lat="45.55612" lon="6.0285">
        <ele>783.490193115</ele>
        <time>2015-12-08T12:40:24Z</time>
      </trkpt>
      <trkpt lat="45.55603" lon="6.02836">
        <ele>782.044142167</ele>
        <time>2015-12-08T12:40:34Z</time>
      </trkpt>
      <trkpt lat="45.55598" lon="6.0283">
        <ele>782.044142167</ele>
        <time>2015-12-08T12:40:39Z</time>
      </trkpt>
      <trkpt lat="45.55587" lon="6.0282">
        <ele>780.497913207</ele>
        <time>2015-12-08T12:40:49Z</time>
      </trkpt>
      <trkpt lat="45.55578" lon="6.02815">
        <ele>779.003542479</ele>
        <time>2015-12-08T12:40:54Z</time>
      </trkpt>
      <trkpt lat="45.55564" lon="6.02804">
        <ele>775.972453816</ele>
        <time>2015-12-08T12:41:04Z</time>
      </trkpt>
      <trkpt lat="45.55557" lon="6.028">
        <ele>775.972453816</ele>
        <time>2015-12-08T12:41:09Z</time>
      </trkpt>
      <trkpt lat="45.55545" lon="6.0279">
        <ele>773.972219022</ele>
        <time>2015-12-08T12:41:19Z</time>
      </trkpt>
      <trkpt lat="45.55539" lon="6.02783">
        <ele>773.972219022</ele>
        <time>2015-12-08T12:41:24Z</time>
      </trkpt>
      <trkpt lat="45.55523" lon="6.02774">
        <ele>773.073149045</ele>
        <time>2015-12-08T12:41:34Z</time>
      </trkpt>
      <trkpt lat="45.55518" lon="6.02769">
        <ele>773.073149045</ele>
        <time>2015-12-08T12:41:39Z</time>
      </trkpt>
      <trkpt lat="45.55503" lon="6.02759">
        <ele>772.472650757</ele>
        <time>2015-12-08T12:41:49Z</time>
      </trkpt>
      <trkpt lat="45.55501" lon="6.02758">
        <ele>772.472650757</ele>
        <time>2015-12-08T12:41:54Z</time>
      </trkpt>
      <trkpt lat="45.55486" lon="6.02747">
        <ele>770.849820037</ele>
        <time>2015-12-08T12:42:04Z</time>
      </trkpt>
      <trkpt lat="45.5548" lon="6.02745">
        <ele>770.849820037</ele>
        <time>2015-12-08T12:42:09Z</time>
      </trkpt>
      <trkpt lat="45.55474" lon="6.02739">
        <ele>769.289444869</ele>
        <time>2015-12-08T12:42:14Z</time>
      </trkpt>
      <trkpt lat="45.55467" lon="6.02734">
        <ele>769.289444869</ele>
        <time>2015-12-08T12:42:20Z</time>
      </trkpt>
      <trkpt lat="45.55457" lon="6.02731">
        <ele>767.931795645</ele>
        <time>2015-12-08T12:42:24Z</time>
      </trkpt>
      <trkpt lat="45.55439" lon="6.02723">
        <ele>766.041613035</ele>
        <time>2015-12-08T12:42:35Z</time>
      </trkpt>
      <trkpt lat="45.55434" lon="6.02717">
        <ele>766.041613035</ele>
        <time>2015-12-08T12:42:40Z</time>
      </trkpt>
      <trkpt lat="45.55416" lon="6.02705">
        <ele>763.371481903</ele>
        <time>2015-12-08T12:42:51Z</time>
      </trkpt>
      <trkpt lat="45.55413" lon="6.02701">
        <ele>763.371481903</ele>
        <time>2015-12-08T12:42:55Z</time>
      </trkpt>
      <trkpt lat="45.55401" lon="6.02696">
        <ele>760.99134974</ele>
        <time>2015-12-08T12:43:05Z</time>
      </trkpt>
      <trkpt lat="45.55395" lon="6.0269">
        <ele>760.99134974</ele>
        <time>2015-12-08T12:43:10Z</time>
      </trkpt>
      <trkpt lat="45.55382" lon="6.02679">
        <ele>758.450632596</ele>
        <time>2015-12-08T12:43:19Z</time>
      </trkpt>
      <trkpt lat="45.55375" lon="6.02672">
        <ele>758.450632596</ele>
        <time>2015-12-08T12:43:24Z</time>
      </trkpt>
      <trkpt lat="45.55355" lon="6.02649">
        <ele>756.773392277</ele>
        <time>2015-12-08T12:43:39Z</time>
      </trkpt>
      <trkpt lat="45.55343" lon="6.02636">
        <ele>755.17668489</ele>
        <time>2015-12-08T12:43:49Z</time>
      </trkpt>
      <trkpt lat="45.55337" lon="6.0263">
        <ele>755.17668489</ele>
        <time>2015-12-08T12:43:54Z</time>
      </trkpt>
      <trkpt lat="45.55316" lon="6.02618">
        <ele>753.799496319</ele>
        <time>2015-12-08T12:44:09Z</time>
      </trkpt>
      <trkpt lat="45.5531" lon="6.02614">
        <ele>753.799496319</ele>
        <time>2015-12-08T12:44:14Z</time>
      </trkpt>
      <trkpt lat="45.55304" lon="6.0261">
        <ele>752.337626071</ele>
        <time>2015-12-08T12:44:19Z</time>
      </trkpt>
      <trkpt lat="45.55296" lon="6.02606">
        <ele>752.337626071</ele>
        <time>2015-12-08T12:44:24Z</time>
      </trkpt>
      <trkpt lat="45.55283" lon="6.02598">
        <ele>744.744973571</ele>
        <time>2015-12-08T12:44:34Z</time>
      </trkpt>
      <trkpt lat="45.55276" lon="6.02596">
        <ele>744.744973571</ele>
        <time>2015-12-08T12:44:40Z</time>
      </trkpt>
      <trkpt lat="45.55261" lon="6.02585">
        <ele>742.441852261</ele>
        <time>2015-12-08T12:44:49Z</time>
      </trkpt>
      <trkpt lat="45.55255" lon="6.02579">
        <ele>742.441852261</ele>
        <time>2015-12-08T12:44:54Z</time>
      </trkpt>
      <trkpt lat="45.55254" lon="6.02577">
        <ele>742.441852261</ele>
        <time>2015-12-08T12:45:04Z</time>
      </trkpt>
      <trkpt lat="45.55254" lon="6.02576">
        <ele>741.583635407</ele>
        <time>2015-12-08T12:45:09Z</time>
      </trkpt>
      <trkpt lat="45.55254" lon="6.02575">
        <ele>741.583635407</ele>
        <time>2015-12-08T12:45:19Z</time>
      </trkpt>
      <trkpt lat="45.55254" lon="6.02575">
        <ele>741.583635407</ele>
        <time>2015-12-08T12:45:24Z</time>
      </trkpt>
      <trkpt lat="45.55254" lon="6.02573">
        <ele>741.583635407</ele>
        <time>2015-12-08T12:45:34Z</time>
      </trkpt>
    </trkseg>
  </trk>
</gpx>